[[{"header":{"parameterUnit":"m.s-1","parameterCategory":1,"la1":31.0,"la2":29.5877,"lo1":-88.7671,"lo2":-86.6584,"dy":0.0162,"dx":0.0185,"nx":115,"ny":88,"refTime":"2026-03-23T12:00:00:Z","depth":0,"parameterNumber":2,"parameterNumberName":"U-component_of_WINDS"},"data":[0.0,0.0,0.0,0.0,0.0,0.0,0.0,0.0,0.0,0.0,0.0,0.0,0.0,0.0,0.0,0.0,0.0,0.0,0.0,0.0,0.0,0.0,0.0,0.0,0.0,0.0,0.0,0.0,0.0,0.0,0.0,0.0,0.0,0.0,0.0,0.0,0.0,0.0,0.0,0.0,0.0,0.0,0.0,0.0,0.0,0.0,0.0,0.0,0.0,0.0,0.0,0.0,0.0,0.0,0.0,0.0,0.0,0.0,0.0,0.0,0.0,0.0,0.0,0.0,0.0,0.0,0.0,0.0,0.0,0.0,0.0,0.0,0.0,0.0,0.0,0.0,0.0,0.0,0.0,0.0,0.0,0.0,0.0,0.0,0.0,0.0,0.0,0.0,0.0,0.0,0.0,0.0,0.0,0.0,0.0,0.0,0.0,0.0,0.0,0.0,0.0,0.0,0.0,0.0,0.0,0.0,0.0,0.0,0.0,0.0,0.0,0.0,0.0,0.0,0.0,0.0,0.0,0.0,0.0,0.0,0.0,0.0,0.0,0.0,0.0,0.0,0.0,0.0,0.0,0.0,0.0,0.0,0.0,0.0,0.0,0.0,0.0,0.0,0.0,0.0,0.0,0.0,0.0,0.0,0.0,0.0,0.0,0.0,0.0,0.0,0.0,0.0,0.0,0.0,0.0,0.0,0.0,0.0,0.0,0.0,0.0,0.0,0.0,0.0,0.0,0.0,0.0,0.0,0.0,0.0,0.0,0.0,0.0,0.0,0.0,0.0,0.0,0.0,0.0,0.0,0.0,0.0,0.0,0.0,0.0,0.0,0.0,0.0,0.0,0.0,0.0,0.0,0.0,0.0,0.0,0.0,0.0,0.0,0.0,0.0,0.0,0.0,0.0,0.0,0.0,0.0,0.0,0.0,0.0,0.0,0.0,0.0,0.0,0.0,0.0,0.0,0.0,0.0,0.0,0.0,0.0,0.0,0.0,0.0,0.0,0.0,0.0,0.0,0.0,0.0,0.0,0.0,0.0,0.0,0.0,0.0,0.0,0.0,0.0,0.0,0.0,0.0,0.0,0.0,0.0,0.0,0.0,0.0,0.0,0.0,0.0,0.0,0.0,0.0,0.0,0.0,0.0,0.0,0.0,0.0,0.0,0.0,0.0,0.0,0.0,0.0,0.0,0.0,0.0,0.0,0.0,0.0,0.0,0.0,0.0,0.0,0.0,0.0,0.0,0.0,0.0,0.0,0.0,0.0,0.0,0.0,0.0,0.0,0.0,0.0,0.0,0.0,0.0,0.0,0.0,0.0,0.0,0.0,0.0,0.0,0.0,0.0,0.0,0.0,0.0,0.0,0.0,0.0,0.0,0.0,0.0,0.0,0.0,0.0,0.0,0.0,0.0,0.0,0.0,0.0,0.0,0.0,0.0,0.0,0.0,0.0,0.0,0.0,0.0,0.0,0.0,0.0,0.0,0.0,0.0,0.0,0.0,0.0,0.0,0.0,0.0,0.0,0.0,0.0,0.0,0.0,0.0,0.0,0.0,0.0,0.0,0.0,0.0,0.0,0.0,0.0,0.0,0.0,0.0,0.0,0.0,0.0,0.0,0.0,0.0,0.0,0.0,0.0,0.0,0.0,0.0,0.0,0.0,0.0,0.0,0.0,0.0,0.0,0.0,0.0,0.0,0.0,0.0,0.0,0.0,0.0,0.0,0.0,0.0,0.0,0.0,0.0,0.0,0.0,0.0,0.0,0.0,0.0,0.0,0.0,0.0,0.0,0.0,0.0,0.0,0.0,0.0,0.0,0.0,0.0,0.0,0.0,0.0,0.0,0.0,0.0,0.0,0.0,0.0,0.0,0.0,0.0,0.0,0.0,0.0,0.0,0.0,0.0,0.0,0.0,0.0,0.0,0.0,0.0,0.0,0.0,0.0,0.0,0.0,0.0,0.0,0.0,0.0,0.0,0.0,0.0,0.0,0.0,0.0,0.0,0.0,0.0,0.0,0.0,0.0,0.0,0.0,0.0,0.0,0.0,0.0,0.0,0.0,0.0,0.0,0.0,0.0,0.0,0.0,0.0,0.0,0.0,0.0,0.0,0.0,0.0,0.0,0.0,0.0,0.0,0.0,0.0,0.0,0.0,0.0,0.0,0.0,0.0,0.0,0.0,0.0,0.0,0.0,0.0,0.0,0.0,0.0,0.0,0.0,0.0,0.0,0.0,0.0,0.0,0.0,0.0,0.0,0.0,0.0,0.0,0.0,0.0,0.0,0.0,0.0,0.0,0.0,0.0,0.0,0.0,0.0,0.0,0.0,0.0,0.0,0.0,0.0,0.0,0.0,0.0,0.0,0.0,0.0,0.0,0.0,0.0,0.0,0.0,0.0,0.0,0.0,0.0,0.0,0.0,0.0,0.0,0.0,0.0,0.0,0.0,0.0,0.0,0.0,0.0,0.0,0.0,0.0,0.0,0.0,0.0,0.0,0.0,0.0,0.0,0.0,0.0,0.0,0.0,0.0,0.0,0.0,0.0,0.0,0.0,0.0,0.0,0.0,0.0,0.0,0.0,0.0,0.0,0.0,0.0,0.0,0.0,0.0,0.0,0.0,0.0,0.0,0.0,0.0,0.0,0.0,0.0,0.0,0.0,0.0,0.0,0.0,0.0,0.0,0.0,0.0,0.0,0.0,0.0,0.0,0.0,0.0,0.0,0.0,0.0,0.0,0.0,0.0,0.0,0.0,0.0,0.0,0.0,0.0,0.0,0.0,0.0,0.0,0.0,0.0,0.0,0.0,0.0,0.0,0.0,0.0,0.0,0.0,0.0,0.0,0.0,0.0,0.0,0.0,0.0,0.0,0.0,0.0,0.0,0.0,0.0,0.0,0.0,0.0,0.0,0.0,0.0,0.0,0.0,0.0,0.0,0.0,0.0,0.0,0.0,0.0,0.0,0.0,0.0,0.0,0.0,0.0,0.0,0.0,0.0,0.0,0.0,0.0,0.0,0.0,0.0,0.0,0.0,0.0,0.0,0.0,0.0,0.0,0.0,0.0,0.0,0.0,0.0,0.0,0.0,0.0,0.0,0.0,0.0,0.0,0.0,0.0,0.0,0.0,0.0,0.0,0.0,0.0,0.0,0.0,0.0,0.0,0.0,0.0,0.0,0.0,0.0,0.0,0.0,0.0,0.0,0.0,0.0,0.0,0.0,0.0,0.0,0.0,0.0,0.0,0.0,0.0,0.0,0.0,0.0,0.0,0.0,0.0,0.0,0.0,0.0,0.0,0.0,0.0,0.0,0.0,0.0,0.0,0.0,0.0,0.0,0.0,0.0,0.0,0.0,0.0,0.0,0.0,0.0,0.0,0.0,0.0,0.0,0.0,0.0,0.0,0.0,0.0,0.0,0.0,0.0,0.0,0.0,0.0,0.0,0.0,0.0,0.0,0.0,0.0,0.0,0.0,0.0,0.0,0.0,0.0,0.0,0.0,0.0,0.0,0.0,0.0,0.0,0.0,0.0,0.0,0.0,0.0,0.0,0.0,0.0,0.0,0.0,0.0,0.0,0.0,0.0,0.0,0.0,0.0,0.0,0.0,0.0,0.0,0.0,0.0,0.0,0.0,0.0,0.0,0.0,0.0,0.0,0.0,0.0,0.0,0.0,0.0,0.0,0.0,0.0,0.0,0.0,0.0,0.0,0.0,0.0,0.0,0.0,0.0,0.0,0.0,0.0,0.0,0.0,0.0,0.0,0.0,0.0,0.0,0.0,0.0,0.0,0.0,0.0,0.0,0.0,0.0,0.0,0.0,0.0,0.0,0.0,0.0,0.0,0.0,0.0,0.0,0.0,0.0,0.0,0.0,0.0,0.0,0.0,0.0,0.0,0.0,0.0,0.0,0.0,0.0,0.0,0.0,0.0,0.0,0.0,0.0,0.0,0.0,0.0,0.0,0.0,0.0,0.0,0.0,0.0,0.0,0.0,0.0,0.0,0.0,0.0,0.0,0.0,0.0,0.0,0.0,0.0,0.0,0.0,0.0,0.0,0.0,0.0,0.0,0.0,0.0,0.0,0.0,0.0,0.0,0.0,0.0,0.0,0.0,0.0,0.0,0.0,0.0,0.0,0.0,0.0,0.0,0.0,0.0,0.0,0.0,0.0,0.0,0.0,0.0,0.0,0.0,0.0,0.0,0.0,0.0,0.0,0.0,0.0,0.0,0.0,0.0,0.0,0.0,0.0,0.0,0.0,0.0,0.0,0.0,0.0,0.0,0.0,0.0,0.0,4.5025,0.0,0.0,0.0,0.0,0.0,0.0,0.0,0.0,0.0,0.0,0.0,0.0,0.0,0.0,0.0,0.0,0.0,0.0,0.0,0.0,0.0,0.0,0.0,0.0,0.0,0.0,0.0,0.0,0.0,0.0,0.0,0.0,0.0,0.0,0.0,0.0,0.0,0.0,0.0,0.0,0.0,0.0,0.0,0.0,0.0,0.0,0.0,0.0,0.0,0.0,0.0,0.0,0.0,0.0,0.0,0.0,0.0,0.0,0.0,0.0,0.0,0.0,0.0,0.0,0.0,0.0,0.0,0.0,0.0,0.0,0.0,0.0,0.0,0.0,0.0,0.0,0.0,0.0,0.0,0.0,0.0,0.0,0.0,0.0,0.0,0.0,0.0,0.0,0.0,0.0,0.0,0.0,0.0,0.0,0.0,0.0,0.0,0.0,0.0,0.0,0.0,0.0,0.0,0.0,0.0,0.0,0.0,0.0,0.0,0.0,4.7076,4.7076,4.6383,4.5626,4.4838,0.0,0.0,0.0,0.0,0.0,0.0,0.0,0.0,0.0,0.0,0.0,0.0,0.0,0.0,0.0,0.0,0.0,0.0,0.0,0.0,0.0,0.0,0.0,0.0,0.0,0.0,0.0,0.0,0.0,0.0,0.0,0.0,0.0,0.0,0.0,0.0,0.0,0.0,0.0,0.0,0.0,0.0,0.0,0.0,0.0,0.0,0.0,0.0,0.0,0.0,0.0,0.0,0.0,0.0,0.0,0.0,0.0,0.0,0.0,0.0,0.0,0.0,0.0,0.0,0.0,0.0,0.0,0.0,0.0,0.0,0.0,0.0,0.0,0.0,0.0,0.0,0.0,0.0,0.0,0.0,0.0,0.0,0.0,0.0,0.0,0.0,0.0,0.0,0.0,0.0,0.0,0.0,0.0,0.0,0.0,0.0,0.0,0.0,0.0,0.0,0.0,0.0,0.0,0.0,0.0,0.0,0.0,0.0,0.0,0.0,0.0,0.0,4.6783,4.5813,4.4889,0.0,0.0,0.0,0.0,0.0,0.0,0.0,0.0,0.0,0.0,0.0,0.0,0.0,0.0,0.0,0.0,0.0,0.0,0.0,0.0,0.0,0.0,0.0,0.0,0.0,0.0,0.0,0.0,0.0,0.0,0.0,0.0,0.0,0.0,0.0,0.0,0.0,0.0,0.0,0.0,0.0,0.0,0.0,0.0,0.0,0.0,0.0,0.0,0.0,0.0,0.0,0.0,0.0,0.0,0.0,0.0,0.0,0.0,0.0,0.0,0.0,0.0,0.0,0.0,0.0,0.0,0.0,0.0,0.0,0.0,0.0,0.0,0.0,0.0,0.0,0.0,0.0,0.0,0.0,0.0,0.0,0.0,0.0,0.0,0.0,0.0,0.0,0.0,0.0,0.0,0.0,0.0,0.0,0.0,0.0,0.0,0.0,0.0,0.0,0.0,0.0,0.0,0.0,0.0,0.0,0.0,0.0,0.0,0.0,0.0,4.8662,4.9436,4.7999,0.0,4.4938,0.0,0.0,0.0,0.0,0.0,0.0,0.0,0.0,0.0,0.0,0.0,0.0,0.0,0.0,0.0,0.0,0.0,0.0,0.0,0.0,0.0,0.0,0.0,0.0,0.0,0.0,0.0,0.0,0.0,0.0,0.0,0.0,0.0,0.0,0.0,0.0,0.0,0.0,0.0,0.0,0.0,0.0,0.0,0.0,0.0,0.0,0.0,0.0,0.0,0.0,0.0,0.0,0.0,0.0,0.0,0.0,0.0,0.0,0.0,0.0,0.0,0.0,0.0,0.0,0.0,0.0,0.0,0.0,0.0,0.0,0.0,0.0,0.0,0.0,0.0,0.0,0.0,0.0,0.0,0.0,0.0,0.0,0.0,0.0,0.0,0.0,0.0,0.0,0.0,0.0,0.0,0.0,0.0,0.0,0.0,0.0,0.0,0.0,0.0,0.0,0.0,0.0,0.0,0.0,0.0,0.0,0.0,0.0,0.0,0.0,0.0,5.1912,4.8903,4.6473,0.0,0.0,0.0,0.0,0.0,0.0,0.0,0.0,0.0,0.0,0.0,0.0,0.0,0.0,0.0,0.0,0.0,0.0,0.0,0.0,0.0,0.0,0.0,0.0,0.0,0.0,0.0,0.0,0.0,0.0,0.0,0.0,0.0,0.0,0.0,0.0,0.0,0.0,0.0,0.0,0.0,0.0,0.0,0.0,0.0,0.0,0.0,0.0,0.0,0.0,0.0,0.0,0.0,0.0,0.0,0.0,0.0,0.0,0.0,0.0,0.0,0.0,0.0,0.0,0.0,0.0,0.0,0.0,0.0,0.0,0.0,0.0,0.0,0.0,0.0,0.0,0.0,0.0,0.0,0.0,0.0,0.0,0.0,0.0,0.0,0.0,0.0,0.0,0.0,0.0,0.0,0.0,0.0,0.0,0.0,0.0,0.0,0.0,0.0,0.0,0.0,0.0,0.0,0.0,0.0,0.0,0.0,0.0,0.0,0.0,4.9552,0.0,5.185,4.867,4.5991,4.4141,0.0,0.0,0.0,0.0,0.0,0.0,0.0,0.0,0.0,0.0,0.0,0.0,0.0,0.0,0.0,0.0,0.0,0.0,0.0,0.0,0.0,0.0,0.0,0.0,0.0,0.0,0.0,0.0,0.0,0.0,0.0,0.0,0.0,0.0,0.0,0.0,0.0,0.0,0.0,0.0,0.0,0.0,0.0,0.0,0.0,0.0,0.0,0.0,0.0,0.0,0.0,0.0,0.0,0.0,0.0,0.0,0.0,0.0,0.0,0.0,0.0,0.0,0.0,0.0,0.0,0.0,0.0,0.0,0.0,0.0,0.0,0.0,0.0,0.0,0.0,0.0,0.0,0.0,0.0,0.0,0.0,0.0,0.0,0.0,0.0,0.0,0.0,0.0,0.0,0.0,0.0,0.0,0.0,0.0,0.0,0.0,0.0,0.0,0.0,0.0,0.0,0.0,0.0,0.0,0.0,0.0,0.0,0.0,0.0,4.9281,4.9374,4.8667,4.6888,4.4831,0.0,0.0,0.0,0.0,0.0,0.0,0.0,0.0,0.0,0.0,0.0,0.0,0.0,0.0,0.0,0.0,0.0,0.0,0.0,0.0,0.0,0.0,0.0,0.0,0.0,0.0,0.0,0.0,0.0,0.0,0.0,0.0,0.0,0.0,0.0,0.0,0.0,0.0,0.0,0.0,0.0,0.0,0.0,0.0,0.0,0.0,0.0,0.0,0.0,0.0,0.0,0.0,0.0,0.0,0.0,0.0,0.0,0.0,0.0,0.0,0.0,0.0,0.0,0.0,0.0,0.0,0.0,0.0,0.0,0.0,0.0,0.0,0.0,0.0,0.0,0.0,0.0,0.0,0.0,0.0,0.0,0.0,0.0,0.0,0.0,0.0,0.0,0.0,0.0,0.0,0.0,0.0,0.0,0.0,0.0,0.0,0.0,0.0,0.0,0.0,0.0,0.0,0.0,0.0,0.0,0.0,0.0,0.0,0.0,4.7579,4.9475,4.9513,4.7647,4.6485,4.4718,0.0,0.0,0.0,0.0,0.0,0.0,0.0,0.0,0.0,0.0,0.0,0.0,0.0,0.0,0.0,0.0,0.0,0.0,0.0,0.0,0.0,0.0,0.0,0.0,0.0,0.0,0.0,0.0,0.0,0.0,0.0,0.0,0.0,0.0,0.0,0.0,0.0,0.0,0.0,0.0,0.0,0.0,0.0,0.0,0.0,0.0,0.0,0.0,0.0,0.0,0.0,0.0,0.0,0.0,0.0,0.0,0.0,0.0,0.0,0.0,0.0,0.0,0.0,0.0,0.0,0.0,0.0,0.0,0.0,0.0,0.0,0.0,0.0,0.0,0.0,0.0,0.0,0.0,0.0,0.0,0.0,0.0,0.0,0.0,0.0,0.0,0.0,0.0,0.0,0.0,0.0,0.0,0.0,0.0,0.0,0.0,0.0,0.0,0.0,0.0,0.0,0.0,0.0,0.0,0.0,0.0,0.0,0.0,0.0,4.7927,0.0,5.0635,0.0,4.727,4.522,0.0,0.0,0.0,0.0,0.0,0.0,0.0,0.0,0.0,0.0,0.0,0.0,0.0,0.0,0.0,0.0,0.0,0.0,0.0,0.0,0.0,0.0,0.0,0.0,0.0,0.0,0.0,0.0,0.0,0.0,0.0,0.0,0.0,0.0,0.0,0.0,0.0,0.0,0.0,0.0,0.0,0.0,0.0,0.0,0.0,0.0,0.0,0.0,0.0,0.0,0.0,0.0,0.0,0.0,0.0,0.0,0.0,0.0,0.0,0.0,0.0,0.0,0.0,0.0,0.0,0.0,0.0,0.0,0.0,0.0,0.0,0.0,0.0,0.0,0.0,0.0,0.0,0.0,0.0,0.0,0.0,0.0,0.0,0.0,0.0,0.0,0.0,0.0,0.0,0.0,0.0,0.0,0.0,0.0,0.0,0.0,0.0,0.0,0.0,0.0,0.0,0.0,0.0,0.0,0.0,0.0,0.0,0.0,0.0,4.9591,5.2144,5.2569,5.0945,4.9243,4.638,0.0,0.0,0.0,0.0,0.0,0.0,0.0,0.0,0.0,0.0,0.0,0.0,0.0,0.0,0.0,0.0,0.0,0.0,0.0,0.0,0.0,0.0,0.0,0.0,0.0,0.0,0.0,0.0,0.0,0.0,0.0,0.0,0.0,0.0,0.0,0.0,0.0,0.0,0.0,0.0,0.0,0.0,0.0,0.0,0.0,0.0,0.0,0.0,0.0,0.0,0.0,0.0,0.0,0.0,0.0,0.0,0.0,0.0,0.0,0.0,0.0,0.0,0.0,0.0,0.0,0.0,0.0,0.0,0.0,0.0,0.0,0.0,0.0,0.0,0.0,0.0,0.0,0.0,0.0,0.0,0.0,0.0,0.0,0.0,0.0,0.0,0.0,0.0,0.0,0.0,0.0,0.0,0.0,0.0,0.0,0.0,0.0,0.0,0.0,0.0,0.0,0.0,0.0,0.0,0.0,0.0,0.0,0.0,0.0,4.9745,5.2182,5.2956,5.1796,5.0171,4.7579,0.0,0.0,0.0,0.0,0.0,0.0,0.0,0.0,0.0,0.0,0.0,0.0,0.0,0.0,0.0,0.0,0.0,0.0,0.0,0.0,0.0,0.0,0.0,0.0,0.0,0.0,0.0,0.0,0.0,0.0,0.0,0.0,0.0,0.0,0.0,0.0,0.0,0.0,0.0,0.0,0.0,0.0,0.0,0.0,0.0,0.0,0.0,0.0,0.0,0.0,0.0,0.0,0.0,0.0,0.0,0.0,0.0,0.0,0.0,0.0,0.0,0.0,0.0,0.0,0.0,0.0,0.0,0.0,0.0,0.0,0.0,0.0,0.0,0.0,0.0,0.0,0.0,0.0,0.0,0.0,0.0,0.0,0.0,0.0,0.0,0.0,0.0,0.0,0.0,0.0,0.0,0.0,0.0,0.0,0.0,0.0,0.0,0.0,0.0,0.0,0.0,0.0,0.0,0.0,0.0,0.0,0.0,0.0,0.0,5.8217,5.9493,5.9416,5.7946,5.5973,5.2531,4.7618,0.0,0.0,0.0,0.0,0.0,0.0,0.0,0.0,0.0,0.0,0.0,0.0,0.0,0.0,0.0,0.0,0.0,0.0,0.0,0.0,0.0,0.0,0.0,0.0,0.0,0.0,0.0,0.0,0.0,0.0,0.0,0.0,0.0,0.0,0.0,0.0,0.0,0.0,0.0,0.0,0.0,0.0,0.0,0.0,0.0,0.0,0.0,0.0,0.0,0.0,0.0,0.0,0.0,0.0,0.0,0.0,0.0,0.0,0.0,0.0,0.0,0.0,0.0,0.0,0.0,0.0,0.0,0.0,0.0,0.0,0.0,0.0,0.0,0.0,0.0,0.0,0.0,0.0,0.0,0.0,0.0,0.0,0.0,0.0,0.0,0.0,0.0,0.0,0.0,0.0,0.0,0.0,0.0,0.0,0.0,0.0,0.0,0.0,0.0,0.0,0.0,0.0,0.0,0.0,0.0,0.0,0.0,0.0,7.3032,7.28,7.1214,6.8158,6.5528,6.0576,0.0,0.0,0.0,0.0,0.0,0.0,0.0,0.0,0.0,0.0,0.0,0.0,0.0,0.0,0.0,0.0,0.0,0.0,0.0,0.0,0.0,0.0,0.0,0.0,0.0,0.0,0.0,0.0,0.0,0.0,0.0,0.0,0.0,0.0,0.0,0.0,0.0,0.0,0.0,0.0,0.0,0.0,0.0,0.0,0.0,0.0,0.0,0.0,0.0,0.0,0.0,0.0,0.0,0.0,0.0,0.0,0.0,0.0,0.0,0.0,0.0,0.0,0.0,0.0,0.0,0.0,0.0,0.0,0.0,0.0,0.0,0.0,0.0,0.0,0.0,0.0,0.0,0.0,0.0,0.0,0.0,0.0,0.0,0.0,0.0,0.0,0.0,0.0,0.0,0.0,0.0,0.0,0.0,0.0,0.0,0.0,0.0,0.0,0.0,0.0,0.0,0.0,0.0,0.0,0.0,0.0,0.0,0.0,0.0,7.984,8.6029,8.4946,7.632,7.2258,6.6959,0.0,0.0,0.0,0.0,0.0,0.0,0.0,0.0,0.0,0.0,0.0,0.0,0.0,0.0,0.0,0.0,0.0,0.0,0.0,0.0,0.0,0.0,0.0,0.0,0.0,0.0,0.0,0.0,0.0,0.0,0.0,0.0,0.0,0.0,0.0,0.0,0.0,0.0,0.0,0.0,0.0,0.0,0.0,0.0,0.0,0.0,0.0,0.0,0.0,0.0,0.0,0.0,0.0,0.0,0.0,0.0,0.0,0.0,0.0,0.0,0.0,0.0,0.0,0.0,0.0,0.0,0.0,0.0,0.0,0.0,0.0,0.0,0.0,0.0,0.0,0.0,0.0,0.0,0.0,0.0,0.0,0.0,0.0,0.0,0.0,0.0,0.0,0.0,0.0,0.0,0.0,0.0,0.0,0.0,0.0,0.0,0.0,0.0,0.0,0.0,0.0,0.0,0.0,0.0,0.0,0.0,0.0,0.0,7.5314,8.5836,9.4655,9.5506,8.7731,8.131,7.3883,0.0,0.0,0.0,0.0,0.0,0.0,0.0,0.0,0.0,0.0,0.0,0.0,0.0,0.0,0.0,0.0,0.0,0.0,0.0,0.0,0.0,0.0,0.0,0.0,0.0,0.0,0.0,0.0,0.0,0.0,0.0,0.0,0.0,0.0,0.0,0.0,0.0,0.0,0.0,0.0,0.0,0.0,0.0,0.0,0.0,0.0,0.0,0.0,0.0,0.0,0.0,0.0,0.0,0.0,0.0,0.0,0.0,0.0,0.0,0.0,0.0,0.0,0.0,0.0,0.0,0.0,0.0,0.0,0.0,0.0,0.0,0.0,0.0,0.0,0.0,0.0,0.0,0.0,0.0,0.0,0.0,0.0,0.0,0.0,0.0,0.0,0.0,0.0,0.0,0.0,0.0,0.0,0.0,0.0,0.0,0.0,0.0,0.0,0.0,0.0,0.0,0.0,0.0,0.0,0.0,0.0,0.0,0.0,7.9956,9.0749,9.9916,10.305,9.9491,9.0749,8.0885,0.0,0.0,0.0,0.0,0.0,0.0,0.0,0.0,0.0,0.0,0.0,0.0,0.0,0.0,0.0,0.0,0.0,0.0,0.0,0.0,0.0,0.0,0.0,0.0,0.0,0.0,0.0,0.0,0.0,0.0,0.0,0.0,0.0,0.0,0.0,0.0,0.0,0.0,0.0,0.0,0.0,0.0,0.0,0.0,0.0,0.0,0.0,0.0,0.0,0.0,0.0,0.0,0.0,0.0,0.0,0.0,0.0,0.0,0.0,0.0,0.0,0.0,0.0,0.0,0.0,0.0,0.0,0.0,0.0,0.0,0.0,0.0,0.0,0.0,0.0,0.0,0.0,0.0,0.0,0.0,0.0,0.0,0.0,0.0,0.0,0.0,0.0,0.0,0.0,0.0,0.0,0.0,0.0,0.0,0.0,0.0,0.0,0.0,0.0,0.0,0.0,0.0,0.0,0.0,0.0,0.0,0.0,0.0,8.4598,9.423,10.2276,10.4829,10.1386,9.4191,8.5759,0.0,0.0,0.0,0.0,0.0,0.0,0.0,0.0,0.0,0.0,0.0,0.0,0.0,0.0,0.0,0.0,0.0,0.0,0.0,0.0,0.0,0.0,0.0,0.0,0.0,0.0,0.0,0.0,0.0,0.0,0.0,0.0,0.0,0.0,0.0,0.0,0.0,0.0,0.0,0.0,0.0,0.0,0.0,0.0,0.0,0.0,0.0,0.0,4.3411,0.0,0.0,0.0,0.0,0.0,0.0,0.0,0.0,0.0,0.0,0.0,0.0,0.0,0.0,0.0,0.0,0.0,0.0,0.0,0.0,0.0,0.0,0.0,0.0,0.0,0.0,0.0,0.0,0.0,0.0,0.0,0.0,0.0,0.0,0.0,0.0,0.0,0.0,0.0,0.0,0.0,0.0,0.0,0.0,0.0,0.0,0.0,0.0,0.0,0.0,0.0,0.0,0.0,0.0,0.0,0.0,0.0,0.0,0.0,8.9085,9.7131,10.363,10.5719,10.305,9.8021,9.013,0.0,0.0,0.0,0.0,0.0,0.0,0.0,0.0,0.0,0.0,0.0,0.0,0.0,0.0,0.0,0.0,0.0,0.0,0.0,0.0,0.0,0.0,0.0,0.0,0.0,0.0,0.0,0.0,0.0,0.0,0.0,0.0,0.0,0.0,0.0,0.0,0.0,0.0,0.0,0.0,0.0,0.0,0.0,0.0,0.0,0.0,0.0,0.0,0.0,0.0,0.0,0.0,0.0,0.0,0.0,0.0,0.0,0.0,0.0,0.0,0.0,0.0,0.0,0.0,0.0,0.0,0.0,0.0,0.0,0.0,0.0,0.0,0.0,0.0,0.0,0.0,0.0,0.0,0.0,0.0,0.0,0.0,0.0,0.0,0.0,0.0,0.0,0.0,0.0,0.0,0.0,0.0,0.0,0.0,0.0,0.0,0.0,0.0,0.0,0.0,0.0,0.0,0.0,0.0,0.0,0.0,0.0,8.4134,9.3263,9.9568,10.4597,10.6144,10.3862,10.0504,9.277,0.0,0.0,0.0,0.0,0.0,0.0,0.0,0.0,0.0,0.0,0.0,0.0,0.0,0.0,0.0,0.0,0.0,0.0,0.0,0.0,0.0,0.0,0.0,0.0,0.0,0.0,0.0,0.0,0.0,0.0,0.0,0.0,0.0,0.0,0.0,0.0,0.0,0.0,0.0,4.3997,4.6963,0.0,0.0,0.0,0.0,0.0,0.0,0.0,0.0,4.8096,0.0,0.0,0.0,0.0,0.0,0.0,0.0,0.0,0.0,0.0,0.0,0.0,0.0,0.0,0.0,0.0,0.0,0.0,0.0,0.0,0.0,0.0,0.0,0.0,0.0,0.0,0.0,0.0,0.0,0.0,0.0,0.0,0.0,0.0,0.0,0.0,0.0,0.0,0.0,0.0,0.0,0.0,0.0,0.0,0.0,0.0,0.0,0.0,0.0,0.0,0.0,0.0,0.0,0.0,0.0,0.0,7.7635,8.8776,9.6744,10.1386,10.5796,10.5873,10.1386,9.789,9.047,7.8641,0.0,0.0,0.0,0.0,0.0,0.0,0.0,0.0,0.0,0.0,0.0,0.0,0.0,0.0,0.0,0.0,0.0,0.0,0.0,0.0,0.0,0.0,0.0,0.0,0.0,0.0,0.0,0.0,0.0,0.0,0.0,0.0,0.0,0.0,0.0,0.0,0.0,0.0,0.0,5.1453,5.3132,0.0,0.0,0.0,0.0,0.0,0.0,0.0,0.0,4.8213,0.0,0.0,0.0,0.0,0.0,0.0,0.0,0.0,0.0,0.0,0.0,0.0,0.0,0.0,0.0,0.0,0.0,0.0,0.0,0.0,0.0,0.0,0.0,0.0,0.0,0.0,0.0,0.0,0.0,0.0,0.0,0.0,0.0,0.0,0.0,0.0,0.0,0.0,0.0,0.0,0.0,0.0,0.0,0.0,0.0,0.0,0.0,0.0,0.0,0.0,0.0,0.0,0.0,0.0,0.0,8.2122,9.3611,10.0922,10.3823,10.6338,10.4984,9.9413,9.4287,8.6169,0.0,0.0,0.0,0.0,0.0,0.0,0.0,0.0,0.0,0.0,0.0,0.0,0.0,0.0,0.0,0.0,0.0,0.0,0.0,0.0,0.0,0.0,0.0,0.0,0.0,0.0,0.0,0.0,0.0,0.0,0.0,0.0,0.0,0.0,0.0,0.0,0.0,0.0,0.0,0.0,5.5318,5.766,5.5083,0.0,0.0,0.0,0.0,0.0,0.0,5.3444,5.1531,0.0,0.0,0.0,0.0,0.0,0.0,0.0,0.0,0.0,0.0,0.0,0.0,0.0,0.0,0.0,0.0,0.0,0.0,0.0,0.0,0.0,0.0,0.0,0.0,0.0,0.0,0.0,0.0,0.0,0.0,0.0,0.0,0.0,0.0,0.0,0.0,0.0,0.0,0.0,0.0,0.0,0.0,0.0,0.0,0.0,0.0,0.0,0.0,0.0,0.0,0.0,0.0,0.0,0.0,0.0,8.5217,9.7092,10.4017,10.5641,10.6531,10.4094,9.7982,9.1561,8.2857,0.0,0.0,0.0,0.0,0.0,0.0,0.0,0.0,0.0,0.0,0.0,0.0,0.0,0.0,0.0,0.0,0.0,0.0,0.0,0.0,0.0,0.0,0.0,0.0,0.0,0.0,0.0,0.0,0.0,0.0,0.0,0.0,0.0,0.0,0.0,0.0,0.0,0.0,0.0,0.0,0.0,6.1681,5.9417,5.7972,0.0,0.0,0.0,0.0,5.7192,5.7699,0.0,0.0,0.0,0.0,0.0,0.0,0.0,0.0,0.0,0.0,0.0,0.0,0.0,0.0,0.0,0.0,0.0,0.0,0.0,0.0,0.0,0.0,0.0,0.0,0.0,0.0,0.0,0.0,0.0,0.0,0.0,0.0,0.0,0.0,0.0,0.0,0.0,0.0,0.0,0.0,0.0,0.0,0.0,0.0,0.0,0.0,0.0,0.0,0.0,0.0,0.0,0.0,0.0,0.0,0.0,0.0,8.5217,9.7131,10.4017,10.5641,10.6531,10.3784,9.7131,9.181,8.3449,0.0,0.0,0.0,0.0,0.0,0.0,0.0,0.0,0.0,0.0,0.0,0.0,0.0,0.0,0.0,0.0,0.0,0.0,0.0,0.0,0.0,0.0,0.0,0.0,0.0,0.0,0.0,0.0,0.0,0.0,0.0,0.0,0.0,0.0,0.0,0.0,0.0,0.0,0.0,0.0,0.0,6.4687,6.3672,6.3399,6.2969,0.0,0.0,0.0,6.3164,6.336,0.0,0.0,0.0,0.0,0.0,0.0,0.0,0.0,0.0,0.0,0.0,0.0,0.0,0.0,0.0,0.0,0.0,0.0,0.0,0.0,0.0,0.0,0.0,0.0,0.0,0.0,0.0,0.0,0.0,0.0,0.0,0.0,0.0,0.0,0.0,0.0,0.0,0.0,0.0,0.0,0.0,0.0,0.0,0.0,0.0,0.0,0.0,0.0,0.0,0.0,0.0,0.0,0.0,0.0,0.0,7.4115,8.5952,9.7827,10.4713,10.6376,10.6802,10.3978,9.7673,9.1666,8.3076,0.0,0.0,0.0,0.0,0.0,0.0,0.0,0.0,0.0,0.0,0.0,0.0,0.0,0.0,0.0,0.0,0.0,0.0,0.0,0.0,0.0,0.0,0.0,0.0,0.0,0.0,0.0,0.0,0.0,0.0,0.0,0.0,0.0,0.0,0.0,0.0,0.0,0.0,0.0,0.0,0.0,0.0,6.7264,6.8044,0.0,0.0,0.0,6.7107,6.8474,0.0,0.0,0.0,0.0,0.0,0.0,0.0,0.0,0.0,0.0,0.0,0.0,0.0,0.0,0.0,0.0,0.0,0.0,0.0,0.0,0.0,0.0,0.0,0.0,0.0,0.0,0.0,0.0,0.0,0.0,0.0,0.0,0.0,0.0,0.0,0.0,0.0,0.0,0.0,0.0,0.0,0.0,0.0,0.0,0.0,0.0,0.0,0.0,0.0,0.0,0.0,0.0,0.0,0.0,0.0,0.0,0.0,8.6842,9.8678,10.5564,10.7266,10.7305,10.4674,9.9181,9.3031,0.0,0.0,0.0,0.0,0.0,0.0,0.0,0.0,0.0,0.0,0.0,0.0,0.0,0.0,0.0,0.0,0.0,0.0,0.0,0.0,0.0,0.0,0.0,0.0,0.0,0.0,0.0,3.2831,0.0,0.0,0.0,0.0,0.0,0.0,0.0,0.0,0.0,0.0,0.0,0.0,0.0,0.0,7.0543,7.0933,7.2651,7.3627,0.0,0.0,7.2104,7.3393,7.4993,7.3666,0.0,0.0,0.0,0.0,0.0,0.0,0.0,0.0,0.0,0.0,0.0,0.0,0.0,0.0,0.0,0.0,0.0,0.0,0.0,0.0,0.0,0.0,0.0,0.0,0.0,0.0,0.0,0.0,0.0,0.0,0.0,0.0,0.0,0.0,0.0,0.0,0.0,0.0,0.0,0.0,0.0,0.0,0.0,0.0,0.0,0.0,0.0,0.0,0.0,0.0,0.0,0.0,0.0,0.0,0.0,8.7693,9.9568,10.6454,10.8117,10.8194,10.6105,10.1734,9.7325,8.9395,0.0,0.0,0.0,0.0,0.0,0.0,0.0,0.0,0.0,0.0,0.0,0.0,0.0,0.0,0.0,0.0,0.0,0.0,0.0,0.0,0.0,0.0,0.0,0.0,0.0,0.0,0.0,0.0,0.0,0.0,0.0,0.0,0.0,0.0,0.0,0.0,0.0,0.0,0.0,0.0,0.0,7.3627,7.5149,7.757,7.8897,0.0,0.0,7.7843,7.796,7.7414,7.4915,6.8825,0.0,0.0,0.0,0.0,0.0,0.0,0.0,0.0,0.0,0.0,0.0,0.0,0.0,0.0,0.0,0.0,0.0,0.0,0.0,0.0,0.0,0.0,0.0,0.0,0.0,0.0,0.0,0.0,0.0,0.0,0.0,0.0,0.0,0.0,0.0,0.0,0.0,0.0,0.0,0.0,0.0,0.0,0.0,0.0,0.0,0.0,0.0,0.0,0.0,0.0,0.0,0.0,0.0,7.4811,8.6996,9.9375,10.657,10.8233,10.831,10.6995,10.4326,10.1115,9.3843,0.0,0.0,0.0,0.0,0.0,0.0,0.0,0.0,0.0,0.0,0.0,0.0,0.0,0.0,0.0,0.0,0.0,0.0,0.0,0.0,0.0,0.0,0.0,0.0,0.0,0.0,0.0,0.0,3.697,3.7672,3.7789,0.0,0.0,0.0,0.0,0.0,0.0,0.0,0.0,0.0,0.0,7.7843,7.9561,8.245,0.0,0.0,8.3504,8.2762,8.1708,7.9912,7.6281,6.9243,6.1822,0.0,0.0,0.0,0.0,0.0,0.0,0.0,0.0,0.0,0.0,0.0,0.0,0.0,0.0,0.0,0.0,0.0,0.0,0.0,0.0,0.0,0.0,0.0,0.0,0.0,0.0,0.0,0.0,0.0,0.0,0.0,0.0,0.0,0.0,0.0,0.0,0.0,0.0,0.0,0.0,0.0,0.0,0.0,0.0,0.0,0.0,0.0,0.0,0.0,0.0,0.0,0.0,7.4811,8.688,9.9607,10.6918,10.862,10.8658,10.7962,10.6492,10.3746,9.7054,0.0,0.0,0.0,0.0,0.0,0.0,0.0,0.0,0.0,0.0,0.0,0.0,0.0,0.0,0.0,0.0,0.0,0.0,0.0,0.0,0.0,0.0,0.0,0.0,0.0,0.0,0.0,0.0,3.8609,3.8804,3.7438,0.0,0.0,0.0,0.0,0.0,0.0,0.0,0.0,0.0,0.0,7.9444,8.1981,8.5456,8.7681,8.7446,8.69,8.569,8.3504,8.0335,7.5963,6.951,0.0,0.0,0.0,0.0,0.0,0.0,0.0,0.0,0.0,0.0,0.0,0.0,0.0,0.0,0.0,0.0,0.0,0.0,0.0,0.0,0.0,0.0,0.0,0.0,0.0,0.0,0.0,0.0,0.0,0.0,0.0,0.0,0.0,0.0,0.0,0.0,0.0,0.0,0.0,0.0,0.0,0.0,0.0,0.0,0.0,0.0,0.0,0.0,0.0,0.0,0.0,0.0,0.0,0.0,8.777,10.0419,10.773,10.9355,10.9471,10.9045,10.8117,10.4945,9.8678,8.9085,0.0,0.0,0.0,0.0,0.0,0.0,0.0,0.0,0.0,0.0,0.0,0.0,0.0,0.0,0.0,0.0,0.0,0.0,0.0,0.0,0.0,0.0,0.0,0.0,0.0,0.0,4.0795,4.0991,4.0015,0.0,0.0,0.0,0.0,0.0,0.0,0.0,0.0,0.0,0.0,7.1519,7.7453,8.1708,8.5963,8.8383,8.7564,8.7407,8.6197,8.284,7.7987,7.3413,0.0,0.0,0.0,0.0,0.0,0.0,0.0,0.0,0.0,0.0,0.0,0.0,0.0,0.0,0.0,0.0,0.0,0.0,0.0,0.0,0.0,0.0,0.0,0.0,0.0,0.0,0.0,0.0,4.8237,0.0,0.0,0.0,0.0,0.0,0.0,0.0,0.0,0.0,0.0,0.0,7.0054,7.2065,0.0,0.0,0.0,0.0,0.0,0.0,0.0,0.0,0.0,0.0,0.0,0.0,7.4811,8.6958,9.9645,10.6956,10.862,10.8697,10.831,10.7421,10.4674,9.6667,8.2819,0.0,0.0,0.0,0.0,0.0,0.0,0.0,0.0,0.0,0.0,0.0,0.0,0.0,0.0,0.0,0.0,0.0,0.0,0.0,0.0,0.0,0.0,0.0,0.0,0.0,4.2048,0.0,0.0,0.0,0.0,0.0,0.0,0.0,0.0,0.0,0.0,0.0,6.1978,6.7409,7.2567,7.7375,8.1708,8.6471,8.9437,0.0,0.0,0.0,0.0,0.0,0.0,0.0,0.0,0.0,0.0,0.0,0.0,0.0,0.0,6.7335,6.2786,6.1724,6.1373,6.0789,0.0,0.0,0.0,0.0,0.0,0.0,0.0,0.0,0.0,0.0,0.0,0.0,0.0,0.0,0.0,0.0,5.2879,0.0,0.0,0.0,0.0,0.0,0.0,0.0,0.0,7.3458,7.7983,8.0459,8.2509,8.3592,0.0,8.3283,7.6939,0.0,0.0,0.0,0.0,0.0,0.0,0.0,0.0,7.543,8.6996,9.9375,10.657,10.8194,10.831,10.804,10.7382,10.3514,9.5468,8.2935,7.3248,6.3787,0.0,0.0,0.0,0.0,0.0,0.0,0.0,0.0,0.0,0.0,0.0,0.0,0.0,0.0,0.0,0.0,0.0,0.0,0.0,0.0,0.0,0.0,0.0,4.4409,0.0,0.0,0.0,0.0,0.0,0.0,0.0,0.0,0.0,5.7523,6.1978,6.6706,7.0648,7.4363,7.8272,8.2567,0.0,0.0,0.0,0.0,0.0,0.0,0.0,7.3228,7.2929,7.2218,7.214,7.3573,7.5474,7.7004,7.756,0.0,0.0,7.3737,7.2752,7.2674,7.1817,7.2128,7.2518,7.2518,7.3648,7.5246,0.0,0.0,0.0,0.0,0.0,0.0,0.0,0.0,6.8429,6.665,0.0,5.9841,0.0,0.0,0.0,0.0,0.0,0.0,0.0,0.0,8.278,8.8118,9.0555,9.2953,9.3843,0.0,9.2915,9.0168,8.4637,7.1137,0.0,0.0,0.0,0.0,0.0,0.0,7.6823,8.7886,9.9645,10.6531,10.8156,10.8233,10.8194,10.7962,10.1773,9.5506,8.9433,8.1169,7.3226,6.5759,5.8955,0.0,0.0,0.0,0.0,0.0,0.0,0.0,0.0,0.0,0.0,0.0,0.0,0.0,0.0,0.0,0.0,0.0,0.0,0.0,0.0,4.948,0.0,0.0,0.0,0.0,0.0,0.0,0.0,0.0,0.0,0.0,6.2696,6.655,7.0805,7.4173,0.0,0.0,0.0,0.0,9.096,9.0218,9.0062,8.8852,8.5495,8.1368,7.8837,7.9812,0.0,0.0,8.4637,8.5767,8.6312,8.6351,8.7676,8.7728,8.435,8.3948,8.413,8.3429,8.3078,8.3507,8.3585,8.3663,8.5143,8.3206,0.0,0.0,0.0,0.0,7.5314,7.895,8.2238,7.9569,7.7674,7.6049,7.0634,0.0,0.0,0.0,0.0,0.0,0.0,7.4425,8.1426,8.8079,9.2528,9.5004,9.6358,9.686,9.6628,9.539,9.307,8.9627,8.2625,7.338,6.2201,0.0,0.0,0.0,0.0,7.8332,8.8737,9.9336,10.5603,10.7343,10.7382,10.6763,10.5525,10.2469,9.8562,9.3804,8.7294,8.0779,7.4337,6.7676,0.0,0.0,0.0,0.0,0.0,0.0,0.0,0.0,0.0,0.0,0.0,0.0,0.0,0.0,0.0,0.0,0.0,0.0,0.0,5.4266,5.5514,5.4172,0.0,0.0,0.0,0.0,0.0,0.0,0.0,0.0,0.0,7.3432,7.3236,7.4089,0.0,0.0,8.0888,8.5143,8.8383,9.0687,9.1624,0.0,0.0,0.0,8.5856,8.4785,8.7398,9.0066,9.2327,9.3677,9.4121,9.4264,9.4225,9.4627,9.4379,9.2795,9.017,8.8417,8.8027,8.7949,8.8183,8.8767,8.9118,8.9858,9.5777,8.6261,8.3592,8.2471,8.2819,8.6481,9.0351,9.3804,9.1417,8.9522,8.7731,8.2122,7.7094,7.2607,6.9048,0.0,0.0,0.0,8.2084,8.7847,9.307,9.6512,9.8292,9.9181,9.9413,9.9027,9.7673,9.6048,9.4191,9.0594,8.4443,0.0,0.0,0.0,6.6998,7.3574,8.1271,9.0168,9.9568,10.5061,10.6454,10.6802,10.6183,10.4442,10.3088,10.0574,9.6628,9.1473,8.6416,8.1484,7.4537,6.7769,0.0,0.0,0.0,0.0,0.0,0.0,0.0,0.0,0.0,0.0,0.0,3.6005,0.0,0.0,0.0,0.0,5.0282,5.574,5.9672,6.1557,0.0,0.0,0.0,0.0,0.0,0.0,0.0,7.0206,7.5077,7.9209,8.2059,8.1396,8.1122,8.2332,8.3816,8.5963,8.9203,0.0,9.3419,9.4434,9.4154,9.3482,9.2568,9.0872,9.0646,9.3679,9.581,9.7539,9.841,9.8591,9.8577,9.8538,9.829,9.7847,9.734,9.4807,9.2703,9.243,9.2625,9.3054,9.3521,9.3638,9.3989,10.4829,10.2082,9.5893,9.3031,9.2915,9.688,10.048,10.3475,10.2592,10.0852,9.8253,9.334,8.8312,8.3244,7.8409,0.0,0.0,8.572,8.9395,9.3572,9.7557,9.9916,10.0845,10.1618,10.1541,10.069,9.9684,9.8794,9.7827,9.539,9.2992,9.0362,7.7365,7.2142,7.5005,7.9724,8.541,9.2064,10.0226,10.4868,10.5796,10.6492,10.6105,10.4442,10.363,10.1618,9.8292,9.4259,9.0637,8.7367,8.0119,7.3316,6.7425,0.0,0.0,0.0,0.0,0.0,0.0,0.0,0.0,0.0,0.0,0.0,0.0,0.0,0.0,0.0,5.5848,0.0,6.5594,6.7411,0.0,0.0,0.0,6.1687,6.5883,7.0897,7.5311,7.8614,0.0,0.0,0.0,0.0,9.0296,8.9711,9.1663,9.3732,9.5371,9.6894,9.8026,9.8065,9.804,9.7719,9.7007,9.6107,9.6252,9.829,9.9016,9.925,9.9834,9.999,10.0068,9.999,9.9405,9.886,9.8821,9.7886,9.734,9.6288,9.6756,9.734,9.7184,9.7145,9.7145,10.9819,10.862,10.7653,10.4249,9.9723,10.1928,10.4481,10.6918,10.5448,10.4094,10.2624,9.8872,9.4346,8.9433,8.6919,8.7035,8.9395,9.1445,9.3998,9.6976,9.922,10.1115,10.2585,10.2817,10.2431,10.1502,9.9413,9.7943,9.7054,9.512,9.3882,9.3108,8.9201,8.6029,8.3786,8.6107,9.0091,9.5545,10.1386,10.5177,10.6608,10.626,10.5487,10.4442,10.363,10.1889,9.9104,9.6841,9.4691,9.2471,8.5878,7.9466,7.3509,6.4828,0.0,0.0,0.0,0.0,0.0,0.0,0.0,0.0,0.0,4.4879,4.9564,0.0,5.3532,0.0,6.1383,6.6654,7.0034,7.2444,0.0,0.0,7.0703,7.1018,7.4017,7.8358,8.1943,8.4023,8.729,9.0218,9.2326,9.3927,9.5567,9.7245,9.8026,9.8807,9.9861,10.029,10.0829,10.1358,10.1427,10.1495,10.1083,10.1048,10.0749,10.0774,10.0784,10.0652,10.0185,10.0107,10.0107,10.0107,9.9951,9.9561,9.8938,9.8587,9.8159,9.7418,9.7379,9.7496,9.7496,9.7496,9.7496,11.183,11.1444,11.1908,10.9896,10.6531,10.7421,10.8658,10.9896,10.8968,10.7846,10.6492,10.3475,10.038,9.7325,9.6358,9.6241,9.6899,9.7789,9.8794,9.9839,10.1154,10.2276,10.3204,10.3552,10.2701,10.069,9.8137,9.6474,9.5584,9.4307,9.4269,9.5352,9.5661,9.481,9.2876,9.2296,9.3766,9.7363,10.2005,10.5248,10.6944,10.6176,10.51,10.3963,10.2694,10.0837,9.8312,9.6289,9.4601,9.3181,8.7165,8.1349,7.6167,6.7875,5.9293,0.0,0.0,0.0,0.0,0.0,0.0,0.0,0.0,0.0,0.0,0.0,6.0851,0.0,0.0,0.0,7.5488,7.8525,8.0378,8.067,8.0349,8.0946,8.3159,8.582,8.8195,8.993,9.2138,9.4356,9.6425,9.7518,9.8924,10.111,10.1422,10.1578,10.1969,10.2086,10.2273,10.2714,10.2782,10.2722,10.2673,10.2646,10.2514,10.2085,10.1954,10.1744,10.1315,10.1237,10.1198,10.1198,10.0925,10.0419,9.9561,9.9016,9.8509,9.7769,9.7496,9.7496,9.7496,9.7496,9.7496,11.2179,11.2101,11.2101,11.2101,11.2101,11.2101,11.2101,11.2101,11.2101,11.1134,10.9355,10.684,10.5138,10.4249,10.4017,10.3359,10.2392,10.2276,10.185,10.1309,10.2237,10.2856,10.3243,10.4133,10.2856,9.9607,9.6938,9.5197,9.4346,9.3572,9.4462,9.6938,9.8756,9.9994,10.0613,9.7789,9.717,9.8911,10.2547,10.5279,10.7045,10.6092,10.4776,10.3172,10.1293,9.9086,9.6511,9.4187,9.2561,9.1556,8.6239,8.1252,7.6998,6.995,6.295,0.0,5.3871,0.0,0.0,0.0,0.0,0.0,0.0,0.0,0.0,6.6444,6.8304,7.1431,7.3267,7.6271,8.1191,8.4624,8.724,8.8802,8.9115,8.9822,9.1322,9.2344,9.351,9.5099,9.6127,9.7675,9.9744,10.0368,10.1071,10.2398,10.2672,10.2633,10.2789,10.275,10.2742,10.2792,10.2722,10.2673,10.2616,10.2601,10.2601,10.2601,10.2523,10.2601,10.2523,10.2523,10.2562,10.2484,10.1977,10.1237,10.0302,9.9483,9.8665,9.7691,9.7496,9.7496,9.7496,9.7496,9.7496,11.2681,11.2101,11.2101,11.2101,11.2101,11.2101,11.2101,11.2101,11.2101,11.1134,10.9316,10.6802,10.4868,10.3359,10.1966,10.0071,9.7982,9.7286,9.7247,9.7827,9.9336,10.1154,10.3243,10.4752,10.4055,10.1309,9.8098,9.6087,9.5236,9.4385,9.5274,9.7866,10.0226,10.1464,0.0,0.0,0.0,0.0,10.4041,10.5341,10.6967,10.5642,10.4044,10.2281,9.9975,0.0,9.4032,9.278,9.1471,8.9887,8.6203,0.0,0.0,0.0,0.0,0.0,0.0,0.0,0.0,0.0,0.0,0.0,7.3497,7.4379,7.3687,7.4392,7.5741,7.7773,7.9529,8.2067,8.5781,8.8632,9.0701,9.1718,9.2383,9.2929,9.3356,9.4679,9.5802,9.6127,9.7518,9.8924,10.0095,10.0837,10.1657,10.2593,10.2789,10.2789,10.2789,10.2789,10.2772,10.2722,10.2673,10.2616,10.2601,10.2601,10.2601,10.2601,10.2601,10.2601,10.2601,10.2601,10.2601,10.2601,10.2484,10.186,10.0419,9.9951,9.9328,9.7808,9.7496,9.7496,9.7496,9.7496,9.7496,11.3726,0.0,11.2875,11.272,0.0,0.0,11.2101,11.2101,11.2101,11.1134,10.9393,10.773,10.5603,10.3088,10.0922,9.833,9.5429,9.3766,9.3688,9.5042,9.7518,10.0071,10.2624,10.5138,10.479,10.1812,9.8408,9.6358,9.5468,9.4617,9.5545,9.8137,10.0651,10.1889,10.1889,10.192,10.2763,10.4428,10.4458,10.5371,10.7047,10.5535,10.3868,10.2123,0.0,0.0,0.0,0.0,0.0,0.0,0.0,0.0,0.0,0.0,0.0,6.8652,6.8423,6.828,6.8006,7.1835,7.5677,7.9053,8.329,8.4209,8.0485,8.1003,8.2225,8.4021,8.5664,8.7734,9.0273,9.2147,9.3473,9.4364,9.4829,9.5216,9.5714,9.649,9.7031,9.7135,9.8182,9.9314,10.0212,10.0993,10.1813,10.2633,10.2789,10.2781,10.2772,10.2772,10.2753,10.2698,10.2646,10.2601,10.2601,10.2601,10.2601,10.2601,10.2601,10.2601,10.2601,10.2601,10.2601,10.2601,10.2601,10.2055,10.0536,10.0107,9.9561,9.8003,9.7496,9.7496,9.7496,9.7496,9.7496,11.4732,11.4538,11.3803,11.3455,11.3223,11.2604,11.2217,11.2101,0.0,0.0,0.0,10.8658,10.6299,10.2856,10.0419,9.7363,9.3882,9.1484,9.1329,9.3147,9.6512,9.9452,10.2005,10.537,10.537,10.2276,9.9181,9.7247,9.6396,9.5506,9.6241,9.8562,10.0806,10.1889,10.192,10.1942,10.2775,10.4277,10.447,10.5419,10.7197,10.5591,10.3923,10.2229,9.8841,9.6164,9.435,9.2138,9.0824,9.0517,8.8031,8.5816,8.4068,8.1424,7.9269,7.7912,7.7948,7.8106,7.832,8.1194,8.3913,8.6144,9.0224,9.0768,8.6346,8.6733,8.781,8.9453,9.0936,9.2455,9.409,9.4955,9.5781,9.6557,9.6646,9.6894,9.7558,9.787,9.7948,9.8026,9.8885,9.9705,10.0485,10.1266,10.1969,10.2593,10.2789,10.2781,10.2792,10.2782,10.2761,10.2712,10.267,10.2601,10.2601,10.2601,10.2601,10.2601,10.2601,10.2601,10.2601,10.2601,10.2601,10.2601,10.2601,10.1977,10.073,10.038,9.9795,9.8236,9.7808,9.773,9.7691,9.7574,9.7496,11.5312,11.4577,11.4461,11.3997,11.3262,11.3184,11.272,11.2062,11.1328,11.0438,10.9471,10.8658,10.5989,10.2005,10.0148,9.7054,9.3147,9.1251,9.1329,0.0,9.6551,9.9452,10.2005,10.537,10.5989,10.4017,10.2082,10.0729,9.9878,9.8988,9.9181,10.0264,10.1348,10.1912,10.1971,10.1971,10.2533,10.3639,10.4376,10.5579,10.7236,10.5696,10.4026,10.2151,9.8939,9.5988,9.3574,9.2494,9.1216,8.9779,8.9934,8.9313,8.7681,8.7059,8.6749,8.6554,8.7137,8.7875,8.8593,9.0517,9.211,9.3159,9.3935,9.3474,9.1568,9.1486,9.2033,9.2993,9.3835,9.4861,9.5859,9.6685,9.7193,9.7452,9.7527,9.7597,9.776,9.8385,9.8821,9.8853,10.0251,10.1196,10.1352,10.2047,10.2554,10.275,10.2789,10.2772,10.2733,10.2725,10.2712,10.2698,10.2631,10.2601,10.2601,10.2601,10.2601,10.2601,10.2601,10.2601,10.2601,10.2601,10.2601,10.2601,10.2523,10.2094,10.1237,10.1198,10.0536,9.9483,9.8821,9.847,9.8392,9.7964,9.7535,11.6356,11.5969,11.5505,11.477,11.3958,11.303,11.2449,11.2062,11.1714,11.1018,11.0206,10.9819,10.7266,10.3204,10.0961,9.7943,9.4269,9.2102,9.2296,9.4501,9.7402,10.011,10.2701,10.5603,10.657,10.5757,10.4558,10.3746,10.3282,10.2044,10.1618,10.1966,10.2028,10.1942,10.2,10.2085,10.2565,10.351,10.4364,10.5399,10.6628,10.5527,10.4308,10.2978,10.0128,9.7837,9.6182,9.5312,9.4285,9.3003,9.2925,9.2343,9.1138,9.0633,9.0556,9.1022,9.141,9.1993,9.2848,9.4052,9.4946,9.5334,9.6228,9.6504,9.5826,9.4496,9.4139,9.5013,9.5398,9.594,9.6815,9.7252,9.7455,9.755,9.7957,9.8241,9.8358,9.8983,9.9531,9.9686,10.0697,10.1508,10.1533,10.2296,10.2789,10.2789,10.2781,10.2802,10.2772,10.2725,10.2685,10.267,10.2616,10.2601,10.2601,10.2601,10.2601,10.2601,10.2601,10.2601,10.2601,10.2601,10.2406,10.2055,10.1938,10.1393,10.0341,9.999,9.96,9.8899,9.8431,9.812,9.8003,9.773,9.7535,11.7207,11.713,11.6472,11.5583,11.4499,11.303,11.2295,11.2101,11.2101,11.1753,11.1134,11.0902,10.8542,10.4674,10.2392,9.9684,9.6628,9.4423,9.4578,9.6744,9.9065,10.1386,10.3552,10.5912,10.6995,10.6918,10.6299,10.5912,10.5564,10.4365,10.363,10.3468,10.2871,10.2582,10.2627,10.2747,10.3044,10.3535,10.4389,10.5269,10.6134,10.5357,10.4658,10.4075,10.1899,10.0268,9.9374,9.852,9.7587,9.6577,9.6072,9.5373,9.4324,9.3819,9.3741,9.4207,9.4246,9.4557,9.5217,9.5839,9.6305,9.6499,9.7704,9.8581,9.8663,9.709,9.6117,9.6616,9.6483,9.6637,9.7282,9.7377,9.7387,9.7656,9.8279,9.877,9.9005,9.9746,10.0314,10.0446,10.1152,10.1757,10.1871,10.2392,10.2789,10.2789,10.2772,10.2802,10.2782,10.2737,10.2698,10.2616,10.2601,10.2601,10.2601,10.2601,10.2601,10.2601,10.2601,10.2601,10.2601,10.2484,10.2133,10.1549,10.1237,10.0691,9.9444,9.9172,9.9016,9.8548,9.8236,9.7847,9.7613,9.7535,9.7496,11.7207,11.7207,11.7091,11.6124,11.4538,11.361,11.2797,11.214,11.2101,11.2062,11.1869,11.1134,10.8929,10.5757,10.4558,10.2701,10.0264,9.9065,9.922,10.0342,10.2005,10.3359,10.4481,10.6183,10.6995,10.6995,10.6879,10.6454,10.5796,10.5525,10.5061,10.4466,10.4304,10.4295,10.4492,10.4506,10.4234,10.3648,10.4463,10.5318,10.6095,10.5357,10.524,10.594,10.4191,10.2871,10.1861,10.1122,9.9918,9.852,9.8908,9.8558,9.7121,9.7471,9.7548,9.6888,9.6849,9.6888,9.6966,9.7043,9.7432,9.817,9.8403,9.8908,9.9569,9.9436,9.9034,9.8452,9.7654,9.7362,9.7382,9.7421,9.7751,9.8472,9.8763,9.9069,9.979,10.0624,10.1211,10.1291,10.1981,10.2615,10.2608,10.2767,10.2842,10.2803,10.2789,10.2772,10.2733,10.271,10.2673,10.2616,10.2601,10.2601,10.2601,10.2601,10.2601,10.2601,10.2562,10.2484,10.2367,10.1938,10.1393,10.0964,10.0652,10.0068,9.9873,9.9951,9.9756,9.9133,9.8704,9.8353,9.7769,9.7496,9.7496,11.7207,11.7207,11.7207,11.6201,11.4538,11.3184,11.2449,11.2101,11.2101,11.2101,11.2062,11.1714,11.0515,10.8697,10.8349,10.7305,10.5873,10.5487,10.5525,10.5912,10.6608,10.684,10.6802,10.7382,10.7498,10.7034,10.6995,10.6802,10.6415,10.6015,10.5318,10.459,10.4625,10.4725,10.4789,10.4828,10.4439,10.3648,10.3958,10.4541,10.5279,10.5085,10.5318,10.5901,10.4502,10.3453,10.3026,10.2249,10.12,10.0112,10.0345,9.9996,9.8792,9.9063,9.9102,9.8753,9.8753,9.8753,9.8753,9.8714,9.8869,9.9258,9.9724,10.0151,10.0462,10.0501,10.0368,10.0002,9.928,9.8775,9.878,9.8775,9.8969,9.9341,9.9785,10.0229,10.054,10.1394,10.1945,10.2051,10.2328,10.2644,10.2663,10.2725,10.2772,10.2764,10.2749,10.2789,10.2743,10.2749,10.2712,10.2685,10.2616,10.2601,10.2601,10.2601,10.2601,10.2523,10.2172,10.1899,10.1821,10.1198,10.0497,10.0029,9.96,9.9133,9.8548,9.8587,9.8548,9.8548,9.847,9.7886,9.7574,9.7496,9.7496,11.7207,11.7169,11.6936,11.5853,11.4151,11.2952,11.2295,11.2101,11.2101,11.2101,11.2101,11.2101,11.1792,11.1173,11.0941,11.0322,10.9587,10.9509,10.9509,10.9509,10.9509,10.9084,10.8349,10.831,10.7846,10.7111,10.6995,10.6995,10.695,10.6472,10.5814,10.5349,10.5408,10.5476,10.5527,10.559,10.5163,10.4425,10.4308,10.4619,10.5202,10.524,10.5668,10.6328,10.5085,10.4191,10.3958,10.3104,10.2249,10.1394,10.1356,10.0967,10.019,10.0112,10.0035,9.984,9.9802,9.9802,9.9802,9.9802,9.9918,10.0151,10.0695,10.1122,10.1317,10.1356,10.1356,10.1278,10.0851,10.0384,9.984,9.9802,9.9879,10.0135,10.074,10.1112,10.1384,10.2028,10.2381,10.2516,10.2569,10.2601,10.2673,10.2733,10.275,10.2734,10.2788,10.2789,10.2782,10.2737,10.2698,10.2685,10.2655,10.2601,10.2601,10.2601,10.2601,10.2445,10.2016,10.151,10.1276,10.0536,9.9717,9.9328,9.8782,9.8392,9.8042,9.7691,9.7574,9.7535,9.7535,9.7535,9.7496,9.7496,9.7496,11.7207,11.7053,11.6318,11.4964,11.3339,11.3223,11.2797,11.2101,11.2101,11.2101,11.2101,11.2101,11.2062,11.1946,11.1211,11.036,10.9626,10.9626,10.9664,10.9664,10.9626,10.9123,10.8349,10.831,10.7846,10.7072,10.6995,10.7028,10.7122,10.7045,10.7075,10.7125,10.7054,10.7146,10.7144,10.7105,10.6872,10.5978,10.5901,10.6056,10.6095,10.6095,10.6484,10.7105,10.6484,10.559,10.4852,10.3997,10.3143,10.2288,10.2249,10.1861,10.1084,10.0967,10.0617,9.9996,9.9879,9.984,9.9918,9.9957,10.0229,10.0812,10.1045,10.1356,10.2055,10.2133,10.2133,10.221,10.2055,10.1433,10.0268,10.0112,10.0291,10.0939,10.1137,10.1603,10.2322,10.2413,10.2601,10.267,10.2679,10.2718,10.285,10.2907,10.2815,10.2771,10.2796,10.2761,10.271,10.2686,10.2685,10.2655,10.2601,10.2601,10.2601,10.2406,10.2445,10.2211,10.1627,10.1198,10.0769,10.0224,9.9367,9.8626,9.8159,9.7769,9.7574,9.7496,9.7535,9.7496,9.7496,9.7496,9.7496,9.7496,9.7496,11.6859,11.6318,11.5428,11.4383,11.33,11.2759,11.2372,11.2101,11.2101,11.2101,11.2101,11.2101,11.2101,11.2101,11.1792,11.1482,11.1211,11.1173,11.1173,11.1173,11.1173,11.0438,10.9161,10.9045,10.831,10.715,10.6995,10.706,10.7084,10.7174,10.727,10.7309,10.7352,10.7391,10.7377,10.7377,10.7027,10.6289,10.6212,10.6212,10.625,10.6212,10.66,10.7299,10.6639,10.6056,10.5745,10.4891,10.4036,10.3181,10.3143,10.2715,10.1938,10.1822,10.1705,10.1433,10.1394,10.1394,10.1394,10.1433,10.1511,10.1783,10.1822,10.1899,10.221,10.2288,10.2288,10.2288,10.2288,10.1938,10.1627,10.1394,10.1557,10.1914,10.201,10.2117,10.2451,10.2581,10.2626,10.2626,10.2644,10.2683,10.2733,10.2772,10.275,10.2734,10.2738,10.2714,10.271,10.2659,10.2616,10.2601,10.2601,10.2601,10.2601,10.2094,10.1744,10.1354,10.0847,10.0029,9.9444,9.8938,9.812,9.812,9.7613,9.7574,9.7496,9.7496,9.7496,9.7496,9.7496,9.7496,9.7496,9.7496,9.7496,11.6704,11.5892,11.5273,11.4499,11.3687,11.3146,11.2759,11.2527,11.2527,11.2372,11.214,11.2101,11.2101,11.2101,11.2101,11.2101,11.2101,11.2101,11.2101,11.2101,11.2101,11.1173,10.9742,10.9509,10.862,10.7189,10.7028,10.7053,10.7174,10.7259,10.7286,10.7325,10.7366,10.7377,10.7377,10.7377,10.7105,10.6678,10.66,10.66,10.66,10.66,10.6833,10.7261,10.6872,10.6445,10.6212,10.5357,10.4502,10.3764,10.3609,10.322,10.2404,10.2288,10.2288,10.2288,10.2288,10.2288,10.2288,10.2288,10.2288,10.2288,10.2288,10.2288,10.2288,10.2288,10.2288,10.2288,10.2288,10.2288,10.2288,10.2288,10.2334,10.2479,10.2552,10.2553,10.2659,10.2672,10.2699,10.2705,10.2705,10.2705,10.271,10.2769,10.2773,10.2732,10.2693,10.2704,10.2698,10.2646,10.2601,10.2601,10.2601,10.2601,10.2367,10.1744,10.1471,10.1081,10.0068,9.9133,9.8548,9.7925,9.7535,9.7535,9.7496,9.7496,9.7496,9.7496,9.7496,9.7496,9.7496,9.7496,9.7496,9.7496,9.7496,11.6588,11.5776,11.5853,11.5118,11.4267,11.4151,11.3919,11.3184,11.3184,11.272,11.214,11.2101,11.2101,11.2101,11.2101,11.2101,11.2101,11.2101,11.2101,11.2101,11.2101,11.1211,10.9664,10.9626,10.8775,10.7182,10.7091,10.7174,10.7286,10.7313,10.734,10.7391,10.7416,10.7377,10.7377,10.7377,10.7377,10.7299,10.7261,10.7338,10.7377,10.7299,10.7299,10.7377,10.7338,10.6989,10.6289,10.5473,10.4735,10.392,10.3764,10.3259,10.256,10.2327,10.2288,10.2288,10.2288,10.2288,10.2288,10.2366,10.2443,10.2327,10.2327,10.2404,10.2327,10.2288,10.2288,10.2288,10.2288,10.2288,10.2288,10.2288,10.2373,10.2479,10.2552,10.2616,10.2671,10.2822,10.289,10.285,10.2847,10.2851,10.2851,10.2847,10.2836,10.2788,10.2742,10.2698,10.2673,10.2631,10.2601,10.2601,10.2601,10.2601,10.2016,10.1393,10.1237,10.0925,9.96,9.8509,9.8353,9.7886,9.7613,9.7535,9.7496,9.7496,9.7496,9.7496,9.7496,9.7496,9.7496,9.7496,9.7496,9.7496,9.7496,11.4925,11.419,11.4113,11.3648,11.2914,11.2875,11.2681,11.2488,11.2488,11.2333,11.214,11.2101,11.2101,11.2101,11.2101,11.2101,11.2101,11.2101,11.2101,11.2101,11.2101,11.1482,11.0554,11.036,10.9543,10.8098,10.7445,10.7259,10.7313,10.7327,10.7391,10.7377,10.7377,10.7377,10.7377,10.7377,10.7377,10.7377,10.7377,10.7377,10.7377,10.7377,10.7377,10.7377,10.7377,10.7261,10.7027,10.6755,10.625,10.5396,10.5396,10.4735,10.3415,10.2599,10.2327,10.2288,10.2288,10.2288,10.2366,10.2832,10.2909,10.2599,10.2832,10.2832,10.2404,10.2288,10.2288,10.2288,10.2288,10.2288,10.2288,10.2288,10.2373,10.2479,10.2552,10.2577,10.2634,10.2703,10.2699,10.2705,10.2666,10.2666,10.271,10.273,10.2772,10.2761,10.2725,10.2704,10.2673,10.2631,10.2601,10.2601,10.2601,10.2601,10.2211,10.1666,10.1237,10.0769,9.9576,9.8772,9.846,9.8095,9.7823,9.7535,9.7535,9.7496,9.7496,9.7496,9.7496,9.7496,9.7496,9.7496,9.7496,9.7496,9.7496,11.4306,11.3842,11.3803,11.3494,11.303,11.303,11.2836,11.2565,11.2565,11.2411,11.214,11.2101,11.2101,11.2101,11.2101,11.2101,11.2101,11.2101,11.2101,11.2101,11.2101,11.1637,11.0825,11.0471,10.9724,10.8646,10.7996,10.765,10.7366,10.7352,10.7377,10.7377,10.7377,10.7377,10.7377,10.7377,10.7377,10.7377,10.7377,10.7377,10.7377,10.7377,10.7377,10.7377,10.7377,10.7377,10.7377,10.7377,10.7027,10.625,10.5629,10.4658,10.3648,10.2793,10.2288,10.2288,10.2327,10.2443,10.2754,10.3298,10.357,10.3337,10.3492,10.3376,10.2832,10.256,10.2288,10.2288,10.2288,10.2288,10.2288,10.2288,10.2311,10.2417,10.2479,10.2516,10.2585,10.2592,10.262,10.262,10.2634,10.2659,10.2632,10.2686,10.2725,10.2693,10.271,10.2742,10.271,10.2685,10.2631,10.2616,10.2601,10.2601,10.2523,10.1977,10.1315,10.059,9.9693,9.9306,9.9059,9.8605,9.8201,9.7706,9.7535,9.7496,9.7496,9.7496,9.7496,9.7496,9.7496,9.7496,9.7496,9.7496,9.7496,11.4422,11.4461,11.4422,11.4267,11.419,11.4151,11.3687,11.3223,11.3184,11.2759,11.2217,11.2101,11.2101,11.2101,11.2101,11.2101,11.2101,11.2101,11.2101,11.2101,11.2062,11.171,11.1052,11.0375,10.9693,10.9071,10.8788,10.8336,10.7857,10.7688,10.7455,10.7571,10.7494,10.7377,10.7377,10.7377,10.7377,10.7377,10.7377,10.7377,10.7377,10.7377,10.7377,10.7377,10.7377,10.7377,10.7377,10.7377,10.7066,10.6212,10.4968,10.4191,10.3725,10.2948,10.2638,10.2676,10.2521,10.2987,10.3492,10.3958,10.4153,10.4541,10.423,10.3686,10.3648,10.3143,10.2715,10.256,10.2521,10.2404,10.2366,10.2288,10.2288,10.2327,10.2389,10.2489,10.256,10.2567,10.2572,10.255,10.2632,10.2655,10.2672,10.2722,10.2749,10.2734,10.2761,10.2732,10.2714,10.2683,10.2673,10.2698,10.2646,10.2601,10.2562,10.1938,10.1315,10.0901,10.0034,9.9578,9.9377,9.8938,9.8371,9.7876,9.7691,9.7613,9.7496,9.7535,9.7496,9.7496,9.7496,9.7496,9.7496,9.7496,9.7496,11.2759,11.2759,11.2759,11.2759,11.2759,11.2759,11.2681,11.2449,11.2488,11.2411,11.2101,11.2101,11.2101,11.2101,11.2101,11.2101,11.2101,11.2101,11.2101,11.2101,11.213,11.2086,11.1731,11.1157,11.0673,11.0379,10.9851,10.9527,10.9281,10.8659,10.8348,10.8309,10.7727,10.7416,10.7377,10.7377,10.7377,10.7377,10.7416,10.7455,10.7494,10.7455,10.7377,10.7377,10.7416,10.7416,10.7377,10.7377,10.7338,10.7066,10.6095,10.5551,10.5318,10.458,10.4075,10.4075,10.4153,10.423,10.458,10.5124,10.5279,10.4968,10.5202,10.524,10.458,10.4347,10.3881,10.3492,10.3259,10.3026,10.2521,10.2366,10.2366,10.2288,10.2482,10.2443,10.2366,10.2366,10.2366,10.2366,10.2473,10.2498,10.2576,10.2631,10.2733,10.2714,10.2733,10.2769,10.2744,10.2703,10.2724,10.271,10.2686,10.2631,10.2445,10.1821,10.1393,10.1213,10.0489,9.97,9.9415,9.908,9.843,9.7812,9.8056,9.8081,9.773,9.7535,9.7535,9.7808,9.7652,9.773,9.7574,9.7496,9.7496,11.2101,11.2101,11.2101,11.2101,11.214,11.2449,11.2411,11.2217,11.2488,11.2411,11.2179,11.2101,11.2101,11.2101,11.2101,11.2101,11.2101,11.2101,11.2101,11.2169,11.2259,11.2251,11.2165,11.1826,11.1544,11.121,11.077,11.0368,10.998,10.9475,10.9086,10.8659,10.8193,10.7766,10.7377,10.7416,10.761,10.7882,10.796,10.8076,10.8465,10.8115,10.796,10.7843,10.7649,10.7377,10.7377,10.7377,10.7377,10.7222,10.6639,10.6212,10.6134,10.5396,10.4891,10.4891,10.4891,10.5007,10.5473,10.594,10.6095,10.5978,10.625,10.594,10.5473,10.5163,10.458,10.423,10.4153,10.3881,10.357,10.3415,10.3376,10.3415,10.3065,10.2715,10.2366,10.2327,10.2288,10.2311,10.2395,10.2479,10.2479,10.2616,10.2683,10.2725,10.2797,10.2772,10.273,10.2718,10.2582,10.2429,10.2431,10.2359,10.2322,10.1841,10.1033,10.0838,10.0436,9.968,9.9563,9.9307,9.9133,9.8734,9.8616,9.8509,9.8275,9.8197,9.847,9.8548,9.8197,9.7847,9.7691,9.7496,9.7496,11.2101,11.2101,11.2101,11.2101,11.2217,11.2836,11.2681,11.2333,11.2759,11.2681,11.2217,11.2101,11.2101,11.2101,11.2101,11.2101,11.2101,11.2101,11.2163,11.2228,11.2311,11.2369,11.2398,11.232,11.2025,11.1586,11.1456,11.1068,11.064,11.0291,10.9747,10.9319,10.9009,10.8465,10.8115,10.7843,10.8154,10.8698,10.8814,10.9125,10.9475,10.9125,10.8776,10.8426,10.7727,10.7416,10.7377,10.7377,10.7377,10.7377,10.6678,10.6445,10.6289,10.5551,10.5318,10.5318,10.5435,10.5707,10.6173,10.6406,10.6639,10.6989,10.6639,10.6328,10.6212,10.5784,10.5357,10.5046,10.5046,10.4891,10.4697,10.4774,10.4697,10.4463,10.3997,10.3259,10.2638,10.2366,10.2288,10.2288,10.2438,10.2518,10.2552,10.2607,10.2743,10.2757,10.2783,10.2797,10.265,10.2499,10.2185,10.182,10.1879,10.2008,10.1934,10.1852,10.0957,10.032,9.9991,9.9548,9.9703,9.9668,9.997,9.9746,9.863,9.8641,9.9211,9.9289,9.9289,9.9016,9.8509,9.812,9.7769,9.7574,9.7496,11.2101,11.2101,11.2101,11.2101,11.214,11.2256,11.2256,11.214,11.2295,11.2372,11.214,11.2101,11.2101,11.2101,11.2101,11.2101,11.2101,11.213,11.2259,11.2341,11.2369,11.2464,11.2557,11.2557,11.244,11.2272,11.2272,11.2155,11.1883,11.1262,11.0912,11.064,10.998,10.963,10.9397,10.9242,10.9514,10.9708,10.9708,10.9824,11.0058,10.9902,10.9397,10.8814,10.796,10.7532,10.7416,10.7377,10.7377,10.7338,10.7299,10.7261,10.7027,10.6872,10.6717,10.6678,10.6755,10.6872,10.7066,10.7066,10.7183,10.7299,10.7222,10.7144,10.7144,10.6911,10.6484,10.6134,10.594,10.5668,10.5202,10.493,10.5046,10.4968,10.4347,10.3648,10.3259,10.2715,10.2327,10.235,10.2438,10.2537,10.2569,10.2659,10.2733,10.2789,10.2803,10.2803,10.2582,10.2358,10.1869,10.1445,10.1637,10.1781,10.1365,10.1289,10.0721,9.9891,9.9473,9.9085,9.9257,9.9399,9.9385,9.8899,9.8045,9.8524,9.9576,9.9483,9.9367,9.9055,9.8743,9.8353,9.7964,9.773,9.7496,11.2101,11.2101,11.2101,11.2101,11.2179,11.2488,11.2449,11.2256,11.2527,11.2449,11.214,11.2101,11.2101,11.2101,11.2101,11.2101,11.2202,11.2259,11.2311,11.2398,11.2464,11.2518,11.2583,11.2622,11.2622,11.2622,11.2583,11.2622,11.2466,11.2155,11.165,11.1301,11.0835,11.033,11.0058,11.0058,11.0213,11.0563,11.064,11.0757,11.1145,11.0796,11.0213,10.9475,10.8853,10.862,10.8659,10.8659,10.8659,10.862,10.8581,10.8193,10.7532,10.7416,10.7416,10.7377,10.7377,10.7377,10.7377,10.7377,10.7377,10.7377,10.7377,10.7377,10.7377,10.7377,10.7222,10.6872,10.6717,10.6522,10.6134,10.6095,10.6056,10.5901,10.5318,10.4697,10.4114,10.3104,10.2288,10.2311,10.2438,10.2537,10.2585,10.2673,10.2733,10.2781,10.2789,10.2796,10.2796,10.2459,10.1689,10.1358,10.1597,10.1484,10.0931,10.059,10.0314,9.9605,9.8981,9.854,9.8313,9.8431,9.8533,9.8324,9.8332,9.8942,9.9761,9.9576,9.9367,9.9094,9.8782,9.847,9.8081,9.7691,9.7496,11.2101,11.2101,11.2101,11.2101,11.2217,11.2759,11.2681,11.2256,11.2797,11.2604,11.2217,11.2101,11.2101,11.2101,11.2101,11.2169,11.2259,11.2311,11.2398,11.2464,11.2557,11.2583,11.2622,11.2622,11.2622,11.2622,11.2622,11.2622,11.2622,11.2583,11.2155,11.1612,11.1534,11.1223,11.0601,11.0446,11.0873,11.1417,11.1495,11.1728,11.2233,11.1767,11.1106,11.033,10.9863,10.9747,10.9708,10.9747,10.9863,10.998,10.998,10.9203,10.8271,10.761,10.7571,10.761,10.7532,10.7377,10.7377,10.7377,10.7377,10.7377,10.7377,10.7377,10.7377,10.7377,10.7338,10.7338,10.7261,10.7261,10.7377,10.7183,10.7222,10.7144,10.66,10.5862,10.4891,10.3453,10.2715,10.2311,10.2438,10.2537,10.2585,10.2673,10.2733,10.2772,10.2781,10.2789,10.2789,10.2476,10.1717,10.1137,10.1265,10.1152,10.0621,10.0766,10.0399,9.9475,9.8758,9.8265,9.7812,9.7884,9.8197,9.887,9.9188,9.9449,9.9579,9.963,9.9381,9.9094,9.886,9.8587,9.812,9.7613,9.7496,11.2101,11.2101,11.2101,11.2101,11.2101,11.2295,11.2256,11.214,11.2295,11.2256,11.214,11.2101,11.2101,11.2101,11.213,11.2259,11.2311,11.2398,11.2464,11.2557,11.2583,11.2622,11.2622,11.2622,11.2622,11.2622,11.2622,11.2622,11.2622,11.2583,11.2466,11.235,11.2311,11.2117,11.2039,11.2155,11.2,11.2155,11.2233,11.2388,11.2466,11.235,11.1922,11.1106,11.0601,11.0291,11.0135,11.0058,10.998,10.998,10.998,10.9863,10.9514,10.8931,10.8581,10.8232,10.7727,10.7377,10.7377,10.7377,10.7377,10.7377,10.7377,10.7377,10.7377,10.7377,10.7377,10.7377,10.7377,10.7377,10.7377,10.7377,10.7377,10.7222,10.6755,10.5901,10.4968,10.4036,10.3026,10.2443,10.2477,10.2537,10.2585,10.2673,10.2733,10.2772,10.2789,10.2789,10.2789,10.2359,10.1703,10.1196,10.0844,10.0649,10.0344,10.0742,10.0734,9.9566,9.8797,9.8251,9.7864,9.7678,9.7973,9.8486,9.8625,9.8539,9.8821,9.9267,9.9162,9.868,9.8665,9.8704,9.8081,9.7496,9.7496,11.2101,11.2101,11.2101,11.2101,11.2101,11.2101,11.2101,11.2101,11.2101,11.2101,11.2101,11.2101,11.2135,11.2169,11.2163,11.229,11.2369,11.2491,11.2557,11.2583,11.2622,11.2622,11.2622,11.2622,11.2622,11.2622,11.2622,11.2622,11.2622,11.2622,11.2622,11.2583,11.2622,11.2622,11.2622,11.2544,11.2622,11.2622,11.2622,11.2622,11.2622,11.2622,11.2311,11.1961,11.1612,11.1378,11.134,11.134,11.1378,11.1378,11.1378,11.134,11.1068,11.0485,10.9591,10.8814,10.7921,10.7416,10.7416,10.7377,10.7377,10.7377,10.7377,10.7377,10.7377,10.7377,10.7377,10.7377,10.7377,10.7377,10.7377,10.7416,10.7377,10.7338,10.7027,10.6212,10.524,10.458,10.3686,10.2739,10.2632,10.2654,10.2585,10.2673,10.2733,10.2763,10.2781,10.2789,10.2789,10.2437,10.193,10.1578,10.1266,10.1227,10.089,10.0819,10.074,9.9656,9.8782,9.8251,9.7837,9.7643,9.7604,9.7837,9.7784,9.7901,9.8148,9.8669,9.8449,9.8382,9.8524,9.8431,9.7886,9.7496,9.7496,11.2101,11.2101,11.2101,11.2101,11.2101,11.2101,11.2101,11.2101,11.2101,11.2135,11.2135,11.2135,11.2202,11.2196,11.2259,11.232,11.2464,11.2557,11.2583,11.2583,11.2622,11.2622,11.2622,11.2622,11.2622,11.2622,11.2622,11.2622,11.2622,11.2622,11.2622,11.2622,11.2622,11.2622,11.2622,11.2622,11.2622,11.2622,11.2622,11.2622,11.2622,11.2622,11.2622,11.2622,11.2622,11.2505,11.2388,11.235,11.2388,11.2427,11.2466,11.2544,11.2427,11.1767,11.064,10.9358,10.8271,10.7688,10.7416,10.7377,10.7377,10.7377,10.7377,10.7377,10.7377,10.7377,10.7377,10.7377,10.7377,10.7377,10.7416,10.7416,10.744,10.744,10.7324,10.6959,10.5832,10.5077,10.4533,10.3778,10.3179,10.2828,10.2796,10.2673,10.2733,10.2772,10.2789,10.2789,10.2789,10.2789,10.2398,10.2086,10.1891,10.2008,10.1645,10.0975,10.0584,9.9579,9.8797,9.8197,9.7847,9.755,9.7574,9.7589,9.7611,9.7745,9.7914,9.8001,9.8018,9.8098,9.8343,9.8197,9.7691,9.7496,9.7496,11.2101,11.2101,11.2101,11.2101,11.2101,11.2101,11.2101,11.2101,11.213,11.2163,11.2196,11.2259,11.229,11.232,11.2341,11.2464,11.2557,11.2583,11.2622,11.2622,11.2622,11.2622,11.2622,11.2622,11.2622,11.2622,11.2622,11.2622,11.2622,11.2622,11.2622,11.2622,11.2622,11.2622,11.2622,11.2622,11.2622,11.2622,11.2622,11.2622,11.2622,11.2622,11.2622,11.2622,11.2622,11.2622,11.2622,11.2622,11.2622,11.2622,11.2622,11.2622,11.2466,11.1806,11.134,11.0563,10.9553,10.8232,10.7688,10.7416,10.7377,10.7377,10.7377,10.7377,10.7377,10.7377,10.7377,10.7377,10.7377,10.7377,10.7377,10.7464,10.7487,10.7471,10.7416,10.6971,10.6175,10.5708,10.5202,10.4756,10.4113,10.3408,10.3045,10.2868,10.2733,10.2763,10.2828,10.2906,10.2828,10.2867,10.2789,10.2437,10.225,10.2367,10.2124,10.1523,10.0623,9.9605,9.8914,9.8236,9.7808,9.7535,9.755,9.7552,9.7593,9.7602,9.7706,9.7721,9.7667,9.7772,9.7939,9.7847,9.7574,9.7496,9.7496,11.2101,11.2101,11.2101,11.2101,11.2101,11.2101,11.2135,11.213,11.2196,11.2228,11.2259,11.229,11.235,11.2408,11.2464,11.2518,11.2583,11.2622,11.2622,11.2622,11.2622,11.2622,11.2622,11.2622,11.2622,11.2622,11.2622,11.2622,11.2622,11.2622,11.2622,11.2622,11.2622,11.2622,11.2622,11.2622,11.2622,11.2622,11.2622,11.2622,11.2622,11.2622,11.2622,11.2622,11.2622,11.2622,11.2622,11.2622,11.2622,11.2622,11.2622,11.2622,11.2544,11.2194,11.1845,11.1223,11.0679,10.9553,10.8387,10.7766,10.7494,10.7377,10.7377,10.7377,10.7377,10.7377,10.7377,10.7377,10.7377,10.7377,10.7377,10.7425,10.716,10.7127,10.7402,10.6799,10.639,10.6369,10.594,10.5529,10.5078,10.437,10.3932,10.4168,10.3914,10.3475,10.3687,10.3921,10.353,10.3062,10.2945,10.275,10.264,10.2647,10.2335,10.1874,10.0968,10.0021,9.9187,9.8509,9.7808,9.7496,9.7628,9.7603,9.7577,9.7565,9.7603,9.7591,9.7639,9.7604,9.7535,9.7535,9.7496,9.7496,9.7496,11.2101,11.2101,11.2101,11.2101,11.2101,11.2101,11.2135,11.2196,11.2189,11.2251,11.2311,11.2379,11.2408,11.2464,11.2557,11.2583,11.2622,11.2622,11.2622,11.2622,11.2622,11.2622,11.2622,11.2622,11.2622,11.2622,11.2622,11.2622,11.2622,11.2622,11.2622,11.2622,11.2622,11.2622,11.2622,11.2622,11.2622,11.2622,11.2622,11.2622,11.2622,11.2622,11.2622,11.2622,11.2622,11.2622,11.2622,11.2622,11.2622,11.2622,11.2622,11.2622,11.2583,11.2505,11.2272,11.1767,11.1301,11.064,10.9436,10.8581,10.7766,10.7455,10.7377,10.7377,10.7377,10.7377,10.7377,10.7377,10.7377,10.7377,10.7401,10.7449,10.7299,10.7246,10.7344,10.6659,10.6186,10.6475,10.6786,10.6685,10.6169,10.5455,10.5234,10.5636,10.5319,10.4459,10.4467,10.4858,10.4233,10.3413,10.2984,10.2789,10.2783,10.2753,10.2578,10.2058,10.1211,10.0475,9.963,9.8704,9.7964,9.7808,9.79,9.7837,9.7786,9.7669,9.7708,9.7655,9.76,9.7552,9.7535,9.7496,9.7496,9.7496,9.7496,11.2101,11.2101,11.2101,11.2101,11.2101,11.2101,11.2135,11.2196,11.229,11.2311,11.2436,11.2491,11.2557,11.2583,11.2583,11.2622,11.2622,11.2622,11.2622,11.2622,11.2622,11.2622,11.2622,11.2622,11.2622,11.2622,11.2622,11.2622,11.2622,11.2622,11.2622,11.2622,11.2622,11.2622,11.2622,11.2622,11.2622,11.2622,11.2622,11.2622,11.2622,11.2622,11.2622,11.2622,11.2622,11.2622,11.2622,11.2622,11.2622,11.2622,11.2622,11.2622,11.2622,11.2622,11.2427,11.2272,11.1806,11.1262,11.0524,10.9397,10.8309,10.7688,10.7377,10.7377,10.7377,10.7377,10.7377,10.7377,10.7377,10.7377,10.7401,10.7471,10.7399,10.7267,10.7207,10.7043,10.6763,10.7026,10.7313,10.7613,10.704,10.5893,10.5709,10.5914,10.5719,10.4858,10.478,10.5131,10.4389,10.3608,10.3062,10.2803,10.2797,10.2771,10.2767,10.2257,10.1718,10.1035,10.0239,9.9133,9.812,9.8159,9.8563,9.8357,9.8332,9.8072,9.7823,9.7717,9.7639,9.7539,9.7496,9.7496,9.7496,9.7496,9.7496,11.0825,11.1289,11.1289,11.1598,11.2101,11.2101,11.213,11.2259,11.232,11.2408,11.2518,11.2583,11.2622,11.2622,11.2622,11.2622,11.2622,11.2622,11.2622,11.2622,11.2622,11.2622,11.2622,11.2622,11.2622,11.2622,11.2622,11.2622,11.2622,11.2622,11.2622,11.2622,11.2622,11.2622,11.2622,11.2622,11.2622,11.2622,11.2622,11.2622,11.2622,11.2622,11.2622,11.2622,11.2622,11.2622,11.2622,11.2622,11.2622,11.2622,11.2622,11.2622,11.2622,11.2622,11.2622,11.2622,11.2194,11.1845,11.1262,11.0174,10.9125,10.8309,10.7766,10.7416,10.7416,10.7377,10.7377,10.7377,10.7377,10.7377,10.7401,10.7449,10.7399,10.7189,10.709,10.7176,10.7182,10.7327,10.7247,10.7298,10.6539,10.5504,10.566,10.5982,10.563,10.5248,10.5326,10.5209,10.4545,10.3687,10.3101,10.2803,10.2797,10.2773,10.2761,10.2515,10.223,10.1515,10.0769,9.9873,9.8938,9.9211,9.9498,9.9215,9.8851,9.863,9.8291,9.7884,9.7667,9.7564,9.7535,9.7496,9.7496,9.7496,9.7496,10.9858,11.0438,11.067,11.1289,11.2062,11.2101,11.2163,11.229,11.232,11.2408,11.2583,11.2622,11.2622,11.2622,11.2622,11.2622,11.2622,11.2622,11.2622,11.2622,11.2622,11.2622,11.2622,11.2622,11.2622,11.2622,11.2622,11.2622,11.2622,11.2622,11.2622,11.2622,11.2622,11.2622,11.2622,11.2622,11.2622,11.2622,11.2622,11.2622,11.2622,11.2622,11.2622,11.2622,11.2622,11.2622,11.2622,11.2622,11.2622,11.2622,11.2622,11.2622,11.2622,11.2622,11.2622,11.2622,11.2544,11.2272,11.1612,11.0601,10.963,10.8659,10.8232,10.7766,10.7494,10.7416,10.7377,10.7377,10.7377,10.7377,10.7416,10.7449,10.7394,10.7265,10.7422,10.7472,10.7221,10.7223,10.7036,10.687,10.6294,10.6099,10.5474,10.5786,10.6146,10.5756,10.556,10.5443,10.4975,10.4038,10.2984,10.2771,10.2797,10.2773,10.2722,10.2554,10.232,10.1696,10.1042,10.0691,10.0185,10.0419,10.0239,9.9761,9.9436,9.9176,9.8692,9.8139,9.7784,9.7564,9.755,9.7496,9.7496,9.7496,9.7496,10.9471,10.9626,11.0399,11.1211,11.1908,11.2101,11.2163,11.232,11.235,11.2408,11.2583,11.2622,11.2622,11.2622,11.2622,11.2622,11.2622,11.2622,11.2622,11.2622,11.2622,11.2622,11.2622,11.2622,11.2622,11.2622,11.2622,11.2622,11.2622,11.2622,11.2622,11.2622,11.2622,11.2622,11.2622,11.2622,11.2622,11.2622,11.2622,11.2622,11.2622,11.2622,11.2622,11.2622,11.2622,11.2622,11.2622,11.2622,11.2622,11.2622,11.2622,11.2622,11.2622,11.2622,11.2622,11.2622,11.2622,11.2583,11.2427,11.0951,10.998,10.9242,10.8931,10.8465,10.7766,10.7494,10.7571,10.7727,10.7494,10.7416,10.744,10.7464,10.7371,10.7416,10.7578,10.7477,10.7192,10.7028,10.6841,10.645,10.7044,10.7278,10.6107,10.5599,10.6341,10.6341,10.5951,10.5599,10.5209,10.4194,10.2945,10.281,10.2792,10.2773,10.2761,10.2718,10.2421,10.1788,10.1432,10.1237,10.1159,10.1159,10.0862,10.0384,10.0164,10.0021,9.9172,9.8275,9.7979,9.7706,9.755,9.7496,9.7496,9.7496,9.7496,10.8253,10.8795,10.9167,10.9748,11.0678,11.1671,11.2163,11.232,11.2436,11.253,11.2583,11.2622,11.2622,11.2622,11.2622,11.2622,11.2622,11.2622,11.2622,11.2622,11.2622,11.2622,11.2622,11.2622,11.2622,11.2622,11.2622,11.2622,11.2622,11.2622,11.2622,11.2622,11.2622,11.2622,11.2622,11.2622,11.2622,11.2622,11.2622,11.2622,11.2622,11.2622,11.2622,11.2622,11.2622,11.2622,11.2622,11.2622,11.2622,11.2622,11.2622,11.2622,11.2622,11.2622,11.2622,11.2622,11.2622,11.2622,11.2544,11.1883,11.1378,11.0563,10.9824,10.9436,10.9086,10.8542,10.8348,10.8037,10.7649,10.7494,10.7416,10.7401,10.7363,10.7425,10.7438,10.7189,10.6926,10.6845,10.6635,10.6051,10.6146,10.6497,10.5873,10.5599,10.6146,10.6419,10.6068,10.5599,10.5209,10.3999,10.2789,10.2803,10.2792,10.2773,10.2764,10.2725,10.2694,10.2241,10.2133,10.2172,10.2094,10.1899,10.1821,10.154,10.1203,10.0827,9.9956,9.9071,9.8254,9.7823,9.7808,9.7652,9.7496,9.7496,9.7496,10.7463,10.8005,10.8336,10.8792,10.9499,11.0763,11.1492,11.1953,11.2375,11.2622,11.2622,11.2622,11.2622,11.2622,11.2622,11.2622,11.2622,11.2622,11.2622,11.2622,11.2622,11.2622,11.2622,11.2622,11.2622,11.2622,11.2622,11.2622,11.2622,11.2622,11.2622,11.2622,11.2622,11.2622,11.2622,11.2622,11.2622,11.2622,11.2622,11.2622,11.2622,11.2622,11.2622,11.2622,11.2622,11.2622,11.2622,11.2622,11.2622,11.2622,11.2622,11.2622,11.2622,11.2622,11.2622,11.2622,11.2622,11.2622,11.2583,11.2544,11.2078,11.1728,11.0951,11.0368,10.9941,10.9086,10.8737,10.8387,10.7882,10.7532,10.7377,10.7377,10.7416,10.744,10.7416,10.7131,10.716,10.7118,10.7103,10.6402,10.6107,10.6146,10.6029,10.5834,10.599,10.6107,10.6107,10.5678,10.5131,10.3921,10.2984,10.3038,10.2949,10.289,10.2839,10.2725,10.2694,10.2616,10.2601,10.2616,10.2562,10.2289,10.2484,10.2523,10.1798,10.115,10.0668,9.9951,9.9133,9.8587,9.8353,9.8042,9.7613,9.7496,9.7496,10.7144,10.7319,10.8094,10.8472,10.8598,10.9451,11.0362,11.1272,11.2129,11.2544,11.2622,11.2622,11.2622,11.2622,11.2622,11.2622,11.2622,11.2622,11.2622,11.2622,11.2622,11.2622,11.2622,11.2622,11.2622,11.2622,11.2622,11.2622,11.2622,11.2622,11.2622,11.2622,11.2622,11.2622,11.2622,11.2622,11.2622,11.2622,11.2622,11.2622,11.2622,11.2622,11.2622,11.2622,11.2622,11.2622,11.2622,11.2622,11.2622,11.2622,11.2622,11.2622,11.2622,11.2622,11.2622,11.2622,11.2622,11.2622,11.2622,11.2622,11.2583,11.2272,11.1767,11.099,11.0291,10.9669,10.9164,10.8659,10.8076,10.7688,10.7377,10.7377,10.7416,10.7464,10.7533,10.752,10.7628,10.7664,10.7766,10.7524,10.7387,10.7278,10.6966,10.6732,10.599,10.6029,10.6029,10.5599,10.4975,10.4038,10.3335,10.3506,10.3339,10.3086,10.3031,10.3218,10.3084,10.3177,10.2709,10.2631,10.2616,10.2601,10.2601,10.2406,10.1899,10.1393,10.0964,10.0574,10.0107,9.9561,9.8782,9.847,9.8042,9.7613,9.7496,10.7202,10.7325,10.7611,10.7754,10.787,10.8647,10.9824,11.1156,11.1586,11.1961,11.2622,11.2622,11.2505,11.2622,11.2622,11.2622,11.2622,11.2622,11.2622,11.2622,11.2622,11.2622,11.2622,11.2622,11.2622,11.2622,11.2622,11.2622,11.2622,11.2622,11.2622,11.2622,11.2622,11.2622,11.2622,11.2622,11.2622,11.2622,11.2622,11.2622,11.2622,11.2622,11.2622,11.2622,11.2622,11.2622,11.2622,11.2622,11.2622,11.2622,11.2622,11.2622,11.2622,11.2622,11.2622,11.2622,11.2622,11.2622,11.2622,11.2622,11.2622,11.2622,11.2311,11.2272,11.1534,11.0524,10.963,10.9086,10.8154,10.7571,10.7377,10.7416,10.744,10.7464,10.7554,10.7617,10.7705,10.782,10.7922,10.7924,10.7786,10.7551,10.7317,10.6771,10.6107,10.6107,10.599,10.5717,10.5053,10.4194,10.3882,10.4046,10.3822,10.359,10.3909,10.4158,10.3881,10.3634,10.3102,10.2686,10.2659,10.2659,10.2631,10.246,10.2172,10.1744,10.1276,10.0964,10.0847,9.9639,9.8821,9.8665,9.8431,9.7925,9.7535,10.7259,10.7327,10.7391,10.7377,10.7494,10.796,10.8983,11.0123,11.0615,11.1145,11.1573,11.1922,11.2078,11.2117,11.2388,11.2622,11.2622,11.2622,11.2622,11.2622,11.2622,11.2622,11.2622,11.2622,11.2622,11.2622,11.2622,11.2622,11.2622,11.2622,11.2622,11.2622,11.2622,11.2622,11.2622,11.2622,11.2622,11.2622,11.2622,11.2622,11.2622,11.2622,11.2622,11.2622,11.2622,11.2622,11.2622,11.2622,11.2622,11.2622,11.2622,11.2622,11.2622,11.2622,11.2622,11.2622,11.2622,11.2622,11.2622,11.2622,11.2622,11.2622,11.2622,11.2544,11.1922,11.0951,11.0291,10.963,10.8348,10.7416,10.7416,10.744,10.744,10.7464,10.7576,10.7675,10.7761,10.782,10.7883,10.7924,10.7747,10.7473,10.7083,10.6575,10.6458,10.6849,10.7005,10.6888,10.6029,10.4858,10.4663,10.4787,10.4451,10.412,10.4584,10.4861,10.4304,10.3747,10.3123,10.2802,10.2733,10.2686,10.2673,10.2631,10.2562,10.2133,10.1782,10.1782,10.1549,10.0302,9.9328,9.9133,9.8743,9.7964,9.7652,10.7286,10.7377,10.7377,10.7377,10.7377,10.7455,10.7921,10.862,10.9397,10.9902,11.0213,11.0873,11.1262,11.1534,11.2039,11.2427,11.2544,11.2622,11.2622,11.2622,11.2622,11.2622,11.2622,11.2622,11.2622,11.2622,11.2622,11.2622,11.2622,11.2622,11.2622,11.2622,11.2622,11.2622,11.2622,11.2622,11.2622,11.2622,11.2622,11.2622,11.2622,11.2622,11.2622,11.2622,11.2622,11.2622,11.2622,11.2622,11.2622,11.2622,11.2622,11.2622,11.2622,11.2388,11.2388,11.2272,11.2117,11.2155,11.2194,11.2272,11.2466,11.2544,11.2622,11.2466,11.1845,11.0873,11.0174,10.9669,10.8504,10.7571,10.7416,10.7464,10.7487,10.7533,10.7578,10.7672,10.7752,10.786,10.7905,10.7933,10.7903,10.7669,10.7551,10.7122,10.6888,10.7473,10.7473,10.7395,10.6935,10.5607,10.5451,10.5536,10.5035,10.4828,10.5419,10.5435,10.4584,10.3928,10.329,10.2849,10.2733,10.2694,10.2671,10.262,10.2601,10.2601,10.2406,10.2328,10.2016,10.1237,10.038,9.9795,9.9172,9.8431,9.7847,10.7286,10.7377,10.7377,10.7377,10.7377,10.7377,10.7494,10.7727,10.7921,10.8776,10.9863,11.0252,11.064,11.1145,11.1417,11.1845,11.235,11.2388,11.2583,11.2544,11.2544,11.2622,11.2622,11.2622,11.2622,11.2622,11.2622,11.2622,11.2622,11.2622,11.2622,11.2622,11.2622,11.2622,11.2622,11.2622,11.2622,11.2622,11.2622,11.2622,11.2622,11.2622,11.2622,11.2622,11.2622,11.2622,11.2622,11.2622,11.2622,11.2622,11.2622,11.2622,11.2622,11.2,11.165,11.1495,11.1145,11.1223,11.1456,11.165,11.1845,11.2311,11.2388,11.2078,11.1534,11.0563,10.9824,10.9358,10.8737,10.7921,10.7401,10.7487,10.7533,10.7597,10.7636,10.7722,10.7795,10.7883,10.7963,10.7972,10.802,10.7942,10.7903,10.7747,10.7551,10.7317,10.7044,10.6935,10.7066,10.633,10.6258,10.6146,10.554,10.5504,10.6024,10.5745,10.4735,10.412,10.3507,10.31,10.2718,10.2694,10.2659,10.2631,10.2601,10.2601,10.2601,10.2562,10.2172,10.1549,10.1159,10.0458,10.0029,9.9367,9.8548,10.6394,10.6872,10.7261,10.7377,10.7377,10.7377,10.7377,10.7377,10.7377,10.7921,10.8853,10.9242,10.9747,11.0291,11.0524,11.0912,11.1573,11.1883,11.1883,11.2039,11.2427,11.2583,11.2622,11.2622,11.2622,11.2622,11.2622,11.2622,11.2622,11.2622,11.2622,11.2622,11.2622,11.2622,11.2622,11.2622,11.2622,11.2622,11.2622,11.2622,11.2622,11.2622,11.2622,11.2622,11.2622,11.2622,11.2622,11.2622,11.2622,11.2622,11.2622,11.2233,11.2039,11.1573,11.1145,11.0757,11.0407,11.0213,11.0563,11.0796,11.0951,11.1417,11.1495,11.0951,11.0718,10.9824,10.9319,10.8853,10.8232,10.7416,10.744,10.7487,10.7576,10.7637,10.7728,10.7806,10.786,10.7915,10.7972,10.8011,10.802,10.802,10.7942,10.7903,10.7747,10.7747,10.7356,10.7161,10.7137,10.6459,10.6542,10.6394,10.5507,10.539,10.573,10.5339,10.4607,10.41,10.3671,10.3183,10.2711,10.2698,10.2679,10.264,10.2601,10.2601,10.2601,10.2601,10.2211,10.1549,10.1315,10.1042,10.0652,10.0302,9.9678,10.5346,10.625,10.695,10.7338,10.7377,10.7377,10.7377,10.7377,10.7377,10.7377,10.761,10.8271,10.8542,10.897,10.9436,10.9747,11.0213,11.0873,11.1106,11.1573,11.2039,11.235,11.2544,11.2622,11.2622,11.2622,11.2622,11.2622,11.2622,11.2622,11.2622,11.2622,11.2622,11.2622,11.2622,11.2622,11.2622,11.2622,11.2622,11.2622,11.2622,11.2622,11.2622,11.2622,11.2622,11.2622,11.2622,11.2622,11.2622,11.2505,11.2388,11.1961,11.1378,11.0951,11.0368,10.9902,10.9475,10.9514,10.9786,10.9824,10.998,11.0096,10.998,10.9863,10.9708,10.9358,10.8853,10.8271,10.7688,10.7479,10.7464,10.7533,10.7597,10.7693,10.7776,10.7847,10.7894,10.7963,10.7972,10.7981,10.7864,10.7864,10.7981,10.7981,10.7825,10.7864,10.7825,10.7825,10.7403,10.6112,10.5499,10.5228,10.4608,10.4764,10.5389,10.4921,10.4255,10.4021,10.3593,10.3074,10.2703,10.2686,10.264,10.264,10.2601,10.2601,10.2601,10.2601,10.2094,10.1705,10.1744,10.1666,10.1393,10.1065,10.0793,10.5269,10.6212,10.6406,10.6794,10.7338,10.7377,10.7377,10.7377,10.7377,10.7377,10.7455,10.7532,10.796,10.8698,10.8814,10.9125,10.963,11.0096,11.0757,11.134,11.1534,11.2,11.2388,11.2544,11.2583,11.2622,11.2622,11.2622,11.2622,11.2622,11.2622,11.2622,11.2622,11.2622,11.2622,11.2622,11.2622,11.2622,11.2622,11.2622,11.2622,11.2622,11.2622,11.2622,11.2622,11.2622,11.2622,11.2622,11.2622,11.2427,11.1961,11.1534,11.0835,11.0096,10.9436,10.9009,10.8542,10.8581,10.8776,10.8892,10.9086,10.9591,10.9514,10.9358,10.9164,10.8853,10.8348,10.7843,10.7416,10.7416,10.7464,10.7554,10.7637,10.7761,10.7834,10.7922,10.7972,10.7972,10.802,10.7747,10.7434,10.7629,10.7942,10.7669,10.7083,10.7083,10.6966,10.6966,10.7247,10.5951,10.4605,10.4255,10.3944,10.4402,10.5053,10.4483,10.3933,10.3734,10.3475,10.3011,10.2694,10.2659,10.2601,10.2601,10.2601,10.2601,10.2601,10.2601,10.2523,10.225,10.2367,10.2328,10.2039,10.1828,10.1556]},{"header":{"parameterUnit":"m.s-1","parameterCategory":1,"la1":31.0,"la2":29.5877,"lo1":-88.7671,"lo2":-86.6584,"dy":0.0162,"dx":0.0185,"nx":115,"ny":88,"refTime":"2026-03-23T12:00:00:Z","depth":0,"parameterNumber":3,"parameterNumberName":"V-component_of_WINDS"},"data":[0.0,0.0,0.0,0.0,0.0,0.0,0.0,0.0,0.0,0.0,0.0,0.0,0.0,0.0,0.0,0.0,0.0,0.0,0.0,0.0,0.0,0.0,0.0,0.0,0.0,0.0,0.0,0.0,0.0,0.0,0.0,0.0,0.0,0.0,0.0,0.0,0.0,0.0,0.0,0.0,0.0,0.0,0.0,0.0,0.0,0.0,0.0,0.0,0.0,0.0,0.0,0.0,0.0,0.0,0.0,0.0,0.0,0.0,0.0,0.0,0.0,0.0,0.0,0.0,0.0,0.0,0.0,0.0,0.0,0.0,0.0,0.0,0.0,0.0,0.0,0.0,0.0,0.0,0.0,0.0,0.0,0.0,0.0,0.0,0.0,0.0,0.0,0.0,0.0,0.0,0.0,0.0,0.0,0.0,0.0,0.0,0.0,0.0,0.0,0.0,0.0,0.0,0.0,0.0,0.0,0.0,0.0,0.0,0.0,0.0,0.0,0.0,0.0,0.0,0.0,0.0,0.0,0.0,0.0,0.0,0.0,0.0,0.0,0.0,0.0,0.0,0.0,0.0,0.0,0.0,0.0,0.0,0.0,0.0,0.0,0.0,0.0,0.0,0.0,0.0,0.0,0.0,0.0,0.0,0.0,0.0,0.0,0.0,0.0,0.0,0.0,0.0,0.0,0.0,0.0,0.0,0.0,0.0,0.0,0.0,0.0,0.0,0.0,0.0,0.0,0.0,0.0,0.0,0.0,0.0,0.0,0.0,0.0,0.0,0.0,0.0,0.0,0.0,0.0,0.0,0.0,0.0,0.0,0.0,0.0,0.0,0.0,0.0,0.0,0.0,0.0,0.0,0.0,0.0,0.0,0.0,0.0,0.0,0.0,0.0,0.0,0.0,0.0,0.0,0.0,0.0,0.0,0.0,0.0,0.0,0.0,0.0,0.0,0.0,0.0,0.0,0.0,0.0,0.0,0.0,0.0,0.0,0.0,0.0,0.0,0.0,0.0,0.0,0.0,0.0,0.0,0.0,0.0,0.0,0.0,0.0,0.0,0.0,0.0,0.0,0.0,0.0,0.0,0.0,0.0,0.0,0.0,0.0,0.0,0.0,0.0,0.0,0.0,0.0,0.0,0.0,0.0,0.0,0.0,0.0,0.0,0.0,0.0,0.0,0.0,0.0,0.0,0.0,0.0,0.0,0.0,0.0,0.0,0.0,0.0,0.0,0.0,0.0,0.0,0.0,0.0,0.0,0.0,0.0,0.0,0.0,0.0,0.0,0.0,0.0,0.0,0.0,0.0,0.0,0.0,0.0,0.0,0.0,0.0,0.0,0.0,0.0,0.0,0.0,0.0,0.0,0.0,0.0,0.0,0.0,0.0,0.0,0.0,0.0,0.0,0.0,0.0,0.0,0.0,0.0,0.0,0.0,0.0,0.0,0.0,0.0,0.0,0.0,0.0,0.0,0.0,0.0,0.0,0.0,0.0,0.0,0.0,0.0,0.0,0.0,0.0,0.0,0.0,0.0,0.0,0.0,0.0,0.0,0.0,0.0,0.0,0.0,0.0,0.0,0.0,0.0,0.0,0.0,0.0,0.0,0.0,0.0,0.0,0.0,0.0,0.0,0.0,0.0,0.0,0.0,0.0,0.0,0.0,0.0,0.0,0.0,0.0,0.0,0.0,0.0,0.0,0.0,0.0,0.0,0.0,0.0,0.0,0.0,0.0,0.0,0.0,0.0,0.0,0.0,0.0,0.0,0.0,0.0,0.0,0.0,0.0,0.0,0.0,0.0,0.0,0.0,0.0,0.0,0.0,0.0,0.0,0.0,0.0,0.0,0.0,0.0,0.0,0.0,0.0,0.0,0.0,0.0,0.0,0.0,0.0,0.0,0.0,0.0,0.0,0.0,0.0,0.0,0.0,0.0,0.0,0.0,0.0,0.0,0.0,0.0,0.0,0.0,0.0,0.0,0.0,0.0,0.0,0.0,0.0,0.0,0.0,0.0,0.0,0.0,0.0,0.0,0.0,0.0,0.0,0.0,0.0,0.0,0.0,0.0,0.0,0.0,0.0,0.0,0.0,0.0,0.0,0.0,0.0,0.0,0.0,0.0,0.0,0.0,0.0,0.0,0.0,0.0,0.0,0.0,0.0,0.0,0.0,0.0,0.0,0.0,0.0,0.0,0.0,0.0,0.0,0.0,0.0,0.0,0.0,0.0,0.0,0.0,0.0,0.0,0.0,0.0,0.0,0.0,0.0,0.0,0.0,0.0,0.0,0.0,0.0,0.0,0.0,0.0,0.0,0.0,0.0,0.0,0.0,0.0,0.0,0.0,0.0,0.0,0.0,0.0,0.0,0.0,0.0,0.0,0.0,0.0,0.0,0.0,0.0,0.0,0.0,0.0,0.0,0.0,0.0,0.0,0.0,0.0,0.0,0.0,0.0,0.0,0.0,0.0,0.0,0.0,0.0,0.0,0.0,0.0,0.0,0.0,0.0,0.0,0.0,0.0,0.0,0.0,0.0,0.0,0.0,0.0,0.0,0.0,0.0,0.0,0.0,0.0,0.0,0.0,0.0,0.0,0.0,0.0,0.0,0.0,0.0,0.0,0.0,0.0,0.0,0.0,0.0,0.0,0.0,0.0,0.0,0.0,0.0,0.0,0.0,0.0,0.0,0.0,0.0,0.0,0.0,0.0,0.0,0.0,0.0,0.0,0.0,0.0,0.0,0.0,0.0,0.0,0.0,0.0,0.0,0.0,0.0,0.0,0.0,0.0,0.0,0.0,0.0,0.0,0.0,0.0,0.0,0.0,0.0,0.0,0.0,0.0,0.0,0.0,0.0,0.0,0.0,0.0,0.0,0.0,0.0,0.0,0.0,0.0,0.0,0.0,0.0,0.0,0.0,0.0,0.0,0.0,0.0,0.0,0.0,0.0,0.0,0.0,0.0,0.0,0.0,0.0,0.0,0.0,0.0,0.0,0.0,0.0,0.0,0.0,0.0,0.0,0.0,0.0,0.0,0.0,0.0,0.0,0.0,0.0,0.0,0.0,0.0,0.0,0.0,0.0,0.0,0.0,0.0,0.0,0.0,0.0,0.0,0.0,0.0,0.0,0.0,0.0,0.0,0.0,0.0,0.0,0.0,0.0,0.0,0.0,0.0,0.0,0.0,0.0,0.0,0.0,0.0,0.0,0.0,0.0,0.0,0.0,0.0,0.0,0.0,0.0,0.0,0.0,0.0,0.0,0.0,0.0,0.0,0.0,0.0,0.0,0.0,0.0,0.0,0.0,0.0,0.0,0.0,0.0,0.0,0.0,0.0,0.0,0.0,0.0,0.0,0.0,0.0,0.0,0.0,0.0,0.0,0.0,0.0,0.0,0.0,0.0,0.0,0.0,0.0,0.0,0.0,0.0,0.0,0.0,0.0,0.0,0.0,0.0,0.0,0.0,0.0,0.0,0.0,0.0,0.0,0.0,0.0,0.0,0.0,0.0,0.0,0.0,0.0,0.0,0.0,0.0,0.0,0.0,0.0,0.0,0.0,0.0,0.0,0.0,0.0,0.0,0.0,0.0,0.0,0.0,0.0,0.0,0.0,0.0,0.0,0.0,0.0,0.0,0.0,0.0,0.0,0.0,0.0,0.0,0.0,0.0,0.0,0.0,0.0,0.0,0.0,0.0,0.0,0.0,0.0,0.0,0.0,0.0,0.0,0.0,0.0,0.0,0.0,0.0,0.0,0.0,0.0,0.0,0.0,0.0,0.0,0.0,0.0,0.0,0.0,0.0,0.0,0.0,0.0,0.0,0.0,0.0,0.0,0.0,0.0,0.0,0.0,0.0,0.0,0.0,0.0,0.0,0.0,0.0,0.0,0.0,0.0,0.0,0.0,0.0,0.0,0.0,0.0,0.0,0.0,0.0,0.0,0.0,0.0,0.0,0.0,0.0,0.0,0.0,0.0,0.0,0.0,0.0,0.0,0.0,0.0,0.0,0.0,0.0,0.0,0.0,0.0,0.0,0.0,0.0,0.0,0.0,0.0,0.0,0.0,0.0,0.0,0.0,0.0,0.0,0.0,0.0,0.0,0.0,0.0,0.0,0.0,0.0,0.0,0.0,0.0,0.0,0.0,0.0,0.0,0.0,0.0,0.0,0.0,0.0,0.0,0.0,0.0,0.0,0.0,0.0,0.0,0.0,0.0,0.0,0.0,0.0,0.0,0.0,0.0,0.0,0.0,0.0,0.0,0.0,0.0,0.0,0.0,0.0,0.0,0.0,0.0,0.0,0.5429,0.0,0.0,0.0,0.0,0.0,0.0,0.0,0.0,0.0,0.0,0.0,0.0,0.0,0.0,0.0,0.0,0.0,0.0,0.0,0.0,0.0,0.0,0.0,0.0,0.0,0.0,0.0,0.0,0.0,0.0,0.0,0.0,0.0,0.0,0.0,0.0,0.0,0.0,0.0,0.0,0.0,0.0,0.0,0.0,0.0,0.0,0.0,0.0,0.0,0.0,0.0,0.0,0.0,0.0,0.0,0.0,0.0,0.0,0.0,0.0,0.0,0.0,0.0,0.0,0.0,0.0,0.0,0.0,0.0,0.0,0.0,0.0,0.0,0.0,0.0,0.0,0.0,0.0,0.0,0.0,0.0,0.0,0.0,0.0,0.0,0.0,0.0,0.0,0.0,0.0,0.0,0.0,0.0,0.0,0.0,0.0,0.0,0.0,0.0,0.0,0.0,0.0,0.0,0.0,0.0,0.0,0.0,0.0,0.0,0.0,0.6616,0.6616,0.5592,0.4997,0.501,0.0,0.0,0.0,0.0,0.0,0.0,0.0,0.0,0.0,0.0,0.0,0.0,0.0,0.0,0.0,0.0,0.0,0.0,0.0,0.0,0.0,0.0,0.0,0.0,0.0,0.0,0.0,0.0,0.0,0.0,0.0,0.0,0.0,0.0,0.0,0.0,0.0,0.0,0.0,0.0,0.0,0.0,0.0,0.0,0.0,0.0,0.0,0.0,0.0,0.0,0.0,0.0,0.0,0.0,0.0,0.0,0.0,0.0,0.0,0.0,0.0,0.0,0.0,0.0,0.0,0.0,0.0,0.0,0.0,0.0,0.0,0.0,0.0,0.0,0.0,0.0,0.0,0.0,0.0,0.0,0.0,0.0,0.0,0.0,0.0,0.0,0.0,0.0,0.0,0.0,0.0,0.0,0.0,0.0,0.0,0.0,0.0,0.0,0.0,0.0,0.0,0.0,0.0,0.0,0.0,0.0,0.0,0.0,0.0,0.0,0.0,0.0,0.5537,0.4714,0.4125,0.0,0.0,0.0,0.0,0.0,0.0,0.0,0.0,0.0,0.0,0.0,0.0,0.0,0.0,0.0,0.0,0.0,0.0,0.0,0.0,0.0,0.0,0.0,0.0,0.0,0.0,0.0,0.0,0.0,0.0,0.0,0.0,0.0,0.0,0.0,0.0,0.0,0.0,0.0,0.0,0.0,0.0,0.0,0.0,0.0,0.0,0.0,0.0,0.0,0.0,0.0,0.0,0.0,0.0,0.0,0.0,0.0,0.0,0.0,0.0,0.0,0.0,0.0,0.0,0.0,0.0,0.0,0.0,0.0,0.0,0.0,0.0,0.0,0.0,0.0,0.0,0.0,0.0,0.0,0.0,0.0,0.0,0.0,0.0,0.0,0.0,0.0,0.0,0.0,0.0,0.0,0.0,0.0,0.0,0.0,0.0,0.0,0.0,0.0,0.0,0.0,0.0,0.0,0.0,0.0,0.0,0.0,0.0,0.0,0.0,0.6839,0.6948,0.5894,0.0,0.2355,0.0,0.0,0.0,0.0,0.0,0.0,0.0,0.0,0.0,0.0,0.0,0.0,0.0,0.0,0.0,0.0,0.0,0.0,0.0,0.0,0.0,0.0,0.0,0.0,0.0,0.0,0.0,0.0,0.0,0.0,0.0,0.0,0.0,0.0,0.0,0.0,0.0,0.0,0.0,0.0,0.0,0.0,0.0,0.0,0.0,0.0,0.0,0.0,0.0,0.0,0.0,0.0,0.0,0.0,0.0,0.0,0.0,0.0,0.0,0.0,0.0,0.0,0.0,0.0,0.0,0.0,0.0,0.0,0.0,0.0,0.0,0.0,0.0,0.0,0.0,0.0,0.0,0.0,0.0,0.0,0.0,0.0,0.0,0.0,0.0,0.0,0.0,0.0,0.0,0.0,0.0,0.0,0.0,0.0,0.0,0.0,0.0,0.0,0.0,0.0,0.0,0.0,0.0,0.0,0.0,0.0,0.0,0.0,0.0,0.0,0.0,0.7296,0.6221,0.4782,0.0,0.0,0.0,0.0,0.0,0.0,0.0,0.0,0.0,0.0,0.0,0.0,0.0,0.0,0.0,0.0,0.0,0.0,0.0,0.0,0.0,0.0,0.0,0.0,0.0,0.0,0.0,0.0,0.0,0.0,0.0,0.0,0.0,0.0,0.0,0.0,0.0,0.0,0.0,0.0,0.0,0.0,0.0,0.0,0.0,0.0,0.0,0.0,0.0,0.0,0.0,0.0,0.0,0.0,0.0,0.0,0.0,0.0,0.0,0.0,0.0,0.0,0.0,0.0,0.0,0.0,0.0,0.0,0.0,0.0,0.0,0.0,0.0,0.0,0.0,0.0,0.0,0.0,0.0,0.0,0.0,0.0,0.0,0.0,0.0,0.0,0.0,0.0,0.0,0.0,0.0,0.0,0.0,0.0,0.0,0.0,0.0,0.0,0.0,0.0,0.0,0.0,0.0,0.0,0.0,0.0,0.0,0.0,0.0,0.0,0.6964,0.0,0.7172,0.6192,0.524,0.4153,0.0,0.0,0.0,0.0,0.0,0.0,0.0,0.0,0.0,0.0,0.0,0.0,0.0,0.0,0.0,0.0,0.0,0.0,0.0,0.0,0.0,0.0,0.0,0.0,0.0,0.0,0.0,0.0,0.0,0.0,0.0,0.0,0.0,0.0,0.0,0.0,0.0,0.0,0.0,0.0,0.0,0.0,0.0,0.0,0.0,0.0,0.0,0.0,0.0,0.0,0.0,0.0,0.0,0.0,0.0,0.0,0.0,0.0,0.0,0.0,0.0,0.0,0.0,0.0,0.0,0.0,0.0,0.0,0.0,0.0,0.0,0.0,0.0,0.0,0.0,0.0,0.0,0.0,0.0,0.0,0.0,0.0,0.0,0.0,0.0,0.0,0.0,0.0,0.0,0.0,0.0,0.0,0.0,0.0,0.0,0.0,0.0,0.0,0.0,0.0,0.0,0.0,0.0,0.0,0.0,0.0,0.0,0.0,0.0,0.6926,0.6829,0.6515,0.5965,0.5405,0.0,0.0,0.0,0.0,0.0,0.0,0.0,0.0,0.0,0.0,0.0,0.0,0.0,0.0,0.0,0.0,0.0,0.0,0.0,0.0,0.0,0.0,0.0,0.0,0.0,0.0,0.0,0.0,0.0,0.0,0.0,0.0,0.0,0.0,0.0,0.0,0.0,0.0,0.0,0.0,0.0,0.0,0.0,0.0,0.0,0.0,0.0,0.0,0.0,0.0,0.0,0.0,0.0,0.0,0.0,0.0,0.0,0.0,0.0,0.0,0.0,0.0,0.0,0.0,0.0,0.0,0.0,0.0,0.0,0.0,0.0,0.0,0.0,0.0,0.0,0.0,0.0,0.0,0.0,0.0,0.0,0.0,0.0,0.0,0.0,0.0,0.0,0.0,0.0,0.0,0.0,0.0,0.0,0.0,0.0,0.0,0.0,0.0,0.0,0.0,0.0,0.0,0.0,0.0,0.0,0.0,0.0,0.0,0.0,0.6687,0.6953,0.6959,0.6484,0.6326,0.5987,0.0,0.0,0.0,0.0,0.0,0.0,0.0,0.0,0.0,0.0,0.0,0.0,0.0,0.0,0.0,0.0,0.0,0.0,0.0,0.0,0.0,0.0,0.0,0.0,0.0,0.0,0.0,0.0,0.0,0.0,0.0,0.0,0.0,0.0,0.0,0.0,0.0,0.0,0.0,0.0,0.0,0.0,0.0,0.0,0.0,0.0,0.0,0.0,0.0,0.0,0.0,0.0,0.0,0.0,0.0,0.0,0.0,0.0,0.0,0.0,0.0,0.0,0.0,0.0,0.0,0.0,0.0,0.0,0.0,0.0,0.0,0.0,0.0,0.0,0.0,0.0,0.0,0.0,0.0,0.0,0.0,0.0,0.0,0.0,0.0,0.0,0.0,0.0,0.0,0.0,0.0,0.0,0.0,0.0,0.0,0.0,0.0,0.0,0.0,0.0,0.0,0.0,0.0,0.0,0.0,0.0,0.0,0.0,0.0,0.6736,0.0,0.7116,0.0,0.6643,0.6355,0.0,0.0,0.0,0.0,0.0,0.0,0.0,0.0,0.0,0.0,0.0,0.0,0.0,0.0,0.0,0.0,0.0,0.0,0.0,0.0,0.0,0.0,0.0,0.0,0.0,0.0,0.0,0.0,0.0,0.0,0.0,0.0,0.0,0.0,0.0,0.0,0.0,0.0,0.0,0.0,0.0,0.0,0.0,0.0,0.0,0.0,0.0,0.0,0.0,0.0,0.0,0.0,0.0,0.0,0.0,0.0,0.0,0.0,0.0,0.0,0.0,0.0,0.0,0.0,0.0,0.0,0.0,0.0,0.0,0.0,0.0,0.0,0.0,0.0,0.0,0.0,0.0,0.0,0.0,0.0,0.0,0.0,0.0,0.0,0.0,0.0,0.0,0.0,0.0,0.0,0.0,0.0,0.0,0.0,0.0,0.0,0.0,0.0,0.0,0.0,0.0,0.0,0.0,0.0,0.0,0.0,0.0,0.0,0.0,0.697,0.7328,0.7388,0.716,0.6921,0.6518,0.0,0.0,0.0,0.0,0.0,0.0,0.0,0.0,0.0,0.0,0.0,0.0,0.0,0.0,0.0,0.0,0.0,0.0,0.0,0.0,0.0,0.0,0.0,0.0,0.0,0.0,0.0,0.0,0.0,0.0,0.0,0.0,0.0,0.0,0.0,0.0,0.0,0.0,0.0,0.0,0.0,0.0,0.0,0.0,0.0,0.0,0.0,0.0,0.0,0.0,0.0,0.0,0.0,0.0,0.0,0.0,0.0,0.0,0.0,0.0,0.0,0.0,0.0,0.0,0.0,0.0,0.0,0.0,0.0,0.0,0.0,0.0,0.0,0.0,0.0,0.0,0.0,0.0,0.0,0.0,0.0,0.0,0.0,0.0,0.0,0.0,0.0,0.0,0.0,0.0,0.0,0.0,0.0,0.0,0.0,0.0,0.0,0.0,0.0,0.0,0.0,0.0,0.0,0.0,0.0,0.0,0.0,0.0,0.0,0.6991,0.7334,0.7442,0.7279,0.7051,0.6687,0.0,0.0,0.0,0.0,0.0,0.0,0.0,0.0,0.0,0.0,0.0,0.0,0.0,0.0,0.0,0.0,0.0,0.0,0.0,0.0,0.0,0.0,0.0,0.0,0.0,0.0,0.0,0.0,0.0,0.0,0.0,0.0,0.0,0.0,0.0,0.0,0.0,0.0,0.0,0.0,0.0,0.0,0.0,0.0,0.0,0.0,0.0,0.0,0.0,0.0,0.0,0.0,0.0,0.0,0.0,0.0,0.0,0.0,0.0,0.0,0.0,0.0,0.0,0.0,0.0,0.0,0.0,0.0,0.0,0.0,0.0,0.0,0.0,0.0,0.0,0.0,0.0,0.0,0.0,0.0,0.0,0.0,0.0,0.0,0.0,0.0,0.0,0.0,0.0,0.0,0.0,0.0,0.0,0.0,0.0,0.0,0.0,0.0,0.0,0.0,0.0,0.0,0.0,0.0,0.0,0.0,0.0,0.0,0.0,0.8182,0.8361,0.835,0.8144,0.7867,0.7383,0.6692,0.0,0.0,0.0,0.0,0.0,0.0,0.0,0.0,0.0,0.0,0.0,0.0,0.0,0.0,0.0,0.0,0.0,0.0,0.0,0.0,0.0,0.0,0.0,0.0,0.0,0.0,0.0,0.0,0.0,0.0,0.0,0.0,0.0,0.0,0.0,0.0,0.0,0.0,0.0,0.0,0.0,0.0,0.0,0.0,0.0,0.0,0.0,0.0,0.0,0.0,0.0,0.0,0.0,0.0,0.0,0.0,0.0,0.0,0.0,0.0,0.0,0.0,0.0,0.0,0.0,0.0,0.0,0.0,0.0,0.0,0.0,0.0,0.0,0.0,0.0,0.0,0.0,0.0,0.0,0.0,0.0,0.0,0.0,0.0,0.0,0.0,0.0,0.0,0.0,0.0,0.0,0.0,0.0,0.0,0.0,0.0,0.0,0.0,0.0,0.0,0.0,0.0,0.0,0.0,0.0,0.0,0.0,0.0,1.0264,1.0231,1.0008,0.9579,0.9209,0.8513,0.0,0.0,0.0,0.0,0.0,0.0,0.0,0.0,0.0,0.0,0.0,0.0,0.0,0.0,0.0,0.0,0.0,0.0,0.0,0.0,0.0,0.0,0.0,0.0,0.0,0.0,0.0,0.0,0.0,0.0,0.0,0.0,0.0,0.0,0.0,0.0,0.0,0.0,0.0,0.0,0.0,0.0,0.0,0.0,0.0,0.0,0.0,0.0,0.0,0.0,0.0,0.0,0.0,0.0,0.0,0.0,0.0,0.0,0.0,0.0,0.0,0.0,0.0,0.0,0.0,0.0,0.0,0.0,0.0,0.0,0.0,0.0,0.0,0.0,0.0,0.0,0.0,0.0,0.0,0.0,0.0,0.0,0.0,0.0,0.0,0.0,0.0,0.0,0.0,0.0,0.0,0.0,0.0,0.0,0.0,0.0,0.0,0.0,0.0,0.0,0.0,0.0,0.0,0.0,0.0,0.0,0.0,0.0,0.0,1.1221,1.2091,1.1938,1.0726,1.0155,0.941,0.0,0.0,0.0,0.0,0.0,0.0,0.0,0.0,0.0,0.0,0.0,0.0,0.0,0.0,0.0,0.0,0.0,0.0,0.0,0.0,0.0,0.0,0.0,0.0,0.0,0.0,0.0,0.0,0.0,0.0,0.0,0.0,0.0,0.0,0.0,0.0,0.0,0.0,0.0,0.0,0.0,0.0,0.0,0.0,0.0,0.0,0.0,0.0,0.0,0.0,0.0,0.0,0.0,0.0,0.0,0.0,0.0,0.0,0.0,0.0,0.0,0.0,0.0,0.0,0.0,0.0,0.0,0.0,0.0,0.0,0.0,0.0,0.0,0.0,0.0,0.0,0.0,0.0,0.0,0.0,0.0,0.0,0.0,0.0,0.0,0.0,0.0,0.0,0.0,0.0,0.0,0.0,0.0,0.0,0.0,0.0,0.0,0.0,0.0,0.0,0.0,0.0,0.0,0.0,0.0,0.0,0.0,0.0,1.0585,1.2063,1.3303,1.3423,1.233,1.1427,1.0384,0.0,0.0,0.0,0.0,0.0,0.0,0.0,0.0,0.0,0.0,0.0,0.0,0.0,0.0,0.0,0.0,0.0,0.0,0.0,0.0,0.0,0.0,0.0,0.0,0.0,0.0,0.0,0.0,0.0,0.0,0.0,0.0,0.0,0.0,0.0,0.0,0.0,0.0,0.0,0.0,0.0,0.0,0.0,0.0,0.0,0.0,0.0,0.0,0.0,0.0,0.0,0.0,0.0,0.0,0.0,0.0,0.0,0.0,0.0,0.0,0.0,0.0,0.0,0.0,0.0,0.0,0.0,0.0,0.0,0.0,0.0,0.0,0.0,0.0,0.0,0.0,0.0,0.0,0.0,0.0,0.0,0.0,0.0,0.0,0.0,0.0,0.0,0.0,0.0,0.0,0.0,0.0,0.0,0.0,0.0,0.0,0.0,0.0,0.0,0.0,0.0,0.0,0.0,0.0,0.0,0.0,0.0,0.0,1.1237,1.2754,1.4042,1.4483,1.3983,1.2754,1.1368,0.0,0.0,0.0,0.0,0.0,0.0,0.0,0.0,0.0,0.0,0.0,0.0,0.0,0.0,0.0,0.0,0.0,0.0,0.0,0.0,0.0,0.0,0.0,0.0,0.0,0.0,0.0,0.0,0.0,0.0,0.0,0.0,0.0,0.0,0.0,0.0,0.0,0.0,0.0,0.0,0.0,0.0,0.0,0.0,0.0,0.0,0.0,0.0,0.0,0.0,0.0,0.0,0.0,0.0,0.0,0.0,0.0,0.0,0.0,0.0,0.0,0.0,0.0,0.0,0.0,0.0,0.0,0.0,0.0,0.0,0.0,0.0,0.0,0.0,0.0,0.0,0.0,0.0,0.0,0.0,0.0,0.0,0.0,0.0,0.0,0.0,0.0,0.0,0.0,0.0,0.0,0.0,0.0,0.0,0.0,0.0,0.0,0.0,0.0,0.0,0.0,0.0,0.0,0.0,0.0,0.0,0.0,0.0,1.1889,1.3243,1.4374,1.4733,1.4249,1.3238,1.2053,0.0,0.0,0.0,0.0,0.0,0.0,0.0,0.0,0.0,0.0,0.0,0.0,0.0,0.0,0.0,0.0,0.0,0.0,0.0,0.0,0.0,0.0,0.0,0.0,0.0,0.0,0.0,0.0,0.0,0.0,0.0,0.0,0.0,0.0,0.0,0.0,0.0,0.0,0.0,0.0,0.0,0.0,0.0,0.0,0.0,0.0,0.0,0.0,-0.1516,0.0,0.0,0.0,0.0,0.0,0.0,0.0,0.0,0.0,0.0,0.0,0.0,0.0,0.0,0.0,0.0,0.0,0.0,0.0,0.0,0.0,0.0,0.0,0.0,0.0,0.0,0.0,0.0,0.0,0.0,0.0,0.0,0.0,0.0,0.0,0.0,0.0,0.0,0.0,0.0,0.0,0.0,0.0,0.0,0.0,0.0,0.0,0.0,0.0,0.0,0.0,0.0,0.0,0.0,0.0,0.0,0.0,0.0,0.0,1.252,1.3651,1.4564,1.4858,1.4483,1.3776,1.2667,0.0,0.0,0.0,0.0,0.0,0.0,0.0,0.0,0.0,0.0,0.0,0.0,0.0,0.0,0.0,0.0,0.0,0.0,0.0,0.0,0.0,0.0,0.0,0.0,0.0,0.0,0.0,0.0,0.0,0.0,0.0,0.0,0.0,0.0,0.0,0.0,0.0,0.0,0.0,0.0,0.0,0.0,0.0,0.0,0.0,0.0,0.0,0.0,0.0,0.0,0.0,0.0,0.0,0.0,0.0,0.0,0.0,0.0,0.0,0.0,0.0,0.0,0.0,0.0,0.0,0.0,0.0,0.0,0.0,0.0,0.0,0.0,0.0,0.0,0.0,0.0,0.0,0.0,0.0,0.0,0.0,0.0,0.0,0.0,0.0,0.0,0.0,0.0,0.0,0.0,0.0,0.0,0.0,0.0,0.0,0.0,0.0,0.0,0.0,0.0,0.0,0.0,0.0,0.0,0.0,0.0,0.0,1.1824,1.3107,1.3993,1.47,1.4918,1.4597,1.4349,1.3244,0.0,0.0,0.0,0.0,0.0,0.0,0.0,0.0,0.0,0.0,0.0,0.0,0.0,0.0,0.0,0.0,0.0,0.0,0.0,0.0,0.0,0.0,0.0,0.0,0.0,0.0,0.0,0.0,0.0,0.0,0.0,0.0,0.0,0.0,0.0,0.0,0.0,0.0,0.0,-0.1536,-0.164,0.0,0.0,0.0,0.0,0.0,0.0,0.0,0.0,-0.168,0.0,0.0,0.0,0.0,0.0,0.0,0.0,0.0,0.0,0.0,0.0,0.0,0.0,0.0,0.0,0.0,0.0,0.0,0.0,0.0,0.0,0.0,0.0,0.0,0.0,0.0,0.0,0.0,0.0,0.0,0.0,0.0,0.0,0.0,0.0,0.0,0.0,0.0,0.0,0.0,0.0,0.0,0.0,0.0,0.0,0.0,0.0,0.0,0.0,0.0,0.0,0.0,0.0,0.0,0.0,0.0,1.0911,1.2477,1.3597,1.4249,1.4869,1.488,1.4249,1.4411,1.3319,1.1052,0.0,0.0,0.0,0.0,0.0,0.0,0.0,0.0,0.0,0.0,0.0,0.0,0.0,0.0,0.0,0.0,0.0,0.0,0.0,0.0,0.0,0.0,0.0,0.0,0.0,0.0,0.0,0.0,0.0,0.0,0.0,0.0,0.0,0.0,0.0,0.0,0.0,0.0,0.0,-0.1797,-0.1855,0.0,0.0,0.0,0.0,0.0,0.0,0.0,0.0,-0.1684,0.0,0.0,0.0,0.0,0.0,0.0,0.0,0.0,0.0,0.0,0.0,0.0,0.0,0.0,0.0,0.0,0.0,0.0,0.0,0.0,0.0,0.0,0.0,0.0,0.0,0.0,0.0,0.0,0.0,0.0,0.0,0.0,0.0,0.0,0.0,0.0,0.0,0.0,0.0,0.0,0.0,0.0,0.0,0.0,0.0,0.0,0.0,0.0,0.0,0.0,0.0,0.0,0.0,0.0,0.0,1.1542,1.3156,1.4184,1.4591,1.4945,1.4754,1.3972,1.3671,1.2494,0.0,0.0,0.0,0.0,0.0,0.0,0.0,0.0,0.0,0.0,0.0,0.0,0.0,0.0,0.0,0.0,0.0,0.0,0.0,0.0,0.0,0.0,0.0,0.0,0.0,0.0,0.0,0.0,0.0,0.0,0.0,0.0,0.0,0.0,0.0,0.0,0.0,0.0,0.0,0.0,-0.1932,-0.2014,-0.1924,0.0,0.0,0.0,0.0,0.0,0.0,-0.1866,-0.18,0.0,0.0,0.0,0.0,0.0,0.0,0.0,0.0,0.0,0.0,0.0,0.0,0.0,0.0,0.0,0.0,0.0,0.0,0.0,0.0,0.0,0.0,0.0,0.0,0.0,0.0,0.0,0.0,0.0,0.0,0.0,0.0,0.0,0.0,0.0,0.0,0.0,0.0,0.0,0.0,0.0,0.0,0.0,0.0,0.0,0.0,0.0,0.0,0.0,0.0,0.0,0.0,0.0,0.0,0.0,1.1976,1.3645,1.4619,1.4847,1.4972,1.4629,1.377,1.2868,1.1645,0.0,0.0,0.0,0.0,0.0,0.0,0.0,0.0,0.0,0.0,0.0,0.0,0.0,0.0,0.0,0.0,0.0,0.0,0.0,0.0,0.0,0.0,0.0,0.0,0.0,0.0,0.0,0.0,0.0,0.0,0.0,0.0,0.0,0.0,0.0,0.0,0.0,0.0,0.0,0.0,0.0,-0.2154,-0.2075,-0.2024,0.0,0.0,0.0,0.0,-0.1997,-0.2015,0.0,0.0,0.0,0.0,0.0,0.0,0.0,0.0,0.0,0.0,0.0,0.0,0.0,0.0,0.0,0.0,0.0,0.0,0.0,0.0,0.0,0.0,0.0,0.0,0.0,0.0,0.0,0.0,0.0,0.0,0.0,0.0,0.0,0.0,0.0,0.0,0.0,0.0,0.0,0.0,0.0,0.0,0.0,0.0,0.0,0.0,0.0,0.0,0.0,0.0,0.0,0.0,0.0,0.0,0.0,0.0,1.1976,1.3651,1.4619,1.4847,1.4972,1.4586,1.3651,1.2495,1.1357,0.0,0.0,0.0,0.0,0.0,0.0,0.0,0.0,0.0,0.0,0.0,0.0,0.0,0.0,0.0,0.0,0.0,0.0,0.0,0.0,0.0,0.0,0.0,0.0,0.0,0.0,0.0,0.0,0.0,0.0,0.0,0.0,0.0,0.0,0.0,0.0,0.0,0.0,0.0,0.0,0.0,-0.2259,-0.2223,-0.2214,-0.2199,0.0,0.0,0.0,-0.2206,-0.2213,0.0,0.0,0.0,0.0,0.0,0.0,0.0,0.0,0.0,0.0,0.0,0.0,0.0,0.0,0.0,0.0,0.0,0.0,0.0,0.0,0.0,0.0,0.0,0.0,0.0,0.0,0.0,0.0,0.0,0.0,0.0,0.0,0.0,0.0,0.0,0.0,0.0,0.0,0.0,0.0,0.0,0.0,0.0,0.0,0.0,0.0,0.0,0.0,0.0,0.0,0.0,0.0,0.0,0.0,0.0,1.0416,1.208,1.3749,1.4716,1.495,1.501,1.4613,1.3727,1.2679,1.1491,0.0,0.0,0.0,0.0,0.0,0.0,0.0,0.0,0.0,0.0,0.0,0.0,0.0,0.0,0.0,0.0,0.0,0.0,0.0,0.0,0.0,0.0,0.0,0.0,0.0,0.0,0.0,0.0,0.0,0.0,0.0,0.0,0.0,0.0,0.0,0.0,0.0,0.0,0.0,0.0,0.0,0.0,-0.2349,-0.2376,0.0,0.0,0.0,-0.2343,-0.2391,0.0,0.0,0.0,0.0,0.0,0.0,0.0,0.0,0.0,0.0,0.0,0.0,0.0,0.0,0.0,0.0,0.0,0.0,0.0,0.0,0.0,0.0,0.0,0.0,0.0,0.0,0.0,0.0,0.0,0.0,0.0,0.0,0.0,0.0,0.0,0.0,0.0,0.0,0.0,0.0,0.0,0.0,0.0,0.0,0.0,0.0,0.0,0.0,0.0,0.0,0.0,0.0,0.0,0.0,0.0,0.0,0.0,1.2205,1.3868,1.4836,1.5075,1.5081,1.4711,1.3939,1.3075,0.0,0.0,0.0,0.0,0.0,0.0,0.0,0.0,0.0,0.0,0.0,0.0,0.0,0.0,0.0,0.0,0.0,0.0,0.0,0.0,0.0,0.0,0.0,0.0,0.0,0.0,0.0,-0.1147,0.0,0.0,0.0,0.0,0.0,0.0,0.0,0.0,0.0,0.0,0.0,0.0,0.0,0.0,-0.2463,-0.2477,-0.2537,-0.2571,0.0,0.0,-0.2518,-0.2563,-0.2619,-0.2572,0.0,0.0,0.0,0.0,0.0,0.0,0.0,0.0,0.0,0.0,0.0,0.0,0.0,0.0,0.0,0.0,0.0,0.0,0.0,0.0,0.0,0.0,0.0,0.0,0.0,0.0,0.0,0.0,0.0,0.0,0.0,0.0,0.0,0.0,0.0,0.0,0.0,0.0,0.0,0.0,0.0,0.0,0.0,0.0,0.0,0.0,0.0,0.0,0.0,0.0,0.0,0.0,0.0,0.0,0.0,1.2324,1.3993,1.4961,1.5195,1.5206,1.4912,1.4298,1.3678,1.2564,0.0,0.0,0.0,0.0,0.0,0.0,0.0,0.0,0.0,0.0,0.0,0.0,0.0,0.0,0.0,0.0,0.0,0.0,0.0,0.0,0.0,0.0,0.0,0.0,0.0,0.0,0.0,0.0,0.0,0.0,0.0,0.0,0.0,0.0,0.0,0.0,0.0,0.0,0.0,0.0,0.0,-0.2571,-0.2624,-0.2709,-0.2755,0.0,0.0,-0.2718,-0.2722,-0.2703,-0.2616,-0.2403,0.0,0.0,0.0,0.0,0.0,0.0,0.0,0.0,0.0,0.0,0.0,0.0,0.0,0.0,0.0,0.0,0.0,0.0,0.0,0.0,0.0,0.0,0.0,0.0,0.0,0.0,0.0,0.0,0.0,0.0,0.0,0.0,0.0,0.0,0.0,0.0,0.0,0.0,0.0,0.0,0.0,0.0,0.0,0.0,0.0,0.0,0.0,0.0,0.0,0.0,0.0,0.0,0.0,1.0514,1.2227,1.3966,1.4977,1.5211,1.5222,1.5037,1.4662,1.4211,1.3189,0.0,0.0,0.0,0.0,0.0,0.0,0.0,0.0,0.0,0.0,0.0,0.0,0.0,0.0,0.0,0.0,0.0,0.0,0.0,0.0,0.0,0.0,0.0,0.0,0.0,0.0,0.0,0.0,-0.1291,-0.1316,-0.132,0.0,0.0,0.0,0.0,0.0,0.0,0.0,0.0,0.0,0.0,-0.2718,-0.2778,-0.2879,0.0,0.0,-0.2916,-0.289,-0.2853,-0.2791,-0.2664,-0.2721,-0.2564,0.0,0.0,0.0,0.0,0.0,0.0,0.0,0.0,0.0,0.0,0.0,0.0,0.0,0.0,0.0,0.0,0.0,0.0,0.0,0.0,0.0,0.0,0.0,0.0,0.0,0.0,0.0,0.0,0.0,0.0,0.0,0.0,0.0,0.0,0.0,0.0,0.0,0.0,0.0,0.0,0.0,0.0,0.0,0.0,0.0,0.0,0.0,0.0,0.0,0.0,0.0,0.0,1.0514,1.221,1.3999,1.5026,1.5266,1.5271,1.5173,1.4967,1.4581,1.364,0.0,0.0,0.0,0.0,0.0,0.0,0.0,0.0,0.0,0.0,0.0,0.0,0.0,0.0,0.0,0.0,0.0,0.0,0.0,0.0,0.0,0.0,0.0,0.0,0.0,0.0,0.0,0.0,-0.1348,-0.1355,-0.1307,0.0,0.0,0.0,0.0,0.0,0.0,0.0,0.0,0.0,0.0,-0.2774,-0.2863,-0.2984,-0.3062,-0.3054,-0.3035,-0.2992,-0.2916,-0.2981,-0.2819,-0.2883,0.0,0.0,0.0,0.0,0.0,0.0,0.0,0.0,0.0,0.0,0.0,0.0,0.0,0.0,0.0,0.0,0.0,0.0,0.0,0.0,0.0,0.0,0.0,0.0,0.0,0.0,0.0,0.0,0.0,0.0,0.0,0.0,0.0,0.0,0.0,0.0,0.0,0.0,0.0,0.0,0.0,0.0,0.0,0.0,0.0,0.0,0.0,0.0,0.0,0.0,0.0,0.0,0.0,0.0,1.2335,1.4113,1.514,1.5369,1.5385,1.5325,1.5195,1.4749,1.3868,1.252,0.0,0.0,0.0,0.0,0.0,0.0,0.0,0.0,0.0,0.0,0.0,0.0,0.0,0.0,0.0,0.0,0.0,0.0,0.0,0.0,0.0,0.0,0.0,0.0,0.0,0.0,-0.1425,-0.1431,-0.1397,0.0,0.0,0.0,0.0,0.0,0.0,0.0,0.0,0.0,0.0,-0.2497,-0.2705,-0.2853,-0.3002,-0.3086,-0.3058,-0.3052,-0.301,-0.2893,-0.3064,-0.3045,0.0,0.0,0.0,0.0,0.0,0.0,0.0,0.0,0.0,0.0,0.0,0.0,0.0,0.0,0.0,0.0,0.0,0.0,0.0,0.0,0.0,0.0,0.0,0.0,0.0,0.0,0.0,0.0,0.6779,0.0,0.0,0.0,0.0,0.0,0.0,0.0,0.0,0.0,0.0,0.0,0.9845,1.0128,0.0,0.0,0.0,0.0,0.0,0.0,0.0,0.0,0.0,0.0,0.0,0.0,1.0514,1.2221,1.4004,1.5032,1.5266,1.5276,1.5222,1.5097,1.4711,1.3586,1.1639,0.0,0.0,0.0,0.0,0.0,0.0,0.0,0.0,0.0,0.0,0.0,0.0,0.0,0.0,0.0,0.0,0.0,0.0,0.0,0.0,0.0,0.0,0.0,0.0,0.0,-0.1376,0.0,0.0,0.0,0.0,0.0,0.0,0.0,0.0,0.0,0.0,0.0,-0.2571,-0.2648,-0.2693,-0.2702,-0.2853,-0.302,-0.3123,0.0,0.0,0.0,0.0,0.0,0.0,0.0,0.0,0.0,0.0,0.0,0.0,0.0,0.0,-0.4709,-0.4253,-0.4316,-0.4292,-0.4251,0.0,0.0,0.0,0.0,0.0,0.0,0.0,0.0,0.0,0.0,0.0,0.0,0.0,0.0,0.0,0.0,0.7432,0.0,0.0,0.0,0.0,0.0,0.0,0.0,0.0,1.0324,1.096,1.1308,1.1596,1.1748,0.0,1.1705,1.0813,0.0,0.0,0.0,0.0,0.0,0.0,0.0,0.0,1.0601,1.2227,1.3966,1.4977,1.5206,1.5222,1.5184,1.5092,1.4548,1.3417,1.1656,1.0131,0.8681,0.0,0.0,0.0,0.0,0.0,0.0,0.0,0.0,0.0,0.0,0.0,0.0,0.0,0.0,0.0,0.0,0.0,0.0,0.0,0.0,0.0,0.0,0.0,-0.0678,0.0,0.0,0.0,0.0,0.0,0.0,0.0,0.0,0.0,-0.2512,-0.2571,-0.2621,-0.2776,-0.2759,-0.2733,-0.2883,0.0,0.0,0.0,0.0,0.0,0.0,0.0,-0.3678,-0.4141,-0.4259,-0.4254,-0.45,-0.4781,-0.471,-0.4574,0.0,0.0,-0.4995,-0.5087,-0.5082,-0.5022,-0.5044,-0.5071,-0.5071,-0.515,-0.5262,0.0,0.0,0.0,0.0,0.0,0.0,0.0,0.0,0.9617,0.9367,0.0,0.841,0.0,0.0,0.0,0.0,0.0,0.0,0.0,0.0,1.1634,1.2384,1.2727,1.3064,1.3189,0.0,1.3058,1.2672,1.1895,0.9998,0.0,0.0,0.0,0.0,0.0,0.0,1.0797,1.2352,1.4004,1.4972,1.52,1.5211,1.5206,1.5173,1.4303,1.3423,1.2569,1.1588,1.0291,0.8366,0.7369,0.0,0.0,0.0,0.0,0.0,0.0,0.0,0.0,0.0,0.0,0.0,0.0,0.0,0.0,0.0,0.0,0.0,0.0,0.0,0.0,0.108,0.0,0.0,0.0,0.0,0.0,0.0,0.0,0.0,0.0,0.0,-0.2189,-0.2615,-0.2782,-0.259,0.0,0.0,0.0,0.0,-0.3176,-0.315,-0.3145,-0.3103,-0.2986,-0.3553,-0.4132,-0.4183,0.0,0.0,-0.5918,-0.5997,-0.6036,-0.6038,-0.6131,-0.5942,-0.5529,-0.5686,-0.5883,-0.5834,-0.5809,-0.5839,-0.5845,-0.585,-0.5954,1.1694,0.0,0.0,0.0,0.0,1.0585,1.1096,1.1558,1.1183,1.0916,1.0688,0.9927,0.0,0.0,0.0,0.0,0.0,0.0,1.046,1.1444,1.2379,1.3004,1.3352,1.3542,1.3613,1.358,1.3406,1.308,1.2596,1.1612,1.0313,0.8742,0.0,0.0,0.0,0.0,1.1009,1.2471,1.3961,1.4841,1.5086,1.5092,1.5005,1.4831,1.4401,1.3852,1.3183,1.2074,1.0993,0.9952,0.846,0.0,0.0,0.0,0.0,0.0,0.0,0.0,0.0,0.0,0.0,0.0,0.0,0.0,0.0,0.0,0.0,0.0,0.0,0.0,0.4509,0.3517,0.2247,0.0,0.0,0.0,0.0,0.0,0.0,0.0,0.0,0.0,-0.2564,-0.2557,-0.2749,0.0,0.0,-0.2825,-0.2973,-0.3086,-0.3167,-0.32,0.0,0.0,0.0,-0.3749,-0.4073,-0.4963,-0.5509,-0.5647,-0.5319,-0.5757,-0.5972,-0.5969,-0.641,-0.66,-0.6285,-0.6305,-0.6183,-0.6155,-0.615,-0.6166,-0.6207,-0.6232,-0.6284,1.3461,1.2123,1.1748,1.159,1.1639,1.1962,1.2497,1.3183,1.3051,1.2781,1.233,1.1542,1.0835,1.0204,0.9704,0.0,0.0,0.0,1.1536,1.2346,1.308,1.3564,1.3814,1.3939,1.3972,1.3917,1.3727,1.3499,1.3238,1.2732,1.1868,0.0,0.0,0.0,0.9416,1.034,1.1422,1.2672,1.3993,1.4765,1.4961,1.501,1.4923,1.4678,1.4488,1.4135,1.358,1.2652,1.1569,1.0728,0.9317,0.8021,0.0,0.0,0.0,0.0,0.0,0.0,0.0,0.0,0.0,0.0,0.0,-0.0864,0.0,0.0,0.0,0.0,0.1756,0.3653,0.5877,0.498,0.0,0.0,0.0,0.0,0.0,0.0,0.0,-0.1992,-0.2458,-0.2766,-0.2866,-0.2842,-0.2833,-0.2875,-0.2927,-0.3002,-0.3115,0.0,-0.3262,-0.3298,-0.3494,-0.3673,-0.4042,-0.4365,-0.4949,-0.5935,-0.628,-0.6179,-0.6019,-0.6246,-0.6461,-0.6459,-0.6658,-0.6842,-0.6807,-0.663,-0.6482,-0.6463,-0.6477,-0.6507,-0.654,-0.6548,-0.6572,1.4733,1.4347,1.3477,1.3075,1.3058,1.3185,1.3675,1.4542,1.4647,1.4398,1.3809,1.3118,1.2411,1.1699,1.102,0.0,0.0,1.2047,1.2564,1.3151,1.3711,1.4042,1.4173,1.4282,1.4271,1.4151,1.401,1.3885,1.3749,1.3406,1.3069,1.27,1.0873,1.0139,1.0541,1.1204,1.2004,1.2939,1.4086,1.4738,1.4869,1.4967,1.4912,1.4678,1.4564,1.4282,1.3814,1.3038,1.2134,1.0921,1.0015,0.8678,0.7235,0.0,0.0,0.0,0.0,0.0,0.0,0.0,0.0,0.0,0.0,0.0,0.0,0.0,0.0,0.0,0.3783,0.0,0.545,0.575,0.0,0.0,0.0,0.2963,0.1438,0.0464,-0.0493,-0.1715,0.0,0.0,0.0,0.0,-0.3153,-0.3133,-0.3201,-0.3273,-0.333,-0.3384,-0.3423,-0.3425,-0.4066,-0.4267,-0.4447,-0.5247,-0.6098,-0.6658,-0.6924,-0.694,-0.6981,-0.6992,-0.6997,-0.6992,-0.6951,-0.6913,-0.691,-0.6845,-0.6807,-0.6733,-0.6766,-0.6807,-0.6796,-0.6793,-0.6793,1.5434,1.5266,1.513,1.4651,1.4015,1.4325,1.4684,1.5026,1.482,1.4629,1.4423,1.3896,1.3259,1.2569,1.2216,1.2232,1.2564,1.2852,1.3211,1.3629,1.3944,1.4211,1.4417,1.445,1.4396,1.4265,1.3972,1.3765,1.364,1.3368,1.3194,1.3086,1.2536,1.2091,1.1775,1.2102,1.2661,1.3428,1.4249,1.4782,1.4983,1.4934,1.4825,1.4678,1.4564,1.432,1.3928,1.318,1.2466,1.1969,1.0545,0.923,0.8375,0.6528,0.0,0.0,0.0,0.0,0.0,0.0,0.0,0.0,0.0,-0.0587,0.0757,0.0,0.2571,0.0,0.4158,0.4369,0.413,0.5542,0.0,0.0,0.5254,0.4033,0.0969,-0.0342,-0.1252,-0.2567,-0.3048,-0.315,-0.3224,-0.328,-0.3337,-0.3396,-0.3423,-0.345,-0.3487,-0.3502,-0.3741,-0.4204,-0.4428,-0.4653,-0.5076,-0.5738,-0.6162,-0.6384,-0.6827,-0.7038,-0.7006,-0.7,-0.7,-0.7,-0.6989,-0.6962,-0.6918,-0.6894,-0.6864,-0.6812,-0.6809,-0.6818,-0.6818,-0.6818,-0.6818,1.5717,1.5662,1.5728,1.5445,1.4972,1.5097,1.5271,1.5445,1.5314,1.5157,1.4967,1.4542,1.4108,1.3678,1.3542,1.3526,1.3618,1.3743,1.3885,1.4031,1.4216,1.4374,1.4504,1.4553,1.4434,1.4151,1.3792,1.3558,1.3433,1.3254,1.3249,1.3401,1.3444,1.3325,1.3053,1.2971,1.3178,1.3684,1.4336,1.4558,1.4554,1.4686,1.4771,1.4149,1.4204,1.3947,1.338,1.289,1.2245,1.1648,1.0317,0.9268,0.851,0.6685,0.5318,0.0,0.0,0.0,0.0,0.0,0.0,0.0,0.0,0.0,0.0,0.0,0.2391,0.0,0.0,0.0,0.2966,0.4115,0.4564,0.4228,0.4387,0.3357,0.0907,-0.0187,-0.1155,-0.2355,-0.3016,-0.3295,-0.3367,-0.3405,-0.3454,-0.3531,-0.3542,-0.3547,-0.3561,-0.3565,-0.3795,-0.4485,-0.4712,-0.5159,-0.6055,-0.6503,-0.6719,-0.6691,-0.6906,-0.7115,-0.7085,-0.7079,-0.7076,-0.7076,-0.7057,-0.7022,-0.6962,-0.6924,-0.6888,-0.6837,-0.6818,-0.6818,-0.6818,-0.6818,-0.6818,1.5766,1.5755,1.5755,1.5755,1.5755,1.5755,1.5755,1.5755,1.5755,1.5619,1.5369,1.5015,1.4776,1.4651,1.4619,1.4526,1.439,1.4374,1.4314,1.4238,1.4369,1.4455,1.451,1.4635,1.4455,1.3999,1.3624,1.3379,1.3259,1.3151,1.3276,1.3624,1.3879,1.4053,1.414,1.3743,1.3656,1.3901,1.4412,1.4328,1.4093,1.4438,1.4259,1.3583,1.3785,1.3485,1.2706,1.24,1.157,1.0431,0.9826,0.9078,0.8093,0.6735,0.5646,0.0,0.2823,0.0,0.0,0.0,0.0,0.0,0.0,0.0,0.0,0.232,0.149,0.1403,0.1439,0.1664,0.1772,0.2031,0.2094,0.2132,0.2139,0.196,0.0996,0.0,-0.102,-0.1867,-0.2937,-0.3411,-0.3483,-0.3505,-0.3529,-0.3576,-0.3585,-0.3584,-0.3589,-0.3588,-0.3812,-0.4488,-0.5159,-0.6055,-0.6951,-0.7175,-0.7175,-0.7175,-0.7169,-0.7175,-0.7169,-0.7169,-0.7172,-0.7166,-0.7131,-0.7079,-0.7014,-0.6957,-0.6899,-0.6831,-0.6818,-0.6818,-0.6818,-0.6818,-0.6818,1.5836,1.5755,1.5755,1.5755,1.5755,1.5755,1.5755,1.5755,1.5755,1.5619,1.5363,1.501,1.4738,1.4526,1.433,1.4064,1.377,1.3673,1.3667,1.3749,1.3961,1.4216,1.451,1.4722,1.4624,1.4238,1.3787,1.3504,1.3385,1.3265,1.339,1.3754,1.4086,1.426,0.0,0.0,0.0,0.0,1.4159,1.3868,1.4083,1.3674,1.3236,1.3466,1.2718,0.0,1.238,1.1392,1.0826,1.0241,0.9441,0.0,0.0,0.0,0.0,0.0,0.0,0.0,0.0,0.0,0.0,0.0,0.6107,0.5854,0.5153,0.1786,-0.033,0.0,0.0521,0.0716,0.0187,-0.0387,-0.0594,-0.04,0.0,0.0,-0.0815,-0.1239,-0.1881,-0.2937,-0.3405,-0.3454,-0.3495,-0.3521,-0.355,-0.3583,-0.3589,-0.3589,-0.3589,-0.3589,-0.4038,-0.5159,-0.6055,-0.6951,-0.7175,-0.7175,-0.7175,-0.7175,-0.7175,-0.7175,-0.7175,-0.7175,-0.7175,-0.7175,-0.7166,-0.7123,-0.7022,-0.6989,-0.6946,-0.6839,-0.6818,-0.6818,-0.6818,-0.6818,-0.6818,1.5983,0.0,1.5864,1.5842,0.0,0.0,1.5755,1.5755,1.5755,1.5619,1.5374,1.514,1.4841,1.4488,1.4184,1.3819,1.3412,1.3178,1.3167,1.3357,1.3705,1.4064,1.4423,1.4776,1.4727,1.4309,1.383,1.3542,1.3417,1.3298,1.3428,1.3792,1.4146,1.432,1.432,1.4097,1.3985,1.4212,1.3984,1.3639,1.3144,1.2958,1.2753,1.2539,0.0,0.0,0.0,0.0,0.0,0.0,0.0,0.0,0.0,0.0,0.0,0.6762,0.6287,0.6124,0.6548,0.5811,0.6288,0.796,0.8387,0.7367,0.4746,0.1414,-0.0538,-0.055,0.0,0.0191,-0.0197,-0.0402,-0.0816,-0.1441,-0.1655,-0.187,-0.2297,-0.2527,-0.2753,-0.318,-0.3429,-0.3468,-0.3499,-0.3527,-0.3555,-0.3584,-0.3589,-0.3814,-0.4038,-0.4038,-0.4486,-0.5607,-0.6503,-0.7175,-0.7175,-0.7175,-0.7175,-0.7175,-0.7175,-0.7175,-0.7175,-0.7175,-0.7175,-0.7175,-0.7175,-0.7136,-0.703,-0.7,-0.6962,-0.6853,-0.6818,-0.6818,-0.6818,-0.6818,-0.6818,1.6124,1.6097,1.5994,1.5945,1.5912,1.5825,1.5771,1.5755,0.0,0.0,0.0,1.5271,1.4939,1.4455,1.4113,1.3684,1.3194,1.2857,1.2835,1.3091,1.3564,1.3977,1.4336,1.4809,1.4809,1.4374,1.3939,1.3667,1.3548,1.3423,1.3526,1.3852,1.4167,1.432,1.4097,1.3647,1.3303,1.3266,1.329,1.2944,1.2214,1.2498,1.23,1.1648,1.1699,1.1382,1.075,1.0498,0.9947,0.9514,0.9252,0.902,0.8836,0.8199,0.8157,0.8361,0.8021,0.8382,0.927,0.8892,0.882,0.9624,0.9682,0.8141,0.4147,0.2082,0.0575,-0.0195,0.0397,0.1009,0.1437,0.1036,0.0209,-0.1053,-0.2531,-0.3384,-0.3407,-0.3418,-0.342,-0.3423,-0.3453,-0.3482,-0.3509,-0.3536,-0.3561,-0.3583,-0.3589,-0.3814,-0.4488,-0.4712,-0.5161,-0.6057,-0.6729,-0.7175,-0.7175,-0.7175,-0.7175,-0.7175,-0.7175,-0.7175,-0.7175,-0.7175,-0.7175,-0.7175,-0.7175,-0.7131,-0.7044,-0.7019,-0.6978,-0.6869,-0.6839,-0.6834,-0.6831,-0.6823,-0.6818,1.6206,1.6103,1.6086,1.6021,1.5918,1.5907,1.5842,1.5749,1.5646,1.5521,1.5385,1.5271,1.4896,1.4336,1.4075,1.364,1.3091,1.2825,1.2835,0.0,1.3569,1.3977,1.4336,1.4809,1.4896,1.4619,1.4347,1.4156,1.4037,1.3912,1.3939,1.4091,1.4243,1.387,1.3425,1.3425,1.3044,1.2037,1.2123,1.2263,1.2218,1.1576,1.1393,1.1639,1.0836,1.0512,1.0661,1.013,0.9587,0.9436,0.9452,0.9387,0.9216,0.915,0.9118,0.9097,0.9158,0.9236,0.9507,0.9514,0.9681,0.9791,0.9873,0.9,0.7006,0.4594,0.2611,0.1623,0.2457,0.4349,0.6703,0.4644,0.2545,0.1276,-0.149,-0.3408,-0.32,-0.3221,-0.3019,-0.3236,-0.3501,-0.3313,-0.3318,-0.3564,-0.3581,-0.3588,-0.3589,-0.4038,-0.4935,-0.5833,-0.6057,-0.6281,-0.6727,-0.7175,-0.7175,-0.7175,-0.7175,-0.7175,-0.7175,-0.7175,-0.7175,-0.7175,-0.7175,-0.7175,-0.7169,-0.7139,-0.7079,-0.7076,-0.703,-0.6957,-0.691,-0.6886,-0.688,-0.685,-0.682,1.6353,1.6298,1.6233,1.613,1.6016,1.5885,1.5804,1.5749,1.57,1.5603,1.5488,1.5434,1.5075,1.4504,1.4189,1.3765,1.3249,1.2944,1.2971,1.3281,1.3689,1.4069,1.4434,1.4841,1.4977,1.4863,1.4695,1.4581,1.4515,1.4341,1.4282,1.433,1.3885,1.3647,1.3202,1.2534,1.2139,1.1793,1.1891,1.1776,1.1678,1.1324,1.0963,1.1278,1.0745,1.0499,1.0534,1.0228,0.991,0.9775,0.9767,0.9706,0.9579,0.9526,0.9518,0.9567,0.9608,0.9669,0.9759,0.9885,0.9979,1.002,1.0114,0.9717,0.8594,0.6608,0.4728,0.3525,0.4582,0.6078,0.8045,0.6374,0.4894,0.362,0.1496,0.0429,0.0429,0.0432,0.0217,-0.0435,-0.1098,-0.1772,-0.2437,-0.3125,-0.3589,-0.3589,-0.3814,-0.4264,-0.4936,-0.5833,-0.6505,-0.6729,-0.6951,-0.7175,-0.7175,-0.7175,-0.7175,-0.7175,-0.7175,-0.7175,-0.7175,-0.7175,-0.7161,-0.7136,-0.7128,-0.709,-0.7017,-0.6992,-0.6965,-0.6916,-0.6883,-0.6861,-0.6853,-0.6834,-0.682,1.6472,1.6462,1.6369,1.6244,1.6092,1.5885,1.5782,1.5755,1.5755,1.5706,1.5619,1.5586,1.5255,1.4711,1.439,1.401,1.358,1.327,1.3292,1.3597,1.3923,1.4249,1.4553,1.4885,1.5037,1.5026,1.4939,1.4885,1.4836,1.4668,1.4564,1.4311,1.3772,1.3278,1.2601,1.1934,1.174,1.1568,1.1663,1.1529,1.1155,1.1073,1.1,1.0939,1.071,1.0539,1.0445,1.0355,1.0257,1.0151,1.0098,1.0024,0.9914,0.9861,0.9853,0.9902,0.9906,0.9938,1.0008,1.0073,1.0122,1.0143,1.0269,1.0144,0.9717,0.8494,0.6932,0.5909,0.6747,0.7818,0.8083,0.7878,0.7237,0.6187,0.5581,0.5176,0.5189,0.5227,0.4818,0.3508,0.1986,0.0444,-0.0889,-0.2458,-0.3589,-0.3589,-0.4038,-0.4264,-0.4712,-0.5609,-0.6281,-0.6951,-0.7175,-0.7175,-0.7175,-0.7175,-0.7175,-0.7175,-0.7175,-0.7175,-0.7175,-0.7166,-0.7142,-0.7101,-0.7079,-0.7041,-0.6954,-0.6935,-0.6924,-0.6891,-0.6869,-0.6842,-0.6826,-0.682,-0.6818,1.6472,1.6472,1.6456,1.632,1.6097,1.5967,1.5853,1.576,1.5755,1.5749,1.5722,1.5619,1.5309,1.4863,1.4695,1.4434,1.4091,1.3923,1.3944,1.4102,1.4336,1.4526,1.4684,1.4923,1.5037,1.5037,1.5021,1.4961,1.4869,1.4831,1.4765,1.4217,1.3963,1.2806,1.1444,1.1676,1.1646,1.0894,1.098,1.1069,1.1151,1.1073,1.1061,1.1135,1.0951,1.0812,1.0706,1.0628,1.0502,1.0355,1.0396,1.0359,1.0208,1.0245,1.0253,1.0183,1.0179,1.0183,1.0192,1.02,1.024,1.0318,1.0343,1.0396,1.0465,1.0232,0.9536,0.8613,0.9188,0.9375,0.8734,0.9166,0.9412,0.8832,0.9075,0.9976,0.9828,1.0132,0.9746,0.8417,0.5122,0.2911,0.1343,-0.1121,-0.3142,-0.3141,-0.3589,-0.4038,-0.4935,-0.5383,-0.6055,-0.6951,-0.7175,-0.7175,-0.7175,-0.7175,-0.7175,-0.7175,-0.7172,-0.7166,-0.7158,-0.7128,-0.709,-0.706,-0.7038,-0.6997,-0.6984,-0.6989,-0.6976,-0.6932,-0.6902,-0.6878,-0.6837,-0.6818,-0.6818,1.6472,1.6472,1.6472,1.6331,1.6097,1.5907,1.5804,1.5755,1.5755,1.5755,1.5749,1.57,1.5532,1.5276,1.5227,1.5081,1.488,1.4825,1.4831,1.4885,1.4983,1.5015,1.501,1.5092,1.5108,1.5043,1.5037,1.501,1.4956,1.4428,1.4333,1.4467,1.331,1.2163,1.1245,1.1249,1.1207,1.0894,1.0926,1.0988,1.1065,1.1045,1.1069,1.1131,1.0984,1.0873,1.0828,1.0747,1.0637,1.0522,1.0547,1.051,1.0383,1.0412,1.0416,1.0379,1.0379,1.0379,1.0379,1.0375,1.0392,1.0432,1.0481,1.0526,1.0559,1.0563,1.0328,1.007,1.0216,1.0164,0.9729,1.0164,1.0184,1.0003,1.0268,1.0534,1.0567,1.0657,1.0265,0.9153,0.7155,0.5155,0.3809,0.1345,-0.0448,-0.1345,-0.2242,-0.3589,-0.471,-0.5385,-0.6057,-0.6505,-0.6951,-0.7175,-0.7175,-0.7175,-0.7175,-0.7169,-0.7145,-0.7125,-0.712,-0.7076,-0.7027,-0.6995,-0.6965,-0.6932,-0.6891,-0.6894,-0.6891,-0.6891,-0.6886,-0.6845,-0.6823,-0.6818,-0.6818,1.6472,1.6467,1.6434,1.6282,1.6043,1.5874,1.5782,1.5755,1.5755,1.5755,1.5755,1.5755,1.5711,1.5624,1.5592,1.5505,1.5401,1.5391,1.5391,1.5391,1.5391,1.5331,1.5227,1.5222,1.5157,1.5053,1.5037,1.5037,1.4793,1.4254,1.4166,1.4103,1.2709,1.1784,1.1324,1.1098,1.1053,1.0975,1.0963,1.0996,1.1057,1.1061,1.1106,1.1176,1.1045,1.0951,1.0926,1.0837,1.0747,1.0657,1.0653,1.0612,1.053,1.0522,1.0514,1.0494,1.049,1.049,1.049,1.049,1.0502,1.0526,1.0583,1.0628,1.0649,1.0653,1.0653,1.0645,1.06,1.0551,1.0494,1.049,1.0498,1.0304,1.0144,0.9959,0.9985,0.9824,0.9407,0.8293,0.7622,0.7175,0.6055,0.4935,0.3588,0.0,-0.2243,-0.3589,-0.4712,-0.5609,-0.6281,-0.6505,-0.6953,-0.7175,-0.7175,-0.7175,-0.7175,-0.7164,-0.7134,-0.7098,-0.7082,-0.703,-0.6973,-0.6946,-0.6908,-0.688,-0.6856,-0.6831,-0.6823,-0.682,-0.682,-0.682,-0.6818,-0.6818,-0.6818,1.6472,1.6451,1.6347,1.6157,1.5929,1.5912,1.5853,1.5755,1.5755,1.5755,1.5755,1.5755,1.5749,1.5733,1.563,1.551,1.5407,1.5407,1.5412,1.5412,1.5407,1.5336,1.5227,1.5222,1.5157,1.5048,1.5037,1.4804,1.4103,1.4093,1.3859,1.3153,1.2434,1.1971,1.1261,1.1257,1.1233,1.1139,1.1131,1.1147,1.1151,1.1151,1.1192,1.1257,1.1192,1.1098,1.102,1.0931,1.0841,1.0751,1.0747,1.0706,1.0624,1.0612,1.0575,1.051,1.0498,1.0494,1.0502,1.0506,1.0534,1.0596,1.062,1.0653,1.0726,1.0735,1.0735,1.0743,1.0726,1.0661,1.0539,1.0522,1.032,0.9719,0.8848,0.8443,0.8278,0.7611,0.7175,0.6729,0.718,0.7183,0.6967,0.9229,0.5613,0.0673,-0.3365,-0.5161,-0.5383,-0.5831,-0.6505,-0.6953,-0.7175,-0.7175,-0.7175,-0.7161,-0.7164,-0.7147,-0.7106,-0.7076,-0.7046,-0.7008,-0.6948,-0.6897,-0.6864,-0.6837,-0.6823,-0.6818,-0.682,-0.6818,-0.6818,-0.6818,-0.6818,-0.6818,-0.6818,1.6423,1.6347,1.6222,1.6076,1.5923,1.5847,1.5793,1.5755,1.5755,1.5755,1.5755,1.5755,1.5755,1.5755,1.5711,1.5668,1.563,1.5624,1.5624,1.5624,1.5624,1.5521,1.5342,1.5325,1.5222,1.5059,1.5037,1.457,1.4098,1.3397,1.2934,1.2938,1.2231,1.1524,1.1286,1.1286,1.1249,1.1171,1.1163,1.1163,1.1167,1.1163,1.1204,1.1278,1.1208,1.1147,1.1114,1.1024,1.0935,1.0845,1.0841,1.0796,1.0714,1.0702,1.069,1.0661,1.0657,1.0657,1.0657,1.0661,1.0669,1.0698,1.0702,1.071,1.0743,1.0751,1.0751,1.0751,1.0751,1.0714,1.0681,1.0657,1.0226,0.9365,0.8252,0.7365,0.6491,0.5601,0.4705,0.4705,0.5155,0.5157,0.4935,0.4936,0.3588,0.0224,-0.269,-0.4485,-0.5383,-0.6279,-0.6951,-0.7175,-0.7175,-0.7175,-0.7175,-0.7139,-0.7115,-0.7087,-0.7052,-0.6995,-0.6954,-0.6918,-0.6861,-0.6861,-0.6826,-0.6823,-0.6818,-0.6818,-0.6818,-0.6818,-0.6818,-0.6818,-0.6818,-0.6818,-0.6818,1.6402,1.6288,1.6201,1.6092,1.5978,1.5902,1.5847,1.5815,1.5815,1.5793,1.576,1.5755,1.5755,1.5755,1.5755,1.5755,1.5755,1.5755,1.5755,1.5755,1.5755,1.5624,1.5423,1.5391,1.5266,1.5064,1.4804,1.4331,1.3397,1.2695,1.2461,1.2465,1.1758,1.1286,1.1286,1.1286,1.1257,1.1212,1.1204,1.1204,1.1204,1.1204,1.1229,1.1274,1.1233,1.1188,1.1163,1.1073,1.0984,1.0906,1.089,1.0849,1.0763,1.0751,1.0751,1.0751,1.0751,1.0751,1.0751,1.0751,1.0751,1.0751,1.0751,1.0751,1.0751,1.0751,1.0751,1.0751,1.0751,1.0751,1.0751,1.0751,1.0304,0.9191,0.7846,0.6722,0.5605,0.3585,0.2689,0.2465,0.2465,0.2465,0.2241,0.0897,-0.0,-0.0672,-0.2913,-0.4709,-0.5607,-0.6503,-0.7175,-0.7175,-0.7175,-0.7175,-0.7158,-0.7115,-0.7096,-0.7068,-0.6997,-0.6932,-0.6891,-0.6848,-0.682,-0.682,-0.6818,-0.6818,-0.6818,-0.6818,-0.6818,-0.6818,-0.6818,-0.6818,-0.6818,-0.6818,-0.6818,1.6385,1.6271,1.6282,1.6179,1.6059,1.6043,1.601,1.5907,1.5907,1.5842,1.576,1.5755,1.5755,1.5755,1.5755,1.5755,1.5755,1.5755,1.5755,1.5755,1.5755,1.563,1.5412,1.5407,1.5287,1.4825,1.4337,1.3397,1.2461,1.2227,1.1993,1.1524,1.129,1.1286,1.1286,1.1286,1.1286,1.1278,1.1274,1.1282,1.1286,1.1278,1.1278,1.1286,1.1282,1.1245,1.1171,1.1086,1.1008,1.0922,1.0906,1.0853,1.0779,1.0755,1.0751,1.0751,1.0751,1.0751,1.0751,1.0759,1.0767,1.0755,1.0755,1.0763,1.0755,1.0751,1.0751,1.0751,1.0751,1.0751,1.0751,1.0751,1.0308,0.9191,0.7846,0.6951,0.5381,0.2468,0.0224,0.0449,0.0898,0.0224,-0.0224,-0.0898,-0.1795,-0.2243,-0.3812,-0.5607,-0.6055,-0.6727,-0.7175,-0.7175,-0.7175,-0.7175,-0.7134,-0.709,-0.7079,-0.7057,-0.6965,-0.6888,-0.6878,-0.6845,-0.6826,-0.682,-0.6818,-0.6818,-0.6818,-0.6818,-0.6818,-0.6818,-0.6818,-0.6818,-0.6818,-0.6818,-0.6818,1.6152,1.6048,1.6037,1.5972,1.5869,1.5864,1.5836,1.5809,1.5809,1.5787,1.576,1.5755,1.5755,1.5755,1.5755,1.5755,1.5755,1.5755,1.5755,1.5755,1.5755,1.5668,1.5537,1.551,1.5152,1.4471,1.3431,1.2695,1.2227,1.1754,1.1524,1.1286,1.1286,1.1286,1.1286,1.1286,1.1286,1.1286,1.1286,1.1286,1.1286,1.1286,1.1286,1.1286,1.1286,1.1274,1.1249,1.122,1.1167,1.1078,1.1078,1.1008,1.0869,1.0784,1.0755,1.0751,1.0751,1.0751,1.0759,1.0808,1.0816,1.0784,1.0808,1.0808,1.0763,1.0751,1.0751,1.0751,1.0751,1.0751,1.0751,1.0751,1.0308,0.9191,0.7846,0.6948,0.6053,0.3811,0.2689,0.2465,0.2464,0.2464,0.2241,0.0897,-0.0448,-0.1569,-0.3139,-0.4709,-0.6055,-0.6727,-0.7175,-0.7175,-0.7175,-0.7175,-0.7147,-0.7109,-0.7079,-0.7046,-0.6745,-0.6474,-0.6453,-0.6644,-0.6626,-0.682,-0.682,-0.6818,-0.6818,-0.6818,-0.6818,-0.6818,-0.6818,-0.6818,-0.6818,-0.6818,-0.6818,1.6065,1.5999,1.5994,1.5951,1.5885,1.5885,1.5858,1.582,1.582,1.5798,1.576,1.5755,1.5755,1.5755,1.5755,1.5755,1.5755,1.5755,1.5755,1.5755,1.5755,1.569,1.5575,1.528,1.4689,1.3581,1.2782,1.2027,1.1758,1.152,1.1286,1.1286,1.1286,1.1286,1.1286,1.1286,1.1286,1.1286,1.1286,1.1286,1.1286,1.1286,1.1286,1.1286,1.1286,1.1286,1.1286,1.1286,1.1249,1.1167,1.1102,1.1,1.0894,1.0804,1.0751,1.0751,1.0755,1.0767,1.08,1.0857,1.0886,1.0861,1.0877,1.0865,1.0808,1.0779,1.0751,1.0751,1.0751,1.0751,1.0751,1.0751,1.0528,0.9862,0.9191,0.8293,0.7398,0.6724,0.6277,0.6277,0.6053,0.5605,0.5379,0.3137,0.1345,-0.0672,-0.2241,-0.3812,-0.5383,-0.6505,-0.6727,-0.6951,-0.7175,-0.7175,-0.7169,-0.7131,-0.7085,-0.6813,-0.6753,-0.6074,-0.5625,-0.6031,-0.6221,-0.6618,-0.682,-0.6818,-0.6818,-0.6818,-0.6818,-0.6818,-0.6818,-0.6818,-0.6818,-0.6818,-0.6818,1.6081,1.6086,1.6081,1.6059,1.6048,1.6043,1.5978,1.5912,1.5907,1.5847,1.5771,1.5755,1.5755,1.5755,1.5755,1.5755,1.5755,1.5755,1.5755,1.5755,1.5749,1.5451,1.536,1.4531,1.3712,1.2668,1.2395,1.1865,1.1574,1.1318,1.1294,1.1306,1.1298,1.1286,1.1286,1.1286,1.1286,1.1286,1.1286,1.1286,1.1286,1.1286,1.1286,1.1286,1.1286,1.1286,1.1286,1.1286,1.1253,1.1163,1.1033,1.0951,1.0902,1.082,1.0788,1.0792,1.0775,1.0824,1.0877,1.0926,1.0947,1.0988,1.0955,1.0898,1.0894,1.0841,1.0796,1.0779,1.0775,1.0763,1.0759,1.0751,1.0751,1.0755,1.0536,1.032,1.0779,1.0328,0.9877,1.01,0.9656,0.8981,0.8306,0.5159,0.2242,-0.0,-0.1569,-0.2914,-0.4485,-0.5157,-0.6055,-0.6281,-0.6503,-0.7175,-0.7172,-0.7128,-0.7085,-0.6835,-0.6337,-0.5437,-0.4773,-0.4969,-0.6017,-0.6415,-0.6831,-0.6826,-0.6818,-0.682,-0.6818,-0.6818,-0.6818,-0.6818,-0.6818,-0.6818,-0.6818,1.5847,1.5847,1.5847,1.5847,1.5847,1.5847,1.5836,1.5804,1.5809,1.5798,1.5755,1.5755,1.5755,1.5755,1.5755,1.5755,1.5755,1.5755,1.5755,1.5755,1.526,1.5005,1.471,1.3648,1.3099,1.2576,1.2031,1.1753,1.1486,1.1421,1.1388,1.1384,1.1323,1.129,1.1286,1.1286,1.1286,1.1286,1.129,1.1294,1.1298,1.1294,1.1286,1.1286,1.129,1.129,1.1286,1.1286,1.1282,1.1253,1.1151,1.1094,1.1069,1.0992,1.0939,1.0939,1.0947,1.0955,1.0992,1.1049,1.1065,1.1033,1.1057,1.1061,1.0992,1.0967,1.0918,1.0877,1.0853,1.0828,1.0775,1.0759,1.0759,1.0751,1.0771,1.0767,1.0759,1.0759,1.0759,1.0759,1.0093,0.9418,0.8523,0.6727,0.4036,0.2017,0.0448,-0.0897,-0.2466,-0.3811,-0.4261,-0.5383,-0.5831,-0.6727,-0.7164,-0.712,-0.709,-0.6856,-0.5926,-0.4571,-0.3906,-0.346,-0.4943,-0.6197,-0.6642,-0.6858,-0.6834,-0.682,-0.682,-0.6839,-0.6828,-0.6834,-0.6823,-0.6818,-0.6818,1.5755,1.5755,1.5755,1.5755,1.576,1.5804,1.5798,1.5771,1.5809,1.5798,1.5766,1.5755,1.5755,1.5755,1.5755,1.5755,1.5755,1.5755,1.5755,1.5266,1.4281,1.4031,1.3772,1.2988,1.2709,1.2179,1.1887,1.16,1.1559,1.1506,1.1465,1.1421,1.1372,1.1327,1.1286,1.129,1.131,1.1339,1.1347,1.1359,1.14,1.1363,1.1347,1.1335,1.1314,1.1286,1.1286,1.1286,1.1286,1.1269,1.1208,1.1163,1.1155,1.1078,1.1024,1.1024,1.1024,1.1037,1.1086,1.1135,1.1151,1.1139,1.1167,1.1135,1.1086,1.1053,1.0992,1.0955,1.0947,1.0918,1.0886,1.0869,1.0865,1.0869,1.0833,1.0796,1.0759,1.0755,1.0751,1.0528,1.0085,0.9191,0.8741,0.6951,0.5157,0.3139,0.1794,0.0448,-0.0897,-0.1793,-0.2686,-0.3801,-0.4696,-0.5364,-0.6034,-0.6229,-0.6622,-0.6609,-0.5483,-0.4134,-0.3042,-0.2384,-0.4112,-0.5823,-0.6464,-0.6888,-0.6872,-0.6867,-0.6886,-0.6891,-0.6867,-0.6842,-0.6831,-0.6818,-0.6818,1.5755,1.5755,1.5755,1.5755,1.5771,1.5858,1.5836,1.5787,1.5847,1.5836,1.5771,1.5755,1.5755,1.5755,1.5755,1.5755,1.5755,1.5755,1.5016,1.4526,1.3541,1.3051,1.2806,1.2797,1.2269,1.1974,1.1715,1.1674,1.1629,1.1592,1.1535,1.149,1.1457,1.14,1.1363,1.1335,1.1367,1.1425,1.1437,1.147,1.1506,1.147,1.1433,1.1396,1.1323,1.129,1.1286,1.1286,1.1286,1.1286,1.1212,1.1188,1.1171,1.1094,1.1069,1.1069,1.1082,1.111,1.1159,1.1184,1.1208,1.1245,1.1208,1.1176,1.1163,1.1118,1.1073,1.1041,1.1041,1.1024,1.1004,1.1012,1.1004,1.098,1.0931,1.0853,1.0788,1.0759,1.0751,1.0751,0.9638,0.8744,0.7846,0.65,0.471,0.3364,0.2467,0.1794,0.112,0.0447,-0.0669,-0.1777,-0.2668,-0.3562,-0.4451,-0.5338,-0.5954,-0.6136,-0.5022,-0.3476,-0.2176,-0.1957,-0.3709,-0.5227,-0.6248,-0.6681,-0.6937,-0.6943,-0.6943,-0.6924,-0.6888,-0.6861,-0.6837,-0.6823,-0.6818,1.5755,1.5755,1.5755,1.5755,1.576,1.5777,1.5777,1.576,1.5782,1.5793,1.576,1.5755,1.5755,1.5755,1.5755,1.5755,1.5755,1.526,1.4281,1.3296,1.3051,1.2565,1.2079,1.2079,1.2066,1.18,1.18,1.1788,1.1759,1.1694,1.1657,1.1629,1.1559,1.1523,1.1498,1.1482,1.151,1.1531,1.1531,1.1543,1.1568,1.1551,1.1498,1.1437,1.1347,1.1302,1.129,1.1286,1.1286,1.1282,1.1278,1.1274,1.1249,1.1233,1.1216,1.1212,1.122,1.1233,1.1253,1.1253,1.1265,1.1278,1.1269,1.1261,1.1261,1.1237,1.1192,1.1155,1.1135,1.1106,1.1057,1.1029,1.1041,1.1033,1.0967,1.0894,1.0853,1.0796,1.0755,1.0532,0.9638,0.852,0.7622,0.6279,0.4935,0.3589,0.3141,0.3141,0.2686,0.2233,0.1111,-0.0221,-0.0887,-0.1777,-0.2876,-0.398,-0.5279,-0.611,-0.5213,-0.4326,-0.2816,-0.1735,-0.3688,-0.4967,-0.6211,-0.6674,-0.6745,-0.6957,-0.6948,-0.6927,-0.6905,-0.6878,-0.685,-0.6834,-0.6818,1.5755,1.5755,1.5755,1.5755,1.5766,1.5809,1.5804,1.5777,1.5815,1.5804,1.576,1.5755,1.5755,1.5755,1.5755,1.5755,1.5021,1.4281,1.3541,1.2806,1.2565,1.2074,1.1833,1.1837,1.1837,1.1837,1.1833,1.1837,1.1821,1.1788,1.1735,1.1698,1.1649,1.1596,1.1568,1.1568,1.1584,1.1621,1.1629,1.1641,1.1682,1.1645,1.1584,1.1506,1.1441,1.1416,1.1421,1.1421,1.1421,1.1416,1.1412,1.1372,1.1302,1.129,1.129,1.1286,1.1286,1.1286,1.1286,1.1286,1.1286,1.1286,1.1286,1.1286,1.1286,1.1286,1.1269,1.1233,1.1216,1.1196,1.1155,1.1151,1.1147,1.1131,1.1069,1.1004,1.0943,1.0837,1.0751,1.0528,0.9638,0.852,0.7398,0.6055,0.4935,0.3814,0.3589,0.3365,0.3365,0.2907,0.2441,0.1327,0.0887,0.0221,-0.1101,-0.2634,-0.4818,-0.5656,-0.6271,-0.5811,-0.4937,-0.4082,-0.3441,-0.4723,-0.6014,-0.6268,-0.632,-0.6745,-0.6948,-0.6929,-0.6908,-0.6886,-0.6858,-0.6831,-0.6818,1.5755,1.5755,1.5755,1.5755,1.5771,1.5847,1.5836,1.5777,1.5853,1.5825,1.5771,1.5755,1.5755,1.5755,1.5755,1.5266,1.4281,1.3541,1.2806,1.2565,1.2079,1.1833,1.1837,1.1837,1.1837,1.1837,1.1837,1.1837,1.1837,1.1833,1.1788,1.1731,1.1723,1.169,1.1625,1.1608,1.1653,1.171,1.1719,1.1743,1.1796,1.1747,1.1678,1.1596,1.1547,1.1535,1.1531,1.1535,1.1547,1.1559,1.1559,1.1478,1.138,1.131,1.1306,1.131,1.1302,1.1286,1.1286,1.1286,1.1286,1.1286,1.1286,1.1286,1.1286,1.1286,1.1282,1.1282,1.1274,1.1274,1.1286,1.1265,1.1269,1.1261,1.1204,1.1127,1.1024,1.0873,1.0796,1.0528,0.9638,0.852,0.7398,0.6055,0.4935,0.4038,0.3814,0.3589,0.3589,0.3579,0.2886,0.2648,0.221,0.1986,0.0878,-0.1759,-0.3725,-0.5866,-0.6689,-0.6441,-0.6197,-0.4916,-0.4073,-0.4749,-0.5415,-0.5647,-0.6091,-0.653,-0.6732,-0.6929,-0.6913,-0.6894,-0.6861,-0.6826,-0.6818,1.5755,1.5755,1.5755,1.5755,1.5755,1.5782,1.5777,1.576,1.5782,1.5777,1.576,1.5755,1.5755,1.5755,1.526,1.4281,1.3541,1.2806,1.2565,1.2079,1.1833,1.1837,1.1837,1.1837,1.1837,1.1837,1.1837,1.1837,1.1837,1.1833,1.1821,1.1808,1.1804,1.1784,1.1776,1.1788,1.1772,1.1788,1.1796,1.1813,1.1821,1.1808,1.1764,1.1678,1.1625,1.1592,1.1576,1.1568,1.1559,1.1559,1.1559,1.1547,1.151,1.1449,1.1412,1.1376,1.1323,1.1286,1.1286,1.1286,1.1286,1.1286,1.1286,1.1286,1.1286,1.1286,1.1286,1.1286,1.1286,1.1286,1.1286,1.1286,1.1286,1.1269,1.122,1.1131,1.1033,1.0935,1.0828,1.0767,0.9642,0.852,0.7398,0.6055,0.4935,0.4038,0.3589,0.3589,0.3589,0.3574,0.3329,0.3313,0.3301,0.3295,0.3066,-0.022,-0.3078,-0.5654,-0.6692,-0.6655,-0.5986,-0.5119,-0.4706,-0.5377,-0.4953,-0.4302,-0.4963,-0.6071,-0.6499,-0.6684,-0.6899,-0.6902,-0.6858,-0.6818,-0.6818,1.5755,1.5755,1.5755,1.5755,1.5755,1.5755,1.5755,1.5755,1.5755,1.5755,1.5755,1.5755,1.551,1.5266,1.5016,1.4036,1.3051,1.232,1.2079,1.1833,1.1837,1.1837,1.1837,1.1837,1.1837,1.1837,1.1837,1.1837,1.1837,1.1837,1.1837,1.1833,1.1837,1.1837,1.1837,1.1829,1.1837,1.1837,1.1837,1.1837,1.1837,1.1837,1.1804,1.1768,1.1731,1.1706,1.1702,1.1702,1.1706,1.1706,1.1706,1.1702,1.1674,1.1612,1.1519,1.1437,1.1343,1.129,1.129,1.1286,1.1286,1.1286,1.1286,1.1286,1.1286,1.1286,1.1286,1.1286,1.1286,1.1286,1.1286,1.129,1.1286,1.1282,1.1249,1.1163,1.1061,1.0992,1.0898,1.0572,0.9656,0.853,0.7398,0.6055,0.4935,0.4262,0.3814,0.3589,0.3589,0.3577,0.3559,0.3547,0.3536,0.3535,0.3082,0.044,-0.2858,-0.5441,-0.6908,-0.6655,-0.6413,-0.5758,-0.5756,-0.6413,-0.5339,-0.3633,-0.4285,-0.5603,-0.6021,-0.6448,-0.6674,-0.6883,-0.6845,-0.6818,-0.6818,1.5755,1.5755,1.5755,1.5755,1.5755,1.5755,1.5755,1.5755,1.5755,1.551,1.551,1.551,1.5021,1.4771,1.4281,1.3791,1.2565,1.2079,1.1833,1.1833,1.1837,1.1837,1.1837,1.1837,1.1837,1.1837,1.1837,1.1837,1.1837,1.1837,1.1837,1.1837,1.1837,1.1837,1.1837,1.1837,1.1837,1.1837,1.1837,1.1837,1.1837,1.1837,1.1837,1.1837,1.1837,1.1825,1.1813,1.1808,1.1813,1.1817,1.1821,1.1829,1.1817,1.1747,1.1629,1.1494,1.138,1.1318,1.129,1.1286,1.1286,1.1286,1.1286,1.1286,1.1286,1.1286,1.1286,1.1286,1.1286,1.1286,1.129,1.129,1.1055,1.1055,1.1043,1.077,1.0657,1.0349,1.0296,0.9993,0.9254,0.8318,0.7188,0.6055,0.4935,0.4038,0.3589,0.3589,0.3589,0.3589,0.3576,0.3565,0.3558,0.3562,0.2662,0.0441,-0.2853,-0.6091,-0.6692,-0.6867,-0.6842,-0.6608,-0.6823,-0.661,-0.4902,-0.3627,-0.4275,-0.4922,-0.5351,-0.6,-0.6446,-0.6867,-0.6831,-0.6818,-0.6818,1.5755,1.5755,1.5755,1.5755,1.5755,1.5755,1.5755,1.5755,1.526,1.5016,1.4771,1.4281,1.4036,1.3791,1.3296,1.2565,1.2079,1.1833,1.1837,1.1837,1.1837,1.1837,1.1837,1.1837,1.1837,1.1837,1.1837,1.1837,1.1837,1.1837,1.1837,1.1837,1.1837,1.1837,1.1837,1.1837,1.1837,1.1837,1.1837,1.1837,1.1837,1.1837,1.1837,1.1837,1.1837,1.1837,1.1837,1.1837,1.1837,1.1837,1.1837,1.1837,1.1821,1.1751,1.1702,1.1621,1.1514,1.1376,1.1318,1.129,1.1286,1.1286,1.1286,1.1286,1.1286,1.1286,1.1286,1.1286,1.1286,1.1286,1.1286,1.0821,1.0587,1.0348,1.0107,0.9829,0.9523,0.9481,0.9435,0.9165,0.8422,0.7911,0.698,0.6066,0.4935,0.4262,0.3591,0.3594,0.3591,0.3592,0.3589,0.3577,0.3347,0.3351,0.2228,-0.0,-0.2855,-0.631,-0.67,-0.6869,-0.6839,-0.682,-0.6608,-0.5967,-0.4474,-0.4261,-0.5334,-0.5763,-0.5332,-0.5552,-0.6634,-0.6842,-0.6823,-0.6818,-0.6818,1.5755,1.5755,1.5755,1.5755,1.5755,1.5755,1.551,1.526,1.4771,1.4526,1.4281,1.4036,1.3546,1.3056,1.2565,1.2074,1.1833,1.1837,1.1837,1.1837,1.1837,1.1837,1.1837,1.1837,1.1837,1.1837,1.1837,1.1837,1.1837,1.1837,1.1837,1.1837,1.1837,1.1837,1.1837,1.1837,1.1837,1.1837,1.1837,1.1837,1.1837,1.1837,1.1837,1.1837,1.1837,1.1837,1.1837,1.1837,1.1837,1.1837,1.1837,1.1837,1.1829,1.1792,1.1755,1.169,1.1633,1.1514,1.1392,1.1327,1.1298,1.1286,1.1286,1.1286,1.1286,1.1286,1.1286,1.1286,1.1286,1.1286,1.1286,1.0817,1.0318,0.9844,0.9396,0.864,0.8373,0.8138,0.8105,0.7842,0.7578,0.7069,0.6584,0.5915,0.4764,0.4066,0.3621,0.3629,0.3615,0.3599,0.3595,0.3588,0.336,0.3136,0.134,-0.0445,-0.3085,-0.5899,-0.6718,-0.6888,-0.6839,-0.6818,-0.6613,-0.6397,-0.5541,-0.5754,-0.6397,-0.5969,-0.5117,-0.5756,-0.682,-0.682,-0.6818,-0.6818,-0.6818,1.5755,1.5755,1.5755,1.5755,1.5755,1.5755,1.551,1.4771,1.4521,1.4031,1.3541,1.3301,1.3056,1.2565,1.2079,1.1833,1.1837,1.1837,1.1837,1.1837,1.1837,1.1837,1.1837,1.1837,1.1837,1.1837,1.1837,1.1837,1.1837,1.1837,1.1837,1.1837,1.1837,1.1837,1.1837,1.1837,1.1837,1.1837,1.1837,1.1837,1.1837,1.1837,1.1837,1.1837,1.1837,1.1837,1.1837,1.1837,1.1837,1.1837,1.1837,1.1837,1.1833,1.1825,1.18,1.1747,1.1698,1.1629,1.1502,1.1412,1.1327,1.1294,1.1286,1.1286,1.1286,1.1286,1.1286,1.1286,1.1286,1.1286,1.1051,1.0583,1.0096,0.9383,0.8684,0.7926,0.7425,0.7212,0.7233,0.6992,0.6494,0.5988,0.5745,0.5536,0.4829,0.3876,0.3648,0.3662,0.364,0.3611,0.3596,0.3589,0.2467,0.2018,0.0224,-0.1559,-0.3977,-0.5486,-0.653,-0.6902,-0.685,-0.6839,-0.6631,-0.6413,-0.5981,-0.5974,-0.5976,-0.5545,-0.5115,-0.5967,-0.682,-0.6818,-0.6818,-0.6818,-0.6818,1.5755,1.5755,1.5755,1.5755,1.5755,1.5755,1.551,1.4771,1.4036,1.3541,1.2811,1.232,1.2079,1.1833,1.1833,1.1837,1.1837,1.1837,1.1837,1.1837,1.1837,1.1837,1.1837,1.1837,1.1837,1.1837,1.1837,1.1837,1.1837,1.1837,1.1837,1.1837,1.1837,1.1837,1.1837,1.1837,1.1837,1.1837,1.1837,1.1837,1.1837,1.1837,1.1837,1.1837,1.1837,1.1837,1.1837,1.1837,1.1837,1.1837,1.1837,1.1837,1.1837,1.1837,1.1817,1.18,1.1751,1.1694,1.1617,1.1498,1.1384,1.1318,1.1286,1.1286,1.1286,1.1286,1.1286,1.1286,1.1286,1.1286,1.1051,1.0348,0.9869,0.9149,0.8437,0.7485,0.6998,0.6546,0.6329,0.5875,0.561,0.5086,0.4846,0.4624,0.4616,0.3662,0.3659,0.3671,0.3645,0.3618,0.3599,0.3141,0.1794,0.0673,-0.1121,-0.3124,-0.4886,-0.5958,-0.679,-0.6932,-0.6861,-0.6864,-0.6676,-0.6231,-0.6014,-0.5784,-0.5341,-0.5121,-0.5117,-0.6179,-0.6818,-0.6818,-0.6818,-0.6818,-0.6818,1.5575,1.5641,1.5641,1.5684,1.5755,1.5755,1.526,1.4281,1.3791,1.3056,1.2074,1.1833,1.1837,1.1837,1.1837,1.1837,1.1837,1.1837,1.1837,1.1837,1.1837,1.1837,1.1837,1.1837,1.1837,1.1837,1.1837,1.1837,1.1837,1.1837,1.1837,1.1837,1.1837,1.1837,1.1837,1.1837,1.1837,1.1837,1.1837,1.1837,1.1837,1.1837,1.1837,1.1837,1.1837,1.1837,1.1837,1.1837,1.1837,1.1837,1.1837,1.1837,1.1837,1.1837,1.1837,1.1837,1.1792,1.1755,1.1694,1.158,1.147,1.1384,1.1327,1.129,1.129,1.1286,1.1286,1.1286,1.1286,1.1286,1.1051,1.0583,0.9869,0.9142,0.8428,0.726,0.6556,0.6094,0.5386,0.5154,0.4652,0.4145,0.4151,0.3932,0.3919,0.3675,0.3678,0.3674,0.3651,0.3621,0.36,0.3141,0.1794,0.0224,-0.1569,-0.358,-0.5581,-0.6431,-0.7046,-0.6984,-0.6918,-0.6937,-0.674,-0.6286,-0.583,-0.5601,-0.5366,-0.4916,-0.5332,-0.6395,-0.682,-0.6818,-0.6818,-0.6818,-0.6818,1.5439,1.5521,1.5554,1.5641,1.5749,1.5755,1.5016,1.4036,1.3791,1.3056,1.1833,1.1837,1.1837,1.1837,1.1837,1.1837,1.1837,1.1837,1.1837,1.1837,1.1837,1.1837,1.1837,1.1837,1.1837,1.1837,1.1837,1.1837,1.1837,1.1837,1.1837,1.1837,1.1837,1.1837,1.1837,1.1837,1.1837,1.1837,1.1837,1.1837,1.1837,1.1837,1.1837,1.1837,1.1837,1.1837,1.1837,1.1837,1.1837,1.1837,1.1837,1.1837,1.1837,1.1837,1.1837,1.1837,1.1829,1.18,1.1731,1.1625,1.1523,1.1421,1.1376,1.1327,1.1298,1.129,1.1286,1.1286,1.1286,1.1286,1.129,1.0583,1.0341,0.962,0.869,0.7515,0.6558,0.5854,0.4907,0.4199,0.3944,0.3937,0.3914,0.3925,0.3707,0.3693,0.3686,0.3682,0.3666,0.3633,0.3596,0.2916,0.1794,0.0224,-0.1569,-0.3581,-0.5362,-0.6665,-0.7066,-0.7041,-0.7006,-0.7022,-0.679,-0.632,-0.5864,-0.5632,-0.5172,-0.4499,-0.5339,-0.6395,-0.6608,-0.6818,-0.6818,-0.6818,-0.6818,1.5385,1.5407,1.5516,1.563,1.5728,1.5755,1.5016,1.3791,1.3546,1.3056,1.1833,1.1837,1.1837,1.1837,1.1837,1.1837,1.1837,1.1837,1.1837,1.1837,1.1837,1.1837,1.1837,1.1837,1.1837,1.1837,1.1837,1.1837,1.1837,1.1837,1.1837,1.1837,1.1837,1.1837,1.1837,1.1837,1.1837,1.1837,1.1837,1.1837,1.1837,1.1837,1.1837,1.1837,1.1837,1.1837,1.1837,1.1837,1.1837,1.1837,1.1837,1.1837,1.1837,1.1837,1.1837,1.1837,1.1837,1.1833,1.1817,1.1661,1.1559,1.1482,1.1449,1.14,1.1327,1.1298,1.1306,1.1323,1.1298,1.129,1.1055,1.0821,1.0575,1.0107,0.9175,0.7987,0.7026,0.5843,0.4898,0.395,0.3738,0.3746,0.3705,0.3688,0.3714,0.3714,0.37,0.3688,0.3674,0.3639,0.3595,0.2917,0.2019,0.0224,-0.1569,-0.3363,-0.492,-0.6449,-0.7093,-0.7079,-0.7074,-0.7074,-0.6832,-0.636,-0.6126,-0.5899,-0.498,-0.4076,-0.5349,-0.6618,-0.6608,-0.6818,-0.6818,-0.6818,-0.6818,1.4492,1.4565,1.413,1.4205,1.4325,1.5446,1.5016,1.3791,1.2811,1.2324,1.1833,1.1837,1.1837,1.1837,1.1837,1.1837,1.1837,1.1837,1.1837,1.1837,1.1837,1.1837,1.1837,1.1837,1.1837,1.1837,1.1837,1.1837,1.1837,1.1837,1.1837,1.1837,1.1837,1.1837,1.1837,1.1837,1.1837,1.1837,1.1837,1.1837,1.1837,1.1837,1.1837,1.1837,1.1837,1.1837,1.1837,1.1837,1.1837,1.1837,1.1837,1.1837,1.1837,1.1837,1.1837,1.1837,1.1837,1.1837,1.1829,1.1759,1.1706,1.1621,1.1543,1.1502,1.1465,1.1408,1.1388,1.1355,1.1314,1.1298,1.129,1.1051,1.1047,1.0817,0.9872,0.8671,0.7477,0.6301,0.5122,0.4167,0.3707,0.3719,0.3697,0.3688,0.3707,0.3716,0.3704,0.3688,0.3674,0.3632,0.3589,0.3141,0.2019,0.0224,-0.1345,-0.3139,-0.4933,-0.6701,-0.7142,-0.7145,-0.7139,-0.7125,-0.712,-0.6655,-0.6411,-0.6167,-0.5676,-0.5409,-0.6009,-0.6626,-0.6839,-0.6828,-0.6818,-0.6818,-0.6818,1.3909,1.3979,1.3542,1.3358,1.3687,1.4582,1.4431,1.325,1.2307,1.1837,1.1837,1.1837,1.1837,1.1837,1.1837,1.1837,1.1837,1.1837,1.1837,1.1837,1.1837,1.1837,1.1837,1.1837,1.1837,1.1837,1.1837,1.1837,1.1837,1.1837,1.1837,1.1837,1.1837,1.1837,1.1837,1.1837,1.1837,1.1837,1.1837,1.1837,1.1837,1.1837,1.1837,1.1837,1.1837,1.1837,1.1837,1.1837,1.1837,1.1837,1.1837,1.1837,1.1837,1.1837,1.1837,1.1837,1.1837,1.1837,1.1833,1.1829,1.178,1.1743,1.1661,1.16,1.1555,1.1465,1.1429,1.1392,1.1339,1.1302,1.1286,1.1286,1.129,1.1055,1.0107,0.8902,0.7493,0.6317,0.5145,0.4181,0.3705,0.3707,0.3703,0.3696,0.3701,0.3705,0.3705,0.369,0.3671,0.3629,0.3596,0.3148,0.2022,0.0224,-0.1571,-0.3139,-0.4933,-0.6951,-0.7175,-0.6951,-0.7172,-0.7153,-0.7166,-0.7169,-0.6895,-0.663,-0.6819,-0.6989,-0.6932,-0.6894,-0.6878,-0.6856,-0.6826,-0.6818,-0.6818,1.363,1.3177,1.3272,1.3079,1.3334,1.3439,1.3062,1.2678,1.2033,1.1829,1.1837,1.1837,1.1837,1.1837,1.1837,1.1837,1.1837,1.1837,1.1837,1.1837,1.1837,1.1837,1.1837,1.1837,1.1837,1.1837,1.1837,1.1837,1.1837,1.1837,1.1837,1.1837,1.1837,1.1837,1.1837,1.1837,1.1837,1.1837,1.1837,1.1837,1.1837,1.1837,1.1837,1.1837,1.1837,1.1837,1.1837,1.1837,1.1837,1.1837,1.1837,1.1837,1.1837,1.1837,1.1837,1.1837,1.1837,1.1837,1.1837,1.1837,1.1833,1.18,1.1747,1.1666,1.1592,1.1527,1.1474,1.1421,1.1359,1.1318,1.1286,1.1286,1.129,1.0821,1.0117,0.8934,0.7526,0.6349,0.5176,0.446,0.3985,0.3746,0.3735,0.3727,0.3701,0.3703,0.3703,0.3688,0.3666,0.3633,0.3609,0.3162,0.2029,0.0,-0.1798,-0.3604,-0.4951,-0.6763,-0.6732,-0.6727,-0.6951,-0.7175,-0.7175,-0.7161,-0.7125,-0.709,-0.706,-0.7033,-0.7,-0.6962,-0.6908,-0.6886,-0.6856,-0.6826,-0.6818,1.3163,1.2465,1.2023,1.1801,1.1814,1.1899,1.227,1.2665,1.1974,1.1768,1.1837,1.1837,1.1825,1.1837,1.1837,1.1837,1.1837,1.1837,1.1837,1.1837,1.1837,1.1837,1.1837,1.1837,1.1837,1.1837,1.1837,1.1837,1.1837,1.1837,1.1837,1.1837,1.1837,1.1837,1.1837,1.1837,1.1837,1.1837,1.1837,1.1837,1.1837,1.1837,1.1837,1.1837,1.1837,1.1837,1.1837,1.1837,1.1837,1.1837,1.1837,1.1837,1.1837,1.1837,1.1837,1.1837,1.1837,1.1837,1.1837,1.1837,1.1837,1.1837,1.1804,1.18,1.1723,1.1617,1.1523,1.1465,1.1367,1.1306,1.1286,1.129,1.1055,1.0821,0.9883,0.8706,0.7532,0.6358,0.5184,0.424,0.3764,0.3756,0.3748,0.3729,0.3705,0.3705,0.3701,0.3692,0.3669,0.3639,0.3628,0.3406,0.1133,-0.0904,-0.2721,-0.4548,-0.5444,-0.6339,-0.608,-0.5831,-0.6279,-0.6279,-0.6727,-0.694,-0.7145,-0.7115,-0.7082,-0.706,-0.7052,-0.6967,-0.691,-0.6899,-0.6883,-0.6848,-0.682,1.2695,1.1754,1.1524,1.1286,1.1298,1.1347,1.1695,1.206,1.187,1.1682,1.1727,1.1764,1.178,1.1784,1.1813,1.1837,1.1837,1.1837,1.1837,1.1837,1.1837,1.1837,1.1837,1.1837,1.1837,1.1837,1.1837,1.1837,1.1837,1.1837,1.1837,1.1837,1.1837,1.1837,1.1837,1.1837,1.1837,1.1837,1.1837,1.1837,1.1837,1.1837,1.1837,1.1837,1.1837,1.1837,1.1837,1.1837,1.1837,1.1837,1.1837,1.1837,1.1837,1.1837,1.1837,1.1837,1.1837,1.1837,1.1837,1.1837,1.1837,1.1837,1.1837,1.1829,1.1764,1.1661,1.1592,1.1523,1.1388,1.129,1.129,1.1055,1.1055,1.0821,0.9648,0.8474,0.7299,0.6358,0.5182,0.424,0.3763,0.3753,0.3739,0.3722,0.3718,0.3731,0.3737,0.3733,0.3703,0.3662,0.3655,0.343,0.0684,-0.2045,-0.3652,-0.4578,-0.4782,-0.4983,-0.4052,-0.4264,-0.4935,-0.5831,-0.6055,-0.6727,-0.7172,-0.7142,-0.7117,-0.7117,-0.7101,-0.7014,-0.6946,-0.6932,-0.6905,-0.685,-0.6828,1.2461,1.1286,1.1286,1.1286,1.1286,1.1294,1.1343,1.1416,1.1498,1.1551,1.1584,1.1653,1.1694,1.1723,1.1776,1.1817,1.1829,1.1837,1.1837,1.1837,1.1837,1.1837,1.1837,1.1837,1.1837,1.1837,1.1837,1.1837,1.1837,1.1837,1.1837,1.1837,1.1837,1.1837,1.1837,1.1837,1.1837,1.1837,1.1837,1.1837,1.1837,1.1837,1.1837,1.1837,1.1837,1.1837,1.1837,1.1837,1.1837,1.1837,1.1837,1.1837,1.1837,1.1813,1.1813,1.18,1.1784,1.1788,1.1792,1.18,1.1821,1.1829,1.1837,1.1821,1.1755,1.1653,1.158,1.1527,1.1404,1.1306,1.129,1.0821,1.0587,1.0117,0.9175,0.8001,0.6826,0.5653,0.4711,0.4005,0.3768,0.376,0.3756,0.3741,0.3733,0.3753,0.3753,0.375,0.3501,0.3457,0.3452,0.3224,0.0917,-0.183,-0.3221,-0.3912,-0.3652,-0.3402,-0.2479,-0.2918,-0.4036,-0.4933,-0.5381,-0.6277,-0.7175,-0.7175,-0.7161,-0.7155,-0.7134,-0.7079,-0.7019,-0.6978,-0.6935,-0.6883,-0.6842,1.2461,1.1286,1.1286,1.1286,1.1286,1.1286,1.1298,1.1323,1.1343,1.1433,1.1547,1.1588,1.1629,1.1682,1.171,1.1755,1.1808,1.1813,1.1833,1.1829,1.1829,1.1837,1.1837,1.1837,1.1837,1.1837,1.1837,1.1837,1.1837,1.1837,1.1837,1.1837,1.1837,1.1837,1.1837,1.1837,1.1837,1.1837,1.1837,1.1837,1.1837,1.1837,1.1837,1.1837,1.1837,1.1837,1.1837,1.1837,1.1837,1.1837,1.1837,1.1837,1.1837,1.1772,1.1735,1.1719,1.1682,1.169,1.1715,1.1735,1.1755,1.1804,1.1813,1.178,1.1723,1.1621,1.1543,1.1494,1.1429,1.1343,1.1051,1.0587,1.0117,0.9413,0.8471,0.7297,0.6121,0.5182,0.4242,0.4006,0.3772,0.3769,0.3768,0.3763,0.3756,0.3748,0.3738,0.3501,0.3037,0.2784,0.2551,0.2316,0.1151,-0.0921,-0.2545,-0.2769,-0.2514,-0.2045,-0.1355,-0.225,-0.3363,-0.4933,-0.6279,-0.6727,-0.7175,-0.7175,-0.7175,-0.7172,-0.7145,-0.7101,-0.7074,-0.7025,-0.6995,-0.6948,-0.6891,1.2357,1.1233,1.1274,1.1286,1.1286,1.1286,1.1286,1.1286,1.1286,1.1343,1.1441,1.1482,1.1535,1.1592,1.1617,1.1657,1.1727,1.1759,1.1759,1.1776,1.1817,1.1833,1.1837,1.1837,1.1837,1.1837,1.1837,1.1837,1.1837,1.1837,1.1837,1.1837,1.1837,1.1837,1.1837,1.1837,1.1837,1.1837,1.1837,1.1837,1.1837,1.1837,1.1837,1.1837,1.1837,1.1837,1.1837,1.1837,1.1837,1.1837,1.1837,1.1796,1.1776,1.1727,1.1682,1.1641,1.1604,1.1584,1.1621,1.1645,1.1661,1.171,1.1719,1.1661,1.1637,1.1543,1.149,1.1441,1.1376,1.129,1.1055,1.0587,0.9648,0.8944,0.7769,0.6594,0.5653,0.4476,0.4006,0.4008,0.3772,0.3772,0.3769,0.3768,0.3763,0.3763,0.3749,0.3742,0.3273,0.2323,0.2092,0.1625,0.046,-0.023,-0.1615,-0.1609,-0.0685,-0.0454,-0.0226,-0.2026,-0.3587,-0.5607,-0.718,-0.7177,-0.7175,-0.7175,-0.7175,-0.7175,-0.7147,-0.7101,-0.7085,-0.7066,-0.7038,-0.7014,-0.697,1.2236,1.1167,1.1241,1.1282,1.1286,1.1286,1.1286,1.1286,1.1286,1.1286,1.131,1.138,1.1408,1.1453,1.1502,1.1535,1.1584,1.1653,1.1678,1.1727,1.1776,1.1808,1.1829,1.1837,1.1837,1.1837,1.1837,1.1837,1.1837,1.1837,1.1837,1.1837,1.1837,1.1837,1.1837,1.1837,1.1837,1.1837,1.1837,1.1837,1.1837,1.1837,1.1837,1.1837,1.1837,1.1837,1.1837,1.1837,1.1837,1.1825,1.1813,1.1768,1.1706,1.1661,1.16,1.1551,1.1506,1.151,1.1539,1.1543,1.1559,1.1572,1.1559,1.1547,1.1531,1.1494,1.1441,1.138,1.1318,1.1059,1.0821,1.0117,0.9413,0.8239,0.7064,0.5888,0.4947,0.4242,0.4006,0.3771,0.3767,0.3767,0.3771,0.3771,0.3765,0.3767,0.3765,0.3765,0.3516,0.2084,0.1381,0.1148,0.0456,-0.0457,-0.046,-0.0229,0.0682,0.0681,0.0452,-0.1574,-0.3811,-0.5831,-0.7177,-0.7177,-0.7175,-0.7175,-0.7175,-0.7175,-0.7139,-0.7112,-0.7115,-0.7109,-0.709,-0.7289,-0.7269,1.2227,1.1163,1.1184,1.1225,1.1282,1.1286,1.1286,1.1286,1.1286,1.1286,1.1294,1.1302,1.1347,1.1425,1.1437,1.147,1.1523,1.1572,1.1641,1.1702,1.1723,1.1772,1.1813,1.1829,1.1833,1.1837,1.1837,1.1837,1.1837,1.1837,1.1837,1.1837,1.1837,1.1837,1.1837,1.1837,1.1837,1.1837,1.1837,1.1837,1.1837,1.1837,1.1837,1.1837,1.1837,1.1837,1.1837,1.1837,1.1837,1.1817,1.1768,1.1723,1.1649,1.1572,1.1502,1.1457,1.1408,1.1412,1.1433,1.1445,1.1465,1.1519,1.151,1.1494,1.1474,1.1441,1.1388,1.1335,1.129,1.129,1.0821,0.9883,0.8944,0.7299,0.6123,0.5184,0.4006,0.4006,0.3772,0.3763,0.3752,0.3759,0.3769,0.376,0.3739,0.3739,0.3735,0.3735,0.3511,0.2312,0.0913,0.0682,0.0454,0.1595,0.2292,0.1368,0.1587,0.1811,0.0451,-0.2697,-0.4933,-0.6279,-0.7175,-0.7175,-0.7175,-0.7175,-0.7175,-0.7175,-0.7169,-0.715,-0.7158,-0.7155,-0.7359,-0.7567,-0.7547]}]]